<?xml version="1.0" encoding="UTF-8" standalone="no" ?>
<gpx xmlns="http://www.topografix.com/GPX/1/1" xmlns:xsi="http://www.w3.org/2001/XMLSchema-instance" xsi:schemaLocation="http://www.topografix.com/GPX/1/1 http://www.topografix.com/GPX/1/1/gpx.xsd" version="1.1" creator="VisuGPX - https://www.visugpx.com">
  <metadata>
    <name>Dimanche 30 août 26</name>
  </metadata>
  <trk>
    <name><![CDATA[Dimanche 30 août 26]]></name>
    <extensions>
      <line xmlns="http://www.topografix.com/GPX/gpx_style/0/2">
        <width>7</width>
      </line>
    </extensions>
    <trkseg>
      <trkpt lat="43.38297" lon="-1.65913">
        <ele>4</ele>
        <time>2026-08-23T11:52:19.000Z</time>
      </trkpt>
      <trkpt lat="43.383" lon="-1.65909">
        <ele>4</ele>
        <time>2026-08-23T11:52:20.000Z</time>
      </trkpt>
      <trkpt lat="43.38296" lon="-1.65898">
        <ele>4</ele>
        <time>2026-08-23T11:52:21.000Z</time>
      </trkpt>
      <trkpt lat="43.38305" lon="-1.65894">
        <ele>4</ele>
        <time>2026-08-23T11:52:23.000Z</time>
      </trkpt>
      <trkpt lat="43.38298" lon="-1.65877">
        <ele>4</ele>
        <time>2026-08-23T11:52:26.000Z</time>
      </trkpt>
      <trkpt lat="43.38234" lon="-1.65703">
        <ele>4</ele>
        <time>2026-08-23T11:52:51.000Z</time>
      </trkpt>
      <trkpt lat="43.38233" lon="-1.65687">
        <ele>4</ele>
        <time>2026-08-23T11:52:53.000Z</time>
      </trkpt>
      <trkpt lat="43.38236" lon="-1.65679">
        <ele>4</ele>
        <time>2026-08-23T11:52:54.000Z</time>
      </trkpt>
      <trkpt lat="43.38252" lon="-1.65655">
        <ele>4</ele>
        <time>2026-08-23T11:52:58.000Z</time>
      </trkpt>
      <trkpt lat="43.38351" lon="-1.65522">
        <ele>4</ele>
        <time>2026-08-23T11:53:23.000Z</time>
      </trkpt>
      <trkpt lat="43.38357" lon="-1.65509">
        <ele>4</ele>
        <time>2026-08-23T11:53:25.000Z</time>
      </trkpt>
      <trkpt lat="43.38352" lon="-1.65508">
        <ele>4</ele>
        <time>2026-08-23T11:53:26.000Z</time>
      </trkpt>
      <trkpt lat="43.38328" lon="-1.65473">
        <ele>4</ele>
        <time>2026-08-23T11:53:32.000Z</time>
      </trkpt>
      <trkpt lat="43.38325" lon="-1.65465">
        <ele>4</ele>
        <time>2026-08-23T11:53:33.000Z</time>
      </trkpt>
      <trkpt lat="43.38326" lon="-1.65462">
        <ele>4</ele>
        <time>2026-08-23T11:53:34.000Z</time>
      </trkpt>
      <trkpt lat="43.38327" lon="-1.65457">
        <ele>4</ele>
        <time>2026-08-23T11:53:34.000Z</time>
      </trkpt>
      <trkpt lat="43.38331" lon="-1.65453">
        <ele>5</ele>
        <time>2026-08-23T11:53:35.000Z</time>
      </trkpt>
      <trkpt lat="43.3837" lon="-1.65376">
        <ele>5</ele>
        <time>2026-08-23T11:53:47.000Z</time>
      </trkpt>
      <trkpt lat="43.3839" lon="-1.65332">
        <ele>6</ele>
        <time>2026-08-23T11:53:54.000Z</time>
      </trkpt>
      <trkpt lat="43.38394" lon="-1.65317">
        <ele>8</ele>
        <time>2026-08-23T11:53:56.000Z</time>
      </trkpt>
      <trkpt lat="43.38392" lon="-1.65295">
        <ele>10</ele>
        <time>2026-08-23T11:53:59.000Z</time>
      </trkpt>
      <trkpt lat="43.38384" lon="-1.65266">
        <ele>13</ele>
        <time>2026-08-23T11:54:03.000Z</time>
      </trkpt>
      <trkpt lat="43.38365" lon="-1.65248">
        <ele>13</ele>
        <time>2026-08-23T11:54:07.000Z</time>
      </trkpt>
      <trkpt lat="43.3836" lon="-1.65239">
        <ele>13</ele>
        <time>2026-08-23T11:54:08.000Z</time>
      </trkpt>
      <trkpt lat="43.38356" lon="-1.65227">
        <ele>13</ele>
        <time>2026-08-23T11:54:10.000Z</time>
      </trkpt>
      <trkpt lat="43.38343" lon="-1.652">
        <ele>12</ele>
        <time>2026-08-23T11:54:14.000Z</time>
      </trkpt>
      <trkpt lat="43.38276" lon="-1.65016">
        <ele>9</ele>
        <time>2026-08-23T11:54:41.000Z</time>
      </trkpt>
      <trkpt lat="43.3826" lon="-1.64971">
        <ele>8</ele>
        <time>2026-08-23T11:54:47.000Z</time>
      </trkpt>
      <trkpt lat="43.38254" lon="-1.64945">
        <ele>8</ele>
        <time>2026-08-23T11:54:51.000Z</time>
      </trkpt>
      <trkpt lat="43.38252" lon="-1.64928">
        <ele>8</ele>
        <time>2026-08-23T11:54:53.000Z</time>
      </trkpt>
      <trkpt lat="43.38255" lon="-1.6488">
        <ele>9</ele>
        <time>2026-08-23T11:54:59.000Z</time>
      </trkpt>
      <trkpt lat="43.38279" lon="-1.64626">
        <ele>7</ele>
        <time>2026-08-23T11:55:33.000Z</time>
      </trkpt>
      <trkpt lat="43.3828" lon="-1.64595">
        <ele>8</ele>
        <time>2026-08-23T11:55:37.000Z</time>
      </trkpt>
      <trkpt lat="43.38277" lon="-1.64488">
        <ele>10</ele>
        <time>2026-08-23T11:55:50.000Z</time>
      </trkpt>
      <trkpt lat="43.38272" lon="-1.64424">
        <ele>8</ele>
        <time>2026-08-23T11:55:59.000Z</time>
      </trkpt>
      <trkpt lat="43.38264" lon="-1.64383">
        <ele>7</ele>
        <time>2026-08-23T11:56:04.000Z</time>
      </trkpt>
      <trkpt lat="43.3825" lon="-1.64341">
        <ele>5</ele>
        <time>2026-08-23T11:56:10.000Z</time>
      </trkpt>
      <trkpt lat="43.38232" lon="-1.64309">
        <ele>5</ele>
        <time>2026-08-23T11:56:15.000Z</time>
      </trkpt>
      <trkpt lat="43.38212" lon="-1.64283">
        <ele>5</ele>
        <time>2026-08-23T11:56:20.000Z</time>
      </trkpt>
      <trkpt lat="43.38155" lon="-1.6423">
        <ele>6</ele>
        <time>2026-08-23T11:56:33.000Z</time>
      </trkpt>
      <trkpt lat="43.3812" lon="-1.64193">
        <ele>6</ele>
        <time>2026-08-23T11:56:40.000Z</time>
      </trkpt>
      <trkpt lat="43.38056" lon="-1.64058">
        <ele>9</ele>
        <time>2026-08-23T11:57:01.000Z</time>
      </trkpt>
      <trkpt lat="43.37906" lon="-1.63917">
        <ele>6</ele>
        <time>2026-08-23T11:57:34.000Z</time>
      </trkpt>
      <trkpt lat="43.37776" lon="-1.63786">
        <ele>8</ele>
        <time>2026-08-23T11:58:02.000Z</time>
      </trkpt>
      <trkpt lat="43.37759" lon="-1.63774">
        <ele>8</ele>
        <time>2026-08-23T11:58:06.000Z</time>
      </trkpt>
      <trkpt lat="43.37738" lon="-1.63772">
        <ele>8</ele>
        <time>2026-08-23T11:58:09.000Z</time>
      </trkpt>
      <trkpt lat="43.37642" lon="-1.63776">
        <ele>6</ele>
        <time>2026-08-23T11:58:26.000Z</time>
      </trkpt>
      <trkpt lat="43.37604" lon="-1.63785">
        <ele>6</ele>
        <time>2026-08-23T11:58:33.000Z</time>
      </trkpt>
      <trkpt lat="43.37541" lon="-1.63786">
        <ele>5</ele>
        <time>2026-08-23T11:58:45.000Z</time>
      </trkpt>
      <trkpt lat="43.37526" lon="-1.63781">
        <ele>5</ele>
        <time>2026-08-23T11:58:47.000Z</time>
      </trkpt>
      <trkpt lat="43.37517" lon="-1.6379">
        <ele>4</ele>
        <time>2026-08-23T11:58:49.000Z</time>
      </trkpt>
      <trkpt lat="43.3751" lon="-1.63791">
        <ele>4</ele>
        <time>2026-08-23T11:58:51.000Z</time>
      </trkpt>
      <trkpt lat="43.37445" lon="-1.63794">
        <ele>4</ele>
        <time>2026-08-23T11:59:02.000Z</time>
      </trkpt>
      <trkpt lat="43.37409" lon="-1.63788">
        <ele>4</ele>
        <time>2026-08-23T11:59:09.000Z</time>
      </trkpt>
      <trkpt lat="43.37111" lon="-1.63806">
        <ele>5</ele>
        <time>2026-08-23T12:00:02.000Z</time>
      </trkpt>
      <trkpt lat="43.37085" lon="-1.63801">
        <ele>6</ele>
        <time>2026-08-23T12:00:06.000Z</time>
      </trkpt>
      <trkpt lat="43.37067" lon="-1.63794">
        <ele>6</ele>
        <time>2026-08-23T12:00:10.000Z</time>
      </trkpt>
      <trkpt lat="43.36753" lon="-1.63597">
        <ele>7</ele>
        <time>2026-08-23T12:01:11.000Z</time>
      </trkpt>
      <trkpt lat="43.36709" lon="-1.63582">
        <ele>8</ele>
        <time>2026-08-23T12:01:19.000Z</time>
      </trkpt>
      <trkpt lat="43.36675" lon="-1.63576">
        <ele>8</ele>
        <time>2026-08-23T12:01:25.000Z</time>
      </trkpt>
      <trkpt lat="43.36638" lon="-1.63578">
        <ele>7</ele>
        <time>2026-08-23T12:01:32.000Z</time>
      </trkpt>
      <trkpt lat="43.36595" lon="-1.63589">
        <ele>5</ele>
        <time>2026-08-23T12:01:40.000Z</time>
      </trkpt>
      <trkpt lat="43.36349" lon="-1.63669">
        <ele>7</ele>
        <time>2026-08-23T12:02:25.000Z</time>
      </trkpt>
      <trkpt lat="43.36308" lon="-1.63673">
        <ele>7</ele>
        <time>2026-08-23T12:02:32.000Z</time>
      </trkpt>
      <trkpt lat="43.36277" lon="-1.63671">
        <ele>6</ele>
        <time>2026-08-23T12:02:37.000Z</time>
      </trkpt>
      <trkpt lat="43.36255" lon="-1.63666">
        <ele>6</ele>
        <time>2026-08-23T12:02:41.000Z</time>
      </trkpt>
      <trkpt lat="43.36233" lon="-1.63658">
        <ele>6</ele>
        <time>2026-08-23T12:02:45.000Z</time>
      </trkpt>
      <trkpt lat="43.36097" lon="-1.63603">
        <ele>5</ele>
        <time>2026-08-23T12:03:11.000Z</time>
      </trkpt>
      <trkpt lat="43.36075" lon="-1.63589">
        <ele>5</ele>
        <time>2026-08-23T12:03:15.000Z</time>
      </trkpt>
      <trkpt lat="43.36061" lon="-1.63577">
        <ele>5</ele>
        <time>2026-08-23T12:03:18.000Z</time>
      </trkpt>
      <trkpt lat="43.36039" lon="-1.63549">
        <ele>6</ele>
        <time>2026-08-23T12:03:23.000Z</time>
      </trkpt>
      <trkpt lat="43.36029" lon="-1.63531">
        <ele>6</ele>
        <time>2026-08-23T12:03:26.000Z</time>
      </trkpt>
      <trkpt lat="43.36014" lon="-1.63501">
        <ele>6</ele>
        <time>2026-08-23T12:03:31.000Z</time>
      </trkpt>
      <trkpt lat="43.35995" lon="-1.63453">
        <ele>8</ele>
        <time>2026-08-23T12:03:38.000Z</time>
      </trkpt>
      <trkpt lat="43.35984" lon="-1.63434">
        <ele>8</ele>
        <time>2026-08-23T12:03:41.000Z</time>
      </trkpt>
      <trkpt lat="43.35935" lon="-1.63358">
        <ele>9</ele>
        <time>2026-08-23T12:03:54.000Z</time>
      </trkpt>
      <trkpt lat="43.35921" lon="-1.63341">
        <ele>8</ele>
        <time>2026-08-23T12:03:58.000Z</time>
      </trkpt>
      <trkpt lat="43.35859" lon="-1.6328">
        <ele>9</ele>
        <time>2026-08-23T12:04:11.000Z</time>
      </trkpt>
      <trkpt lat="43.35789" lon="-1.63219">
        <ele>9</ele>
        <time>2026-08-23T12:04:26.000Z</time>
      </trkpt>
      <trkpt lat="43.3575" lon="-1.63192">
        <ele>7</ele>
        <time>2026-08-23T12:04:34.000Z</time>
      </trkpt>
      <trkpt lat="43.35673" lon="-1.63163">
        <ele>6</ele>
        <time>2026-08-23T12:04:48.000Z</time>
      </trkpt>
      <trkpt lat="43.35667" lon="-1.63163">
        <ele>6</ele>
        <time>2026-08-23T12:04:49.000Z</time>
      </trkpt>
      <trkpt lat="43.35663" lon="-1.63166">
        <ele>6</ele>
        <time>2026-08-23T12:04:50.000Z</time>
      </trkpt>
      <trkpt lat="43.35657" lon="-1.63166">
        <ele>6</ele>
        <time>2026-08-23T12:04:51.000Z</time>
      </trkpt>
      <trkpt lat="43.35638" lon="-1.63154">
        <ele>6</ele>
        <time>2026-08-23T12:04:54.000Z</time>
      </trkpt>
      <trkpt lat="43.35614" lon="-1.63148">
        <ele>5</ele>
        <time>2026-08-23T12:04:59.000Z</time>
      </trkpt>
      <trkpt lat="43.3544" lon="-1.63097">
        <ele>6</ele>
        <time>2026-08-23T12:05:30.000Z</time>
      </trkpt>
      <trkpt lat="43.35403" lon="-1.63082">
        <ele>7</ele>
        <time>2026-08-23T12:05:37.000Z</time>
      </trkpt>
      <trkpt lat="43.35386" lon="-1.63073">
        <ele>7</ele>
        <time>2026-08-23T12:05:41.000Z</time>
      </trkpt>
      <trkpt lat="43.3535" lon="-1.63044">
        <ele>7</ele>
        <time>2026-08-23T12:05:48.000Z</time>
      </trkpt>
      <trkpt lat="43.35306" lon="-1.62998">
        <ele>6</ele>
        <time>2026-08-23T12:05:58.000Z</time>
      </trkpt>
      <trkpt lat="43.35289" lon="-1.62974">
        <ele>6</ele>
        <time>2026-08-23T12:06:02.000Z</time>
      </trkpt>
      <trkpt lat="43.35268" lon="-1.62932">
        <ele>6</ele>
        <time>2026-08-23T12:06:09.000Z</time>
      </trkpt>
      <trkpt lat="43.35255" lon="-1.629">
        <ele>6</ele>
        <time>2026-08-23T12:06:13.000Z</time>
      </trkpt>
      <trkpt lat="43.35207" lon="-1.62759">
        <ele>8</ele>
        <time>2026-08-23T12:06:34.000Z</time>
      </trkpt>
      <trkpt lat="43.35118" lon="-1.62528">
        <ele>12</ele>
        <time>2026-08-23T12:07:07.000Z</time>
      </trkpt>
      <trkpt lat="43.35108" lon="-1.62493">
        <ele>11</ele>
        <time>2026-08-23T12:07:12.000Z</time>
      </trkpt>
      <trkpt lat="43.35103" lon="-1.62461">
        <ele>10</ele>
        <time>2026-08-23T12:07:17.000Z</time>
      </trkpt>
      <trkpt lat="43.35103" lon="-1.62402">
        <ele>11</ele>
        <time>2026-08-23T12:07:24.000Z</time>
      </trkpt>
      <trkpt lat="43.35109" lon="-1.62334">
        <ele>10</ele>
        <time>2026-08-23T12:07:33.000Z</time>
      </trkpt>
      <trkpt lat="43.35118" lon="-1.62308">
        <ele>11</ele>
        <time>2026-08-23T12:07:37.000Z</time>
      </trkpt>
      <trkpt lat="43.35181" lon="-1.62185">
        <ele>11</ele>
        <time>2026-08-23T12:07:56.000Z</time>
      </trkpt>
      <trkpt lat="43.35201" lon="-1.62157">
        <ele>12</ele>
        <time>2026-08-23T12:08:01.000Z</time>
      </trkpt>
      <trkpt lat="43.35214" lon="-1.62143">
        <ele>12</ele>
        <time>2026-08-23T12:08:04.000Z</time>
      </trkpt>
      <trkpt lat="43.3524" lon="-1.62126">
        <ele>14</ele>
        <time>2026-08-23T12:08:09.000Z</time>
      </trkpt>
      <trkpt lat="43.35407" lon="-1.6206">
        <ele>21</ele>
        <time>2026-08-23T12:08:40.000Z</time>
      </trkpt>
      <trkpt lat="43.35432" lon="-1.62045">
        <ele>21</ele>
        <time>2026-08-23T12:08:45.000Z</time>
      </trkpt>
      <trkpt lat="43.35486" lon="-1.62001">
        <ele>18</ele>
        <time>2026-08-23T12:08:56.000Z</time>
      </trkpt>
      <trkpt lat="43.35515" lon="-1.61963">
        <ele>18</ele>
        <time>2026-08-23T12:09:03.000Z</time>
      </trkpt>
      <trkpt lat="43.35657" lon="-1.61739">
        <ele>15</ele>
        <time>2026-08-23T12:09:42.000Z</time>
      </trkpt>
      <trkpt lat="43.35787" lon="-1.61535">
        <ele>14</ele>
        <time>2026-08-23T12:10:17.000Z</time>
      </trkpt>
      <trkpt lat="43.35815" lon="-1.61503">
        <ele>12</ele>
        <time>2026-08-23T12:10:23.000Z</time>
      </trkpt>
      <trkpt lat="43.35913" lon="-1.61419">
        <ele>16</ele>
        <time>2026-08-23T12:10:44.000Z</time>
      </trkpt>
      <trkpt lat="43.35934" lon="-1.61396">
        <ele>16</ele>
        <time>2026-08-23T12:10:49.000Z</time>
      </trkpt>
      <trkpt lat="43.36033" lon="-1.61268">
        <ele>11</ele>
        <time>2026-08-23T12:11:13.000Z</time>
      </trkpt>
      <trkpt lat="43.36058" lon="-1.61226">
        <ele>11</ele>
        <time>2026-08-23T12:11:20.000Z</time>
      </trkpt>
      <trkpt lat="43.36075" lon="-1.61188">
        <ele>12</ele>
        <time>2026-08-23T12:11:26.000Z</time>
      </trkpt>
      <trkpt lat="43.36091" lon="-1.61139">
        <ele>13</ele>
        <time>2026-08-23T12:11:33.000Z</time>
      </trkpt>
      <trkpt lat="43.36101" lon="-1.61078">
        <ele>15</ele>
        <time>2026-08-23T12:11:41.000Z</time>
      </trkpt>
      <trkpt lat="43.36105" lon="-1.61018">
        <ele>17</ele>
        <time>2026-08-23T12:11:49.000Z</time>
      </trkpt>
      <trkpt lat="43.36113" lon="-1.60838">
        <ele>16</ele>
        <time>2026-08-23T12:12:12.000Z</time>
      </trkpt>
      <trkpt lat="43.36119" lon="-1.6075">
        <ele>18</ele>
        <time>2026-08-23T12:12:23.000Z</time>
      </trkpt>
      <trkpt lat="43.36118" lon="-1.60724">
        <ele>18</ele>
        <time>2026-08-23T12:12:27.000Z</time>
      </trkpt>
      <trkpt lat="43.36104" lon="-1.60585">
        <ele>18</ele>
        <time>2026-08-23T12:12:45.000Z</time>
      </trkpt>
      <trkpt lat="43.36102" lon="-1.60551">
        <ele>17</ele>
        <time>2026-08-23T12:12:49.000Z</time>
      </trkpt>
      <trkpt lat="43.36102" lon="-1.60518">
        <ele>17</ele>
        <time>2026-08-23T12:12:54.000Z</time>
      </trkpt>
      <trkpt lat="43.36103" lon="-1.60494">
        <ele>17</ele>
        <time>2026-08-23T12:12:57.000Z</time>
      </trkpt>
      <trkpt lat="43.36109" lon="-1.60462">
        <ele>16</ele>
        <time>2026-08-23T12:13:01.000Z</time>
      </trkpt>
      <trkpt lat="43.36116" lon="-1.60439">
        <ele>16</ele>
        <time>2026-08-23T12:13:04.000Z</time>
      </trkpt>
      <trkpt lat="43.36126" lon="-1.60409">
        <ele>15</ele>
        <time>2026-08-23T12:13:08.000Z</time>
      </trkpt>
      <trkpt lat="43.36138" lon="-1.60384">
        <ele>15</ele>
        <time>2026-08-23T12:13:12.000Z</time>
      </trkpt>
      <trkpt lat="43.36153" lon="-1.60362">
        <ele>14</ele>
        <time>2026-08-23T12:13:16.000Z</time>
      </trkpt>
      <trkpt lat="43.36173" lon="-1.60338">
        <ele>13</ele>
        <time>2026-08-23T12:13:21.000Z</time>
      </trkpt>
      <trkpt lat="43.36211" lon="-1.60302">
        <ele>16</ele>
        <time>2026-08-23T12:13:29.000Z</time>
      </trkpt>
      <trkpt lat="43.36264" lon="-1.60257">
        <ele>19</ele>
        <time>2026-08-23T12:13:40.000Z</time>
      </trkpt>
      <trkpt lat="43.36299" lon="-1.60225">
        <ele>21</ele>
        <time>2026-08-23T12:13:48.000Z</time>
      </trkpt>
      <trkpt lat="43.36316" lon="-1.60201">
        <ele>20</ele>
        <time>2026-08-23T12:13:52.000Z</time>
      </trkpt>
      <trkpt lat="43.36336" lon="-1.60166">
        <ele>16</ele>
        <time>2026-08-23T12:13:58.000Z</time>
      </trkpt>
      <trkpt lat="43.36371" lon="-1.60073">
        <ele>15</ele>
        <time>2026-08-23T12:14:11.000Z</time>
      </trkpt>
      <trkpt lat="43.36387" lon="-1.60042">
        <ele>15</ele>
        <time>2026-08-23T12:14:16.000Z</time>
      </trkpt>
      <trkpt lat="43.36418" lon="-1.59996">
        <ele>13</ele>
        <time>2026-08-23T12:14:24.000Z</time>
      </trkpt>
      <trkpt lat="43.36447" lon="-1.59965">
        <ele>14</ele>
        <time>2026-08-23T12:14:31.000Z</time>
      </trkpt>
      <trkpt lat="43.36476" lon="-1.5994">
        <ele>14</ele>
        <time>2026-08-23T12:14:37.000Z</time>
      </trkpt>
      <trkpt lat="43.36533" lon="-1.59897">
        <ele>16</ele>
        <time>2026-08-23T12:14:49.000Z</time>
      </trkpt>
      <trkpt lat="43.36549" lon="-1.59873">
        <ele>17</ele>
        <time>2026-08-23T12:14:53.000Z</time>
      </trkpt>
      <trkpt lat="43.36562" lon="-1.59843">
        <ele>18</ele>
        <time>2026-08-23T12:14:57.000Z</time>
      </trkpt>
      <trkpt lat="43.36567" lon="-1.59809">
        <ele>18</ele>
        <time>2026-08-23T12:15:02.000Z</time>
      </trkpt>
      <trkpt lat="43.36588" lon="-1.59546">
        <ele>11</ele>
        <time>2026-08-23T12:15:36.000Z</time>
      </trkpt>
      <trkpt lat="43.36592" lon="-1.59482">
        <ele>9</ele>
        <time>2026-08-23T12:15:44.000Z</time>
      </trkpt>
      <trkpt lat="43.36589" lon="-1.5943">
        <ele>9</ele>
        <time>2026-08-23T12:15:51.000Z</time>
      </trkpt>
      <trkpt lat="43.36581" lon="-1.59376">
        <ele>9</ele>
        <time>2026-08-23T12:15:58.000Z</time>
      </trkpt>
      <trkpt lat="43.36482" lon="-1.59044">
        <ele>9</ele>
        <time>2026-08-23T12:16:45.000Z</time>
      </trkpt>
      <trkpt lat="43.3646" lon="-1.58976">
        <ele>11</ele>
        <time>2026-08-23T12:16:54.000Z</time>
      </trkpt>
      <trkpt lat="43.36444" lon="-1.58941">
        <ele>12</ele>
        <time>2026-08-23T12:17:00.000Z</time>
      </trkpt>
      <trkpt lat="43.36427" lon="-1.58913">
        <ele>13</ele>
        <time>2026-08-23T12:17:04.000Z</time>
      </trkpt>
      <trkpt lat="43.36402" lon="-1.58885">
        <ele>17</ele>
        <time>2026-08-23T12:17:10.000Z</time>
      </trkpt>
      <trkpt lat="43.36308" lon="-1.58801">
        <ele>19</ele>
        <time>2026-08-23T12:17:30.000Z</time>
      </trkpt>
      <trkpt lat="43.3628" lon="-1.58766">
        <ele>18</ele>
        <time>2026-08-23T12:17:37.000Z</time>
      </trkpt>
      <trkpt lat="43.36257" lon="-1.58723">
        <ele>14</ele>
        <time>2026-08-23T12:17:44.000Z</time>
      </trkpt>
      <trkpt lat="43.36164" lon="-1.58429">
        <ele>12</ele>
        <time>2026-08-23T12:18:25.000Z</time>
      </trkpt>
      <trkpt lat="43.36139" lon="-1.58363">
        <ele>12</ele>
        <time>2026-08-23T12:18:35.000Z</time>
      </trkpt>
      <trkpt lat="43.36129" lon="-1.58341">
        <ele>12</ele>
        <time>2026-08-23T12:18:38.000Z</time>
      </trkpt>
      <trkpt lat="43.36109" lon="-1.58303">
        <ele>12</ele>
        <time>2026-08-23T12:18:44.000Z</time>
      </trkpt>
      <trkpt lat="43.36003" lon="-1.58148">
        <ele>11</ele>
        <time>2026-08-23T12:19:12.000Z</time>
      </trkpt>
      <trkpt lat="43.35894" lon="-1.57993">
        <ele>11</ele>
        <time>2026-08-23T12:19:40.000Z</time>
      </trkpt>
      <trkpt lat="43.35882" lon="-1.57972">
        <ele>11</ele>
        <time>2026-08-23T12:19:43.000Z</time>
      </trkpt>
      <trkpt lat="43.35852" lon="-1.57913">
        <ele>12</ele>
        <time>2026-08-23T12:19:52.000Z</time>
      </trkpt>
      <trkpt lat="43.35838" lon="-1.57869">
        <ele>11</ele>
        <time>2026-08-23T12:19:59.000Z</time>
      </trkpt>
      <trkpt lat="43.35807" lon="-1.5772">
        <ele>12</ele>
        <time>2026-08-23T12:20:19.000Z</time>
      </trkpt>
      <trkpt lat="43.35782" lon="-1.57586">
        <ele>13</ele>
        <time>2026-08-23T12:20:37.000Z</time>
      </trkpt>
      <trkpt lat="43.35779" lon="-1.57552">
        <ele>13</ele>
        <time>2026-08-23T12:20:41.000Z</time>
      </trkpt>
      <trkpt lat="43.35779" lon="-1.57526">
        <ele>13</ele>
        <time>2026-08-23T12:20:44.000Z</time>
      </trkpt>
      <trkpt lat="43.35774" lon="-1.5748">
        <ele>13</ele>
        <time>2026-08-23T12:20:50.000Z</time>
      </trkpt>
      <trkpt lat="43.3577" lon="-1.57476">
        <ele>13</ele>
        <time>2026-08-23T12:20:51.000Z</time>
      </trkpt>
      <trkpt lat="43.35768" lon="-1.57469">
        <ele>13</ele>
        <time>2026-08-23T12:20:52.000Z</time>
      </trkpt>
      <trkpt lat="43.35771" lon="-1.57459">
        <ele>13</ele>
        <time>2026-08-23T12:20:54.000Z</time>
      </trkpt>
      <trkpt lat="43.35767" lon="-1.57433">
        <ele>13</ele>
        <time>2026-08-23T12:20:57.000Z</time>
      </trkpt>
      <trkpt lat="43.35763" lon="-1.57418">
        <ele>13</ele>
        <time>2026-08-23T12:20:59.000Z</time>
      </trkpt>
      <trkpt lat="43.35745" lon="-1.57225">
        <ele>14</ele>
        <time>2026-08-23T12:21:24.000Z</time>
      </trkpt>
      <trkpt lat="43.3574" lon="-1.57189">
        <ele>15</ele>
        <time>2026-08-23T12:21:29.000Z</time>
      </trkpt>
      <trkpt lat="43.35733" lon="-1.5716">
        <ele>15</ele>
        <time>2026-08-23T12:21:33.000Z</time>
      </trkpt>
      <trkpt lat="43.35723" lon="-1.57132">
        <ele>15</ele>
        <time>2026-08-23T12:21:37.000Z</time>
      </trkpt>
      <trkpt lat="43.35625" lon="-1.56922">
        <ele>17</ele>
        <time>2026-08-23T12:22:09.000Z</time>
      </trkpt>
      <trkpt lat="43.35597" lon="-1.56872">
        <ele>17</ele>
        <time>2026-08-23T12:22:17.000Z</time>
      </trkpt>
      <trkpt lat="43.35588" lon="-1.56851">
        <ele>17</ele>
        <time>2026-08-23T12:22:21.000Z</time>
      </trkpt>
      <trkpt lat="43.35586" lon="-1.56839">
        <ele>17</ele>
        <time>2026-08-23T12:22:22.000Z</time>
      </trkpt>
      <trkpt lat="43.35585" lon="-1.56813">
        <ele>17</ele>
        <time>2026-08-23T12:22:26.000Z</time>
      </trkpt>
      <trkpt lat="43.35589" lon="-1.56787">
        <ele>17</ele>
        <time>2026-08-23T12:22:29.000Z</time>
      </trkpt>
      <trkpt lat="43.35608" lon="-1.56729">
        <ele>18</ele>
        <time>2026-08-23T12:22:37.000Z</time>
      </trkpt>
      <trkpt lat="43.35617" lon="-1.56692">
        <ele>19</ele>
        <time>2026-08-23T12:22:42.000Z</time>
      </trkpt>
      <trkpt lat="43.35625" lon="-1.56642">
        <ele>19</ele>
        <time>2026-08-23T12:22:49.000Z</time>
      </trkpt>
      <trkpt lat="43.35624" lon="-1.56615">
        <ele>19</ele>
        <time>2026-08-23T12:22:52.000Z</time>
      </trkpt>
      <trkpt lat="43.35619" lon="-1.56612">
        <ele>19</ele>
        <time>2026-08-23T12:22:53.000Z</time>
      </trkpt>
      <trkpt lat="43.35615" lon="-1.56601">
        <ele>19</ele>
        <time>2026-08-23T12:22:55.000Z</time>
      </trkpt>
      <trkpt lat="43.35617" lon="-1.56593">
        <ele>19</ele>
        <time>2026-08-23T12:22:56.000Z</time>
      </trkpt>
      <trkpt lat="43.35621" lon="-1.56588">
        <ele>19</ele>
        <time>2026-08-23T12:22:57.000Z</time>
      </trkpt>
      <trkpt lat="43.35624" lon="-1.56587">
        <ele>19</ele>
        <time>2026-08-23T12:22:58.000Z</time>
      </trkpt>
      <trkpt lat="43.35622" lon="-1.56558">
        <ele>19</ele>
        <time>2026-08-23T12:23:01.000Z</time>
      </trkpt>
      <trkpt lat="43.35622" lon="-1.56509">
        <ele>19</ele>
        <time>2026-08-23T12:23:08.000Z</time>
      </trkpt>
      <trkpt lat="43.35616" lon="-1.56498">
        <ele>18</ele>
        <time>2026-08-23T12:23:09.000Z</time>
      </trkpt>
      <trkpt lat="43.3561" lon="-1.56265">
        <ele>18</ele>
        <time>2026-08-23T12:23:40.000Z</time>
      </trkpt>
      <trkpt lat="43.3561" lon="-1.56201">
        <ele>19</ele>
        <time>2026-08-23T12:23:48.000Z</time>
      </trkpt>
      <trkpt lat="43.35614" lon="-1.56149">
        <ele>19</ele>
        <time>2026-08-23T12:23:55.000Z</time>
      </trkpt>
      <trkpt lat="43.35618" lon="-1.56125">
        <ele>18</ele>
        <time>2026-08-23T12:23:58.000Z</time>
      </trkpt>
      <trkpt lat="43.35635" lon="-1.56094">
        <ele>18</ele>
        <time>2026-08-23T12:24:03.000Z</time>
      </trkpt>
      <trkpt lat="43.35642" lon="-1.56085">
        <ele>17</ele>
        <time>2026-08-23T12:24:05.000Z</time>
      </trkpt>
      <trkpt lat="43.35648" lon="-1.5608">
        <ele>17</ele>
        <time>2026-08-23T12:24:06.000Z</time>
      </trkpt>
      <trkpt lat="43.35652" lon="-1.56086">
        <ele>18</ele>
        <time>2026-08-23T12:24:07.000Z</time>
      </trkpt>
      <trkpt lat="43.35721" lon="-1.56041">
        <ele>19</ele>
        <time>2026-08-23T12:24:20.000Z</time>
      </trkpt>
      <trkpt lat="43.3573" lon="-1.56032">
        <ele>19</ele>
        <time>2026-08-23T12:24:22.000Z</time>
      </trkpt>
      <trkpt lat="43.35734" lon="-1.56023">
        <ele>19</ele>
        <time>2026-08-23T12:24:24.000Z</time>
      </trkpt>
      <trkpt lat="43.35739" lon="-1.56006">
        <ele>18</ele>
        <time>2026-08-23T12:24:26.000Z</time>
      </trkpt>
      <trkpt lat="43.35737" lon="-1.55994">
        <ele>17</ele>
        <time>2026-08-23T12:24:28.000Z</time>
      </trkpt>
      <trkpt lat="43.35718" lon="-1.5597">
        <ele>16</ele>
        <time>2026-08-23T12:24:32.000Z</time>
      </trkpt>
      <trkpt lat="43.35682" lon="-1.55941">
        <ele>16</ele>
        <time>2026-08-23T12:24:40.000Z</time>
      </trkpt>
      <trkpt lat="43.35646" lon="-1.55913">
        <ele>16</ele>
        <time>2026-08-23T12:24:47.000Z</time>
      </trkpt>
      <trkpt lat="43.35632" lon="-1.55899">
        <ele>15</ele>
        <time>2026-08-23T12:24:50.000Z</time>
      </trkpt>
      <trkpt lat="43.35606" lon="-1.55857">
        <ele>15</ele>
        <time>2026-08-23T12:24:57.000Z</time>
      </trkpt>
      <trkpt lat="43.35592" lon="-1.55814">
        <ele>15</ele>
        <time>2026-08-23T12:25:03.000Z</time>
      </trkpt>
      <trkpt lat="43.35588" lon="-1.55791">
        <ele>16</ele>
        <time>2026-08-23T12:25:06.000Z</time>
      </trkpt>
      <trkpt lat="43.35585" lon="-1.55731">
        <ele>16</ele>
        <time>2026-08-23T12:25:14.000Z</time>
      </trkpt>
      <trkpt lat="43.35581" lon="-1.55514">
        <ele>13</ele>
        <time>2026-08-23T12:25:42.000Z</time>
      </trkpt>
      <trkpt lat="43.35579" lon="-1.55487">
        <ele>14</ele>
        <time>2026-08-23T12:25:46.000Z</time>
      </trkpt>
      <trkpt lat="43.35574" lon="-1.55465">
        <ele>14</ele>
        <time>2026-08-23T12:25:49.000Z</time>
      </trkpt>
      <trkpt lat="43.35563" lon="-1.55444">
        <ele>15</ele>
        <time>2026-08-23T12:25:52.000Z</time>
      </trkpt>
      <trkpt lat="43.35552" lon="-1.55434">
        <ele>15</ele>
        <time>2026-08-23T12:25:55.000Z</time>
      </trkpt>
      <trkpt lat="43.35547" lon="-1.55433">
        <ele>15</ele>
        <time>2026-08-23T12:25:55.000Z</time>
      </trkpt>
      <trkpt lat="43.3554" lon="-1.55426">
        <ele>15</ele>
        <time>2026-08-23T12:25:57.000Z</time>
      </trkpt>
      <trkpt lat="43.35537" lon="-1.55419">
        <ele>15</ele>
        <time>2026-08-23T12:25:58.000Z</time>
      </trkpt>
      <trkpt lat="43.35537" lon="-1.55411">
        <ele>16</ele>
        <time>2026-08-23T12:25:59.000Z</time>
      </trkpt>
      <trkpt lat="43.35523" lon="-1.55388">
        <ele>16</ele>
        <time>2026-08-23T12:26:03.000Z</time>
      </trkpt>
      <trkpt lat="43.35509" lon="-1.55378">
        <ele>16</ele>
        <time>2026-08-23T12:26:06.000Z</time>
      </trkpt>
      <trkpt lat="43.35496" lon="-1.55373">
        <ele>16</ele>
        <time>2026-08-23T12:26:08.000Z</time>
      </trkpt>
      <trkpt lat="43.35483" lon="-1.5537">
        <ele>16</ele>
        <time>2026-08-23T12:26:11.000Z</time>
      </trkpt>
      <trkpt lat="43.35456" lon="-1.55371">
        <ele>16</ele>
        <time>2026-08-23T12:26:15.000Z</time>
      </trkpt>
      <trkpt lat="43.35398" lon="-1.5538">
        <ele>16</ele>
        <time>2026-08-23T12:26:26.000Z</time>
      </trkpt>
      <trkpt lat="43.35369" lon="-1.55382">
        <ele>16</ele>
        <time>2026-08-23T12:26:31.000Z</time>
      </trkpt>
      <trkpt lat="43.35338" lon="-1.55377">
        <ele>16</ele>
        <time>2026-08-23T12:26:36.000Z</time>
      </trkpt>
      <trkpt lat="43.35313" lon="-1.55363">
        <ele>17</ele>
        <time>2026-08-23T12:26:41.000Z</time>
      </trkpt>
      <trkpt lat="43.35293" lon="-1.55347">
        <ele>17</ele>
        <time>2026-08-23T12:26:45.000Z</time>
      </trkpt>
      <trkpt lat="43.35274" lon="-1.55324">
        <ele>18</ele>
        <time>2026-08-23T12:26:50.000Z</time>
      </trkpt>
      <trkpt lat="43.35261" lon="-1.55301">
        <ele>17</ele>
        <time>2026-08-23T12:26:54.000Z</time>
      </trkpt>
      <trkpt lat="43.35241" lon="-1.55255">
        <ele>17</ele>
        <time>2026-08-23T12:27:01.000Z</time>
      </trkpt>
      <trkpt lat="43.35211" lon="-1.55188">
        <ele>16</ele>
        <time>2026-08-23T12:27:11.000Z</time>
      </trkpt>
      <trkpt lat="43.35123" lon="-1.5499">
        <ele>18</ele>
        <time>2026-08-23T12:27:41.000Z</time>
      </trkpt>
      <trkpt lat="43.35117" lon="-1.54993">
        <ele>18</ele>
        <time>2026-08-23T12:27:42.000Z</time>
      </trkpt>
      <trkpt lat="43.3511" lon="-1.54994">
        <ele>18</ele>
        <time>2026-08-23T12:27:43.000Z</time>
      </trkpt>
      <trkpt lat="43.35104" lon="-1.54993">
        <ele>18</ele>
        <time>2026-08-23T12:27:44.000Z</time>
      </trkpt>
      <trkpt lat="43.35098" lon="-1.54988">
        <ele>18</ele>
        <time>2026-08-23T12:27:45.000Z</time>
      </trkpt>
      <trkpt lat="43.35078" lon="-1.54991">
        <ele>19</ele>
        <time>2026-08-23T12:27:49.000Z</time>
      </trkpt>
      <trkpt lat="43.34927" lon="-1.55118">
        <ele>22</ele>
        <time>2026-08-23T12:28:21.000Z</time>
      </trkpt>
      <trkpt lat="43.34874" lon="-1.55162">
        <ele>21</ele>
        <time>2026-08-23T12:28:32.000Z</time>
      </trkpt>
      <trkpt lat="43.34865" lon="-1.55186">
        <ele>20</ele>
        <time>2026-08-23T12:28:35.000Z</time>
      </trkpt>
      <trkpt lat="43.34859" lon="-1.55222">
        <ele>19</ele>
        <time>2026-08-23T12:28:40.000Z</time>
      </trkpt>
      <trkpt lat="43.34857" lon="-1.5523">
        <ele>19</ele>
        <time>2026-08-23T12:28:41.000Z</time>
      </trkpt>
      <trkpt lat="43.34847" lon="-1.55243">
        <ele>18</ele>
        <time>2026-08-23T12:28:43.000Z</time>
      </trkpt>
      <trkpt lat="43.34831" lon="-1.55248">
        <ele>18</ele>
        <time>2026-08-23T12:28:46.000Z</time>
      </trkpt>
      <trkpt lat="43.34821" lon="-1.55247">
        <ele>18</ele>
        <time>2026-08-23T12:28:48.000Z</time>
      </trkpt>
      <trkpt lat="43.34801" lon="-1.55235">
        <ele>19</ele>
        <time>2026-08-23T12:28:52.000Z</time>
      </trkpt>
      <trkpt lat="43.34597" lon="-1.55214">
        <ele>19</ele>
        <time>2026-08-23T12:29:28.000Z</time>
      </trkpt>
      <trkpt lat="43.34571" lon="-1.55205">
        <ele>19</ele>
        <time>2026-08-23T12:29:33.000Z</time>
      </trkpt>
      <trkpt lat="43.34548" lon="-1.55189">
        <ele>20</ele>
        <time>2026-08-23T12:29:38.000Z</time>
      </trkpt>
      <trkpt lat="43.3449" lon="-1.55114">
        <ele>22</ele>
        <time>2026-08-23T12:29:52.000Z</time>
      </trkpt>
      <trkpt lat="43.3434" lon="-1.5491">
        <ele>30</ele>
        <time>2026-08-23T12:30:29.000Z</time>
      </trkpt>
      <trkpt lat="43.34316" lon="-1.54886">
        <ele>30</ele>
        <time>2026-08-23T12:30:35.000Z</time>
      </trkpt>
      <trkpt lat="43.34293" lon="-1.54871">
        <ele>30</ele>
        <time>2026-08-23T12:30:39.000Z</time>
      </trkpt>
      <trkpt lat="43.34268" lon="-1.54861">
        <ele>31</ele>
        <time>2026-08-23T12:30:44.000Z</time>
      </trkpt>
      <trkpt lat="43.34239" lon="-1.54859">
        <ele>32</ele>
        <time>2026-08-23T12:30:49.000Z</time>
      </trkpt>
      <trkpt lat="43.34212" lon="-1.54863">
        <ele>33</ele>
        <time>2026-08-23T12:30:54.000Z</time>
      </trkpt>
      <trkpt lat="43.34189" lon="-1.54871">
        <ele>34</ele>
        <time>2026-08-23T12:30:58.000Z</time>
      </trkpt>
      <trkpt lat="43.33917" lon="-1.55038">
        <ele>45</ele>
        <time>2026-08-23T12:31:51.000Z</time>
      </trkpt>
      <trkpt lat="43.33903" lon="-1.55043">
        <ele>44</ele>
        <time>2026-08-23T12:31:54.000Z</time>
      </trkpt>
      <trkpt lat="43.33883" lon="-1.55045">
        <ele>42</ele>
        <time>2026-08-23T12:31:57.000Z</time>
      </trkpt>
      <trkpt lat="43.33864" lon="-1.55037">
        <ele>40</ele>
        <time>2026-08-23T12:32:01.000Z</time>
      </trkpt>
      <trkpt lat="43.33759" lon="-1.54975">
        <ele>34</ele>
        <time>2026-08-23T12:32:21.000Z</time>
      </trkpt>
      <trkpt lat="43.33749" lon="-1.54969">
        <ele>33</ele>
        <time>2026-08-23T12:32:23.000Z</time>
      </trkpt>
      <trkpt lat="43.33689" lon="-1.54934">
        <ele>34</ele>
        <time>2026-08-23T12:32:35.000Z</time>
      </trkpt>
      <trkpt lat="43.33606" lon="-1.54902">
        <ele>38</ele>
        <time>2026-08-23T12:32:50.000Z</time>
      </trkpt>
      <trkpt lat="43.33531" lon="-1.54866">
        <ele>36</ele>
        <time>2026-08-23T12:33:04.000Z</time>
      </trkpt>
      <trkpt lat="43.33451" lon="-1.54835">
        <ele>35</ele>
        <time>2026-08-23T12:33:19.000Z</time>
      </trkpt>
      <trkpt lat="43.33342" lon="-1.5481">
        <ele>40</ele>
        <time>2026-08-23T12:33:39.000Z</time>
      </trkpt>
      <trkpt lat="43.33316" lon="-1.54798">
        <ele>42</ele>
        <time>2026-08-23T12:33:43.000Z</time>
      </trkpt>
      <trkpt lat="43.33226" lon="-1.54715">
        <ele>40</ele>
        <time>2026-08-23T12:34:03.000Z</time>
      </trkpt>
      <trkpt lat="43.3321" lon="-1.54694">
        <ele>39</ele>
        <time>2026-08-23T12:34:07.000Z</time>
      </trkpt>
      <trkpt lat="43.332" lon="-1.54673">
        <ele>38</ele>
        <time>2026-08-23T12:34:10.000Z</time>
      </trkpt>
      <trkpt lat="43.3317" lon="-1.54594">
        <ele>35</ele>
        <time>2026-08-23T12:34:21.000Z</time>
      </trkpt>
      <trkpt lat="43.33146" lon="-1.54555">
        <ele>34</ele>
        <time>2026-08-23T12:34:28.000Z</time>
      </trkpt>
      <trkpt lat="43.3308" lon="-1.54478">
        <ele>32</ele>
        <time>2026-08-23T12:34:43.000Z</time>
      </trkpt>
      <trkpt lat="43.33056" lon="-1.54454">
        <ele>32</ele>
        <time>2026-08-23T12:34:49.000Z</time>
      </trkpt>
      <trkpt lat="43.33034" lon="-1.54441">
        <ele>31</ele>
        <time>2026-08-23T12:34:53.000Z</time>
      </trkpt>
      <trkpt lat="43.33014" lon="-1.54435">
        <ele>31</ele>
        <time>2026-08-23T12:34:57.000Z</time>
      </trkpt>
      <trkpt lat="43.32992" lon="-1.54437">
        <ele>31</ele>
        <time>2026-08-23T12:35:01.000Z</time>
      </trkpt>
      <trkpt lat="43.32973" lon="-1.54445">
        <ele>31</ele>
        <time>2026-08-23T12:35:04.000Z</time>
      </trkpt>
      <trkpt lat="43.32876" lon="-1.54504">
        <ele>34</ele>
        <time>2026-08-23T12:35:23.000Z</time>
      </trkpt>
      <trkpt lat="43.32846" lon="-1.54527">
        <ele>37</ele>
        <time>2026-08-23T12:35:29.000Z</time>
      </trkpt>
      <trkpt lat="43.32564" lon="-1.54806">
        <ele>36</ele>
        <time>2026-08-23T12:36:31.000Z</time>
      </trkpt>
      <trkpt lat="43.32463" lon="-1.54893">
        <ele>34</ele>
        <time>2026-08-23T12:36:52.000Z</time>
      </trkpt>
      <trkpt lat="43.32445" lon="-1.54904">
        <ele>34</ele>
        <time>2026-08-23T12:36:56.000Z</time>
      </trkpt>
      <trkpt lat="43.32245" lon="-1.54992">
        <ele>30</ele>
        <time>2026-08-23T12:37:33.000Z</time>
      </trkpt>
      <trkpt lat="43.32183" lon="-1.55023">
        <ele>30</ele>
        <time>2026-08-23T12:37:45.000Z</time>
      </trkpt>
      <trkpt lat="43.32166" lon="-1.55034">
        <ele>31</ele>
        <time>2026-08-23T12:37:48.000Z</time>
      </trkpt>
      <trkpt lat="43.32152" lon="-1.55048">
        <ele>31</ele>
        <time>2026-08-23T12:37:51.000Z</time>
      </trkpt>
      <trkpt lat="43.32146" lon="-1.55058">
        <ele>31</ele>
        <time>2026-08-23T12:37:53.000Z</time>
      </trkpt>
      <trkpt lat="43.3214" lon="-1.55075">
        <ele>32</ele>
        <time>2026-08-23T12:37:55.000Z</time>
      </trkpt>
      <trkpt lat="43.32091" lon="-1.55274">
        <ele>33</ele>
        <time>2026-08-23T12:38:22.000Z</time>
      </trkpt>
      <trkpt lat="43.32078" lon="-1.55312">
        <ele>33</ele>
        <time>2026-08-23T12:38:28.000Z</time>
      </trkpt>
      <trkpt lat="43.32064" lon="-1.55338">
        <ele>34</ele>
        <time>2026-08-23T12:38:32.000Z</time>
      </trkpt>
      <trkpt lat="43.32054" lon="-1.5535">
        <ele>34</ele>
        <time>2026-08-23T12:38:34.000Z</time>
      </trkpt>
      <trkpt lat="43.32007" lon="-1.55395">
        <ele>35</ele>
        <time>2026-08-23T12:38:45.000Z</time>
      </trkpt>
      <trkpt lat="43.31996" lon="-1.55417">
        <ele>35</ele>
        <time>2026-08-23T12:38:48.000Z</time>
      </trkpt>
      <trkpt lat="43.3199" lon="-1.55439">
        <ele>35</ele>
        <time>2026-08-23T12:38:51.000Z</time>
      </trkpt>
      <trkpt lat="43.31962" lon="-1.55573">
        <ele>37</ele>
        <time>2026-08-23T12:39:09.000Z</time>
      </trkpt>
      <trkpt lat="43.31948" lon="-1.55631">
        <ele>40</ele>
        <time>2026-08-23T12:39:17.000Z</time>
      </trkpt>
      <trkpt lat="43.31941" lon="-1.55653">
        <ele>41</ele>
        <time>2026-08-23T12:39:20.000Z</time>
      </trkpt>
      <trkpt lat="43.3192" lon="-1.55689">
        <ele>43</ele>
        <time>2026-08-23T12:39:26.000Z</time>
      </trkpt>
      <trkpt lat="43.31864" lon="-1.55764">
        <ele>46</ele>
        <time>2026-08-23T12:39:40.000Z</time>
      </trkpt>
      <trkpt lat="43.31836" lon="-1.5581">
        <ele>46</ele>
        <time>2026-08-23T12:39:48.000Z</time>
      </trkpt>
      <trkpt lat="43.31809" lon="-1.55859">
        <ele>48</ele>
        <time>2026-08-23T12:39:56.000Z</time>
      </trkpt>
      <trkpt lat="43.31774" lon="-1.55909">
        <ele>50</ele>
        <time>2026-08-23T12:40:05.000Z</time>
      </trkpt>
      <trkpt lat="43.31763" lon="-1.55933">
        <ele>51</ele>
        <time>2026-08-23T12:40:08.000Z</time>
      </trkpt>
      <trkpt lat="43.31756" lon="-1.55967">
        <ele>52</ele>
        <time>2026-08-23T12:40:13.000Z</time>
      </trkpt>
      <trkpt lat="43.31748" lon="-1.55985">
        <ele>52</ele>
        <time>2026-08-23T12:40:16.000Z</time>
      </trkpt>
      <trkpt lat="43.31735" lon="-1.56002">
        <ele>53</ele>
        <time>2026-08-23T12:40:19.000Z</time>
      </trkpt>
      <trkpt lat="43.31662" lon="-1.56079">
        <ele>57</ele>
        <time>2026-08-23T12:40:35.000Z</time>
      </trkpt>
      <trkpt lat="43.31606" lon="-1.5614">
        <ele>54</ele>
        <time>2026-08-23T12:40:48.000Z</time>
      </trkpt>
      <trkpt lat="43.3159" lon="-1.56152">
        <ele>53</ele>
        <time>2026-08-23T12:40:51.000Z</time>
      </trkpt>
      <trkpt lat="43.31574" lon="-1.56157">
        <ele>53</ele>
        <time>2026-08-23T12:40:54.000Z</time>
      </trkpt>
      <trkpt lat="43.31559" lon="-1.56155">
        <ele>53</ele>
        <time>2026-08-23T12:40:57.000Z</time>
      </trkpt>
      <trkpt lat="43.31553" lon="-1.56153">
        <ele>52</ele>
        <time>2026-08-23T12:40:58.000Z</time>
      </trkpt>
      <trkpt lat="43.31496" lon="-1.56112">
        <ele>49</ele>
        <time>2026-08-23T12:41:09.000Z</time>
      </trkpt>
      <trkpt lat="43.31485" lon="-1.56107">
        <ele>48</ele>
        <time>2026-08-23T12:41:11.000Z</time>
      </trkpt>
      <trkpt lat="43.31477" lon="-1.56106">
        <ele>47</ele>
        <time>2026-08-23T12:41:13.000Z</time>
      </trkpt>
      <trkpt lat="43.31468" lon="-1.56113">
        <ele>46</ele>
        <time>2026-08-23T12:41:15.000Z</time>
      </trkpt>
      <trkpt lat="43.31461" lon="-1.56126">
        <ele>46</ele>
        <time>2026-08-23T12:41:17.000Z</time>
      </trkpt>
      <trkpt lat="43.31458" lon="-1.56134">
        <ele>46</ele>
        <time>2026-08-23T12:41:18.000Z</time>
      </trkpt>
      <trkpt lat="43.31448" lon="-1.56194">
        <ele>46</ele>
        <time>2026-08-23T12:41:26.000Z</time>
      </trkpt>
      <trkpt lat="43.31439" lon="-1.56228">
        <ele>45</ele>
        <time>2026-08-23T12:41:31.000Z</time>
      </trkpt>
      <trkpt lat="43.31429" lon="-1.56255">
        <ele>44</ele>
        <time>2026-08-23T12:41:35.000Z</time>
      </trkpt>
      <trkpt lat="43.31417" lon="-1.56278">
        <ele>44</ele>
        <time>2026-08-23T12:41:38.000Z</time>
      </trkpt>
      <trkpt lat="43.31401" lon="-1.56299">
        <ele>44</ele>
        <time>2026-08-23T12:41:42.000Z</time>
      </trkpt>
      <trkpt lat="43.31391" lon="-1.56308">
        <ele>44</ele>
        <time>2026-08-23T12:41:44.000Z</time>
      </trkpt>
      <trkpt lat="43.31331" lon="-1.56357">
        <ele>44</ele>
        <time>2026-08-23T12:41:57.000Z</time>
      </trkpt>
      <trkpt lat="43.31316" lon="-1.56371">
        <ele>45</ele>
        <time>2026-08-23T12:42:00.000Z</time>
      </trkpt>
      <trkpt lat="43.31305" lon="-1.56386">
        <ele>46</ele>
        <time>2026-08-23T12:42:03.000Z</time>
      </trkpt>
      <trkpt lat="43.31264" lon="-1.56459">
        <ele>47</ele>
        <time>2026-08-23T12:42:15.000Z</time>
      </trkpt>
      <trkpt lat="43.31245" lon="-1.56484">
        <ele>47</ele>
        <time>2026-08-23T12:42:19.000Z</time>
      </trkpt>
      <trkpt lat="43.31226" lon="-1.56498">
        <ele>47</ele>
        <time>2026-08-23T12:42:23.000Z</time>
      </trkpt>
      <trkpt lat="43.31059" lon="-1.56599">
        <ele>47</ele>
        <time>2026-08-23T12:42:56.000Z</time>
      </trkpt>
      <trkpt lat="43.31033" lon="-1.56626">
        <ele>48</ele>
        <time>2026-08-23T12:43:01.000Z</time>
      </trkpt>
      <trkpt lat="43.30981" lon="-1.56719">
        <ele>50</ele>
        <time>2026-08-23T12:43:17.000Z</time>
      </trkpt>
      <trkpt lat="43.30948" lon="-1.56774">
        <ele>49</ele>
        <time>2026-08-23T12:43:26.000Z</time>
      </trkpt>
      <trkpt lat="43.3094" lon="-1.56798">
        <ele>49</ele>
        <time>2026-08-23T12:43:29.000Z</time>
      </trkpt>
      <trkpt lat="43.30918" lon="-1.56887">
        <ele>50</ele>
        <time>2026-08-23T12:43:41.000Z</time>
      </trkpt>
      <trkpt lat="43.30918" lon="-1.56908">
        <ele>51</ele>
        <time>2026-08-23T12:43:44.000Z</time>
      </trkpt>
      <trkpt lat="43.30921" lon="-1.56933">
        <ele>51</ele>
        <time>2026-08-23T12:43:47.000Z</time>
      </trkpt>
      <trkpt lat="43.30933" lon="-1.56976">
        <ele>50</ele>
        <time>2026-08-23T12:43:53.000Z</time>
      </trkpt>
      <trkpt lat="43.30952" lon="-1.57024">
        <ele>50</ele>
        <time>2026-08-23T12:44:00.000Z</time>
      </trkpt>
      <trkpt lat="43.30978" lon="-1.57064">
        <ele>50</ele>
        <time>2026-08-23T12:44:07.000Z</time>
      </trkpt>
      <trkpt lat="43.30984" lon="-1.57075">
        <ele>50</ele>
        <time>2026-08-23T12:44:09.000Z</time>
      </trkpt>
      <trkpt lat="43.30988" lon="-1.57086">
        <ele>49</ele>
        <time>2026-08-23T12:44:11.000Z</time>
      </trkpt>
      <trkpt lat="43.30989" lon="-1.57111">
        <ele>49</ele>
        <time>2026-08-23T12:44:14.000Z</time>
      </trkpt>
      <trkpt lat="43.30987" lon="-1.57138">
        <ele>48</ele>
        <time>2026-08-23T12:44:18.000Z</time>
      </trkpt>
      <trkpt lat="43.3098" lon="-1.57165">
        <ele>47</ele>
        <time>2026-08-23T12:44:21.000Z</time>
      </trkpt>
      <trkpt lat="43.30968" lon="-1.57201">
        <ele>47</ele>
        <time>2026-08-23T12:44:26.000Z</time>
      </trkpt>
      <trkpt lat="43.30967" lon="-1.57219">
        <ele>47</ele>
        <time>2026-08-23T12:44:29.000Z</time>
      </trkpt>
      <trkpt lat="43.30968" lon="-1.57222">
        <ele>47</ele>
        <time>2026-08-23T12:44:29.000Z</time>
      </trkpt>
      <trkpt lat="43.30976" lon="-1.5723">
        <ele>48</ele>
        <time>2026-08-23T12:44:31.000Z</time>
      </trkpt>
      <trkpt lat="43.31007" lon="-1.57234">
        <ele>48</ele>
        <time>2026-08-23T12:44:36.000Z</time>
      </trkpt>
      <trkpt lat="43.3105" lon="-1.57243">
        <ele>46</ele>
        <time>2026-08-23T12:44:44.000Z</time>
      </trkpt>
      <trkpt lat="43.31078" lon="-1.57256">
        <ele>44</ele>
        <time>2026-08-23T12:44:49.000Z</time>
      </trkpt>
      <trkpt lat="43.31095" lon="-1.57271">
        <ele>45</ele>
        <time>2026-08-23T12:44:53.000Z</time>
      </trkpt>
      <trkpt lat="43.31221" lon="-1.57392">
        <ele>51</ele>
        <time>2026-08-23T12:45:20.000Z</time>
      </trkpt>
      <trkpt lat="43.31256" lon="-1.57422">
        <ele>51</ele>
        <time>2026-08-23T12:45:28.000Z</time>
      </trkpt>
      <trkpt lat="43.31333" lon="-1.57478">
        <ele>53</ele>
        <time>2026-08-23T12:45:43.000Z</time>
      </trkpt>
      <trkpt lat="43.31351" lon="-1.57496">
        <ele>53</ele>
        <time>2026-08-23T12:45:47.000Z</time>
      </trkpt>
      <trkpt lat="43.31359" lon="-1.57506">
        <ele>54</ele>
        <time>2026-08-23T12:45:49.000Z</time>
      </trkpt>
      <trkpt lat="43.31369" lon="-1.57529">
        <ele>55</ele>
        <time>2026-08-23T12:45:53.000Z</time>
      </trkpt>
      <trkpt lat="43.31382" lon="-1.5757">
        <ele>56</ele>
        <time>2026-08-23T12:45:58.000Z</time>
      </trkpt>
      <trkpt lat="43.3144" lon="-1.57773">
        <ele>61</ele>
        <time>2026-08-23T12:46:27.000Z</time>
      </trkpt>
      <trkpt lat="43.31471" lon="-1.57889">
        <ele>59</ele>
        <time>2026-08-23T12:46:43.000Z</time>
      </trkpt>
      <trkpt lat="43.31496" lon="-1.5798">
        <ele>55</ele>
        <time>2026-08-23T12:46:55.000Z</time>
      </trkpt>
      <trkpt lat="43.31502" lon="-1.58012">
        <ele>55</ele>
        <time>2026-08-23T12:46:59.000Z</time>
      </trkpt>
      <trkpt lat="43.31503" lon="-1.58036">
        <ele>56</ele>
        <time>2026-08-23T12:47:03.000Z</time>
      </trkpt>
      <trkpt lat="43.315" lon="-1.58057">
        <ele>56</ele>
        <time>2026-08-23T12:47:05.000Z</time>
      </trkpt>
      <trkpt lat="43.31492" lon="-1.58083">
        <ele>57</ele>
        <time>2026-08-23T12:47:09.000Z</time>
      </trkpt>
      <trkpt lat="43.31462" lon="-1.58164">
        <ele>59</ele>
        <time>2026-08-23T12:47:21.000Z</time>
      </trkpt>
      <trkpt lat="43.31457" lon="-1.58188">
        <ele>59</ele>
        <time>2026-08-23T12:47:24.000Z</time>
      </trkpt>
      <trkpt lat="43.31456" lon="-1.58226">
        <ele>60</ele>
        <time>2026-08-23T12:47:29.000Z</time>
      </trkpt>
      <trkpt lat="43.31458" lon="-1.5825">
        <ele>60</ele>
        <time>2026-08-23T12:47:32.000Z</time>
      </trkpt>
      <trkpt lat="43.31464" lon="-1.58271">
        <ele>61</ele>
        <time>2026-08-23T12:47:35.000Z</time>
      </trkpt>
      <trkpt lat="43.31472" lon="-1.58277">
        <ele>61</ele>
        <time>2026-08-23T12:47:37.000Z</time>
      </trkpt>
      <trkpt lat="43.31476" lon="-1.58287">
        <ele>61</ele>
        <time>2026-08-23T12:47:38.000Z</time>
      </trkpt>
      <trkpt lat="43.31476" lon="-1.583">
        <ele>62</ele>
        <time>2026-08-23T12:47:40.000Z</time>
      </trkpt>
      <trkpt lat="43.31473" lon="-1.58306">
        <ele>62</ele>
        <time>2026-08-23T12:47:41.000Z</time>
      </trkpt>
      <trkpt lat="43.31464" lon="-1.58313">
        <ele>62</ele>
        <time>2026-08-23T12:47:43.000Z</time>
      </trkpt>
      <trkpt lat="43.31455" lon="-1.58311">
        <ele>61</ele>
        <time>2026-08-23T12:47:44.000Z</time>
      </trkpt>
      <trkpt lat="43.31443" lon="-1.58321">
        <ele>61</ele>
        <time>2026-08-23T12:47:47.000Z</time>
      </trkpt>
      <trkpt lat="43.31425" lon="-1.58356">
        <ele>61</ele>
        <time>2026-08-23T12:47:52.000Z</time>
      </trkpt>
      <trkpt lat="43.3142" lon="-1.58364">
        <ele>61</ele>
        <time>2026-08-23T12:47:54.000Z</time>
      </trkpt>
      <trkpt lat="43.31412" lon="-1.58372">
        <ele>61</ele>
        <time>2026-08-23T12:47:55.000Z</time>
      </trkpt>
      <trkpt lat="43.31351" lon="-1.58408">
        <ele>61</ele>
        <time>2026-08-23T12:48:07.000Z</time>
      </trkpt>
      <trkpt lat="43.31319" lon="-1.58425">
        <ele>61</ele>
        <time>2026-08-23T12:48:13.000Z</time>
      </trkpt>
      <trkpt lat="43.31297" lon="-1.58431">
        <ele>61</ele>
        <time>2026-08-23T12:48:17.000Z</time>
      </trkpt>
      <trkpt lat="43.31277" lon="-1.58432">
        <ele>61</ele>
        <time>2026-08-23T12:48:21.000Z</time>
      </trkpt>
      <trkpt lat="43.31177" lon="-1.58415">
        <ele>60</ele>
        <time>2026-08-23T12:48:39.000Z</time>
      </trkpt>
      <trkpt lat="43.31151" lon="-1.58417">
        <ele>60</ele>
        <time>2026-08-23T12:48:43.000Z</time>
      </trkpt>
      <trkpt lat="43.31124" lon="-1.58425">
        <ele>60</ele>
        <time>2026-08-23T12:48:48.000Z</time>
      </trkpt>
      <trkpt lat="43.31111" lon="-1.5843">
        <ele>59</ele>
        <time>2026-08-23T12:48:51.000Z</time>
      </trkpt>
      <trkpt lat="43.30998" lon="-1.58508">
        <ele>64</ele>
        <time>2026-08-23T12:49:13.000Z</time>
      </trkpt>
      <trkpt lat="43.30918" lon="-1.58569">
        <ele>65</ele>
        <time>2026-08-23T12:49:29.000Z</time>
      </trkpt>
      <trkpt lat="43.30885" lon="-1.58596">
        <ele>66</ele>
        <time>2026-08-23T12:49:36.000Z</time>
      </trkpt>
      <trkpt lat="43.30871" lon="-1.58611">
        <ele>67</ele>
        <time>2026-08-23T12:49:39.000Z</time>
      </trkpt>
      <trkpt lat="43.30849" lon="-1.58642">
        <ele>68</ele>
        <time>2026-08-23T12:49:45.000Z</time>
      </trkpt>
      <trkpt lat="43.3071" lon="-1.58871">
        <ele>78</ele>
        <time>2026-08-23T12:50:24.000Z</time>
      </trkpt>
      <trkpt lat="43.30697" lon="-1.589">
        <ele>80</ele>
        <time>2026-08-23T12:50:28.000Z</time>
      </trkpt>
      <trkpt lat="43.30682" lon="-1.58928">
        <ele>80</ele>
        <time>2026-08-23T12:50:33.000Z</time>
      </trkpt>
      <trkpt lat="43.3053" lon="-1.5916">
        <ele>90</ele>
        <time>2026-08-23T12:51:13.000Z</time>
      </trkpt>
      <trkpt lat="43.30494" lon="-1.59208">
        <ele>93</ele>
        <time>2026-08-23T12:51:22.000Z</time>
      </trkpt>
      <trkpt lat="43.30476" lon="-1.5923">
        <ele>95</ele>
        <time>2026-08-23T12:51:26.000Z</time>
      </trkpt>
      <trkpt lat="43.3046" lon="-1.59243">
        <ele>97</ele>
        <time>2026-08-23T12:51:30.000Z</time>
      </trkpt>
      <trkpt lat="43.3039" lon="-1.59285">
        <ele>100</ele>
        <time>2026-08-23T12:51:43.000Z</time>
      </trkpt>
      <trkpt lat="43.30377" lon="-1.59287">
        <ele>100</ele>
        <time>2026-08-23T12:51:45.000Z</time>
      </trkpt>
      <trkpt lat="43.30294" lon="-1.59278">
        <ele>102</ele>
        <time>2026-08-23T12:52:00.000Z</time>
      </trkpt>
      <trkpt lat="43.30269" lon="-1.59269">
        <ele>102</ele>
        <time>2026-08-23T12:52:05.000Z</time>
      </trkpt>
      <trkpt lat="43.30254" lon="-1.5926">
        <ele>101</ele>
        <time>2026-08-23T12:52:08.000Z</time>
      </trkpt>
      <trkpt lat="43.30245" lon="-1.59252">
        <ele>101</ele>
        <time>2026-08-23T12:52:10.000Z</time>
      </trkpt>
      <trkpt lat="43.30234" lon="-1.59236">
        <ele>101</ele>
        <time>2026-08-23T12:52:13.000Z</time>
      </trkpt>
      <trkpt lat="43.30199" lon="-1.59173">
        <ele>101</ele>
        <time>2026-08-23T12:52:23.000Z</time>
      </trkpt>
      <trkpt lat="43.30149" lon="-1.59094">
        <ele>103</ele>
        <time>2026-08-23T12:52:36.000Z</time>
      </trkpt>
      <trkpt lat="43.30111" lon="-1.59052">
        <ele>103</ele>
        <time>2026-08-23T12:52:45.000Z</time>
      </trkpt>
      <trkpt lat="43.3013" lon="-1.59041">
        <ele>103</ele>
        <time>2026-08-23T12:52:49.000Z</time>
      </trkpt>
      <trkpt lat="43.30145" lon="-1.59029">
        <ele>103</ele>
        <time>2026-08-23T12:52:52.000Z</time>
      </trkpt>
      <trkpt lat="43.30156" lon="-1.59016">
        <ele>103</ele>
        <time>2026-08-23T12:52:54.000Z</time>
      </trkpt>
      <trkpt lat="43.3017" lon="-1.58984">
        <ele>102</ele>
        <time>2026-08-23T12:52:59.000Z</time>
      </trkpt>
      <trkpt lat="43.30187" lon="-1.5893">
        <ele>101</ele>
        <time>2026-08-23T12:53:07.000Z</time>
      </trkpt>
      <trkpt lat="43.30198" lon="-1.58869">
        <ele>98</ele>
        <time>2026-08-23T12:53:15.000Z</time>
      </trkpt>
      <trkpt lat="43.30202" lon="-1.58832">
        <ele>96</ele>
        <time>2026-08-23T12:53:20.000Z</time>
      </trkpt>
      <trkpt lat="43.30207" lon="-1.58817">
        <ele>95</ele>
        <time>2026-08-23T12:53:22.000Z</time>
      </trkpt>
      <trkpt lat="43.30214" lon="-1.58801">
        <ele>94</ele>
        <time>2026-08-23T12:53:24.000Z</time>
      </trkpt>
      <trkpt lat="43.30259" lon="-1.58746">
        <ele>92</ele>
        <time>2026-08-23T12:53:35.000Z</time>
      </trkpt>
      <trkpt lat="43.30308" lon="-1.58693">
        <ele>91</ele>
        <time>2026-08-23T12:53:46.000Z</time>
      </trkpt>
      <trkpt lat="43.30364" lon="-1.58625">
        <ele>92</ele>
        <time>2026-08-23T12:53:59.000Z</time>
      </trkpt>
      <trkpt lat="43.30384" lon="-1.58597">
        <ele>92</ele>
        <time>2026-08-23T12:54:05.000Z</time>
      </trkpt>
      <trkpt lat="43.3039" lon="-1.58588">
        <ele>93</ele>
        <time>2026-08-23T12:54:06.000Z</time>
      </trkpt>
      <trkpt lat="43.30397" lon="-1.58569">
        <ele>93</ele>
        <time>2026-08-23T12:54:09.000Z</time>
      </trkpt>
      <trkpt lat="43.30416" lon="-1.58483">
        <ele>94</ele>
        <time>2026-08-23T12:54:21.000Z</time>
      </trkpt>
      <trkpt lat="43.30435" lon="-1.58416">
        <ele>92</ele>
        <time>2026-08-23T12:54:30.000Z</time>
      </trkpt>
      <trkpt lat="43.30472" lon="-1.58331">
        <ele>89</ele>
        <time>2026-08-23T12:54:43.000Z</time>
      </trkpt>
      <trkpt lat="43.30487" lon="-1.58302">
        <ele>89</ele>
        <time>2026-08-23T12:54:47.000Z</time>
      </trkpt>
      <trkpt lat="43.3052" lon="-1.58245">
        <ele>87</ele>
        <time>2026-08-23T12:54:57.000Z</time>
      </trkpt>
      <trkpt lat="43.30545" lon="-1.5819">
        <ele>86</ele>
        <time>2026-08-23T12:55:05.000Z</time>
      </trkpt>
      <trkpt lat="43.30556" lon="-1.58162">
        <ele>85</ele>
        <time>2026-08-23T12:55:09.000Z</time>
      </trkpt>
      <trkpt lat="43.30575" lon="-1.58092">
        <ele>85</ele>
        <time>2026-08-23T12:55:19.000Z</time>
      </trkpt>
      <trkpt lat="43.30545" lon="-1.58064">
        <ele>84</ele>
        <time>2026-08-23T12:55:25.000Z</time>
      </trkpt>
      <trkpt lat="43.30523" lon="-1.58036">
        <ele>83</ele>
        <time>2026-08-23T12:55:31.000Z</time>
      </trkpt>
      <trkpt lat="43.30488" lon="-1.5797">
        <ele>79</ele>
        <time>2026-08-23T12:55:41.000Z</time>
      </trkpt>
      <trkpt lat="43.30473" lon="-1.57948">
        <ele>78</ele>
        <time>2026-08-23T12:55:45.000Z</time>
      </trkpt>
      <trkpt lat="43.30431" lon="-1.57904">
        <ele>75</ele>
        <time>2026-08-23T12:55:55.000Z</time>
      </trkpt>
      <trkpt lat="43.3041" lon="-1.57885">
        <ele>73</ele>
        <time>2026-08-23T12:55:59.000Z</time>
      </trkpt>
      <trkpt lat="43.30368" lon="-1.57839">
        <ele>70</ele>
        <time>2026-08-23T12:56:09.000Z</time>
      </trkpt>
      <trkpt lat="43.30353" lon="-1.57815">
        <ele>69</ele>
        <time>2026-08-23T12:56:13.000Z</time>
      </trkpt>
      <trkpt lat="43.30347" lon="-1.57791">
        <ele>68</ele>
        <time>2026-08-23T12:56:16.000Z</time>
      </trkpt>
      <trkpt lat="43.30335" lon="-1.57696">
        <ele>62</ele>
        <time>2026-08-23T12:56:28.000Z</time>
      </trkpt>
      <trkpt lat="43.30324" lon="-1.57677">
        <ele>59</ele>
        <time>2026-08-23T12:56:32.000Z</time>
      </trkpt>
      <trkpt lat="43.303" lon="-1.57654">
        <ele>56</ele>
        <time>2026-08-23T12:56:37.000Z</time>
      </trkpt>
      <trkpt lat="43.30285" lon="-1.57627">
        <ele>55</ele>
        <time>2026-08-23T12:56:41.000Z</time>
      </trkpt>
      <trkpt lat="43.30262" lon="-1.57559">
        <ele>52</ele>
        <time>2026-08-23T12:56:51.000Z</time>
      </trkpt>
      <trkpt lat="43.30251" lon="-1.57494">
        <ele>50</ele>
        <time>2026-08-23T12:57:00.000Z</time>
      </trkpt>
      <trkpt lat="43.30252" lon="-1.57461">
        <ele>50</ele>
        <time>2026-08-23T12:57:04.000Z</time>
      </trkpt>
      <trkpt lat="43.30267" lon="-1.57461">
        <ele>51</ele>
        <time>2026-08-23T12:57:06.000Z</time>
      </trkpt>
      <trkpt lat="43.30303" lon="-1.57455">
        <ele>53</ele>
        <time>2026-08-23T12:57:13.000Z</time>
      </trkpt>
      <trkpt lat="43.30313" lon="-1.57448">
        <ele>53</ele>
        <time>2026-08-23T12:57:15.000Z</time>
      </trkpt>
      <trkpt lat="43.30329" lon="-1.57434">
        <ele>53</ele>
        <time>2026-08-23T12:57:18.000Z</time>
      </trkpt>
      <trkpt lat="43.30367" lon="-1.57388">
        <ele>52</ele>
        <time>2026-08-23T12:57:27.000Z</time>
      </trkpt>
      <trkpt lat="43.30399" lon="-1.57356">
        <ele>50</ele>
        <time>2026-08-23T12:57:34.000Z</time>
      </trkpt>
      <trkpt lat="43.30416" lon="-1.57342">
        <ele>48</ele>
        <time>2026-08-23T12:57:38.000Z</time>
      </trkpt>
      <trkpt lat="43.30479" lon="-1.57306">
        <ele>50</ele>
        <time>2026-08-23T12:57:50.000Z</time>
      </trkpt>
      <trkpt lat="43.30509" lon="-1.57281">
        <ele>49</ele>
        <time>2026-08-23T12:57:56.000Z</time>
      </trkpt>
      <trkpt lat="43.30576" lon="-1.57247">
        <ele>45</ele>
        <time>2026-08-23T12:58:09.000Z</time>
      </trkpt>
      <trkpt lat="43.30596" lon="-1.57239">
        <ele>45</ele>
        <time>2026-08-23T12:58:13.000Z</time>
      </trkpt>
      <trkpt lat="43.30646" lon="-1.57239">
        <ele>45</ele>
        <time>2026-08-23T12:58:22.000Z</time>
      </trkpt>
      <trkpt lat="43.30667" lon="-1.57243">
        <ele>45</ele>
        <time>2026-08-23T12:58:25.000Z</time>
      </trkpt>
      <trkpt lat="43.30718" lon="-1.57268">
        <ele>47</ele>
        <time>2026-08-23T12:58:35.000Z</time>
      </trkpt>
      <trkpt lat="43.30732" lon="-1.57272">
        <ele>47</ele>
        <time>2026-08-23T12:58:38.000Z</time>
      </trkpt>
      <trkpt lat="43.30747" lon="-1.57272">
        <ele>48</ele>
        <time>2026-08-23T12:58:40.000Z</time>
      </trkpt>
      <trkpt lat="43.30782" lon="-1.57268">
        <ele>48</ele>
        <time>2026-08-23T12:58:46.000Z</time>
      </trkpt>
      <trkpt lat="43.30792" lon="-1.57267">
        <ele>48</ele>
        <time>2026-08-23T12:58:48.000Z</time>
      </trkpt>
      <trkpt lat="43.30864" lon="-1.57271">
        <ele>48</ele>
        <time>2026-08-23T12:59:01.000Z</time>
      </trkpt>
      <trkpt lat="43.30882" lon="-1.57267">
        <ele>48</ele>
        <time>2026-08-23T12:59:04.000Z</time>
      </trkpt>
      <trkpt lat="43.30943" lon="-1.57239">
        <ele>47</ele>
        <time>2026-08-23T12:59:16.000Z</time>
      </trkpt>
      <trkpt lat="43.30952" lon="-1.57225">
        <ele>47</ele>
        <time>2026-08-23T12:59:18.000Z</time>
      </trkpt>
      <trkpt lat="43.30953" lon="-1.57219">
        <ele>47</ele>
        <time>2026-08-23T12:59:19.000Z</time>
      </trkpt>
      <trkpt lat="43.30968" lon="-1.57201">
        <ele>47</ele>
        <time>2026-08-23T12:59:22.000Z</time>
      </trkpt>
      <trkpt lat="43.3098" lon="-1.57165">
        <ele>47</ele>
        <time>2026-08-23T12:59:28.000Z</time>
      </trkpt>
      <trkpt lat="43.30987" lon="-1.57138">
        <ele>48</ele>
        <time>2026-08-23T12:59:31.000Z</time>
      </trkpt>
      <trkpt lat="43.30989" lon="-1.57111">
        <ele>49</ele>
        <time>2026-08-23T12:59:35.000Z</time>
      </trkpt>
      <trkpt lat="43.30988" lon="-1.57086">
        <ele>49</ele>
        <time>2026-08-23T12:59:38.000Z</time>
      </trkpt>
      <trkpt lat="43.30984" lon="-1.57075">
        <ele>50</ele>
        <time>2026-08-23T12:59:40.000Z</time>
      </trkpt>
      <trkpt lat="43.30978" lon="-1.57064">
        <ele>50</ele>
        <time>2026-08-23T12:59:41.000Z</time>
      </trkpt>
      <trkpt lat="43.30952" lon="-1.57024">
        <ele>50</ele>
        <time>2026-08-23T12:59:48.000Z</time>
      </trkpt>
      <trkpt lat="43.30933" lon="-1.56976">
        <ele>50</ele>
        <time>2026-08-23T12:59:55.000Z</time>
      </trkpt>
      <trkpt lat="43.30921" lon="-1.56933">
        <ele>51</ele>
        <time>2026-08-23T13:00:01.000Z</time>
      </trkpt>
      <trkpt lat="43.30918" lon="-1.56908">
        <ele>51</ele>
        <time>2026-08-23T13:00:05.000Z</time>
      </trkpt>
      <trkpt lat="43.30918" lon="-1.56887">
        <ele>50</ele>
        <time>2026-08-23T13:00:07.000Z</time>
      </trkpt>
      <trkpt lat="43.3094" lon="-1.56798">
        <ele>49</ele>
        <time>2026-08-23T13:00:20.000Z</time>
      </trkpt>
      <trkpt lat="43.30947" lon="-1.56775">
        <ele>49</ele>
        <time>2026-08-23T13:00:23.000Z</time>
      </trkpt>
      <trkpt lat="43.30981" lon="-1.56719">
        <ele>50</ele>
        <time>2026-08-23T13:00:32.000Z</time>
      </trkpt>
      <trkpt lat="43.31033" lon="-1.56626">
        <ele>48</ele>
        <time>2026-08-23T13:00:47.000Z</time>
      </trkpt>
      <trkpt lat="43.31059" lon="-1.56599">
        <ele>47</ele>
        <time>2026-08-23T13:00:53.000Z</time>
      </trkpt>
      <trkpt lat="43.31226" lon="-1.56498">
        <ele>47</ele>
        <time>2026-08-23T13:01:26.000Z</time>
      </trkpt>
      <trkpt lat="43.31245" lon="-1.56484">
        <ele>47</ele>
        <time>2026-08-23T13:01:30.000Z</time>
      </trkpt>
      <trkpt lat="43.31264" lon="-1.56459">
        <ele>47</ele>
        <time>2026-08-23T13:01:34.000Z</time>
      </trkpt>
      <trkpt lat="43.31305" lon="-1.56386">
        <ele>46</ele>
        <time>2026-08-23T13:01:46.000Z</time>
      </trkpt>
      <trkpt lat="43.31316" lon="-1.56371">
        <ele>45</ele>
        <time>2026-08-23T13:01:49.000Z</time>
      </trkpt>
      <trkpt lat="43.31331" lon="-1.56357">
        <ele>44</ele>
        <time>2026-08-23T13:01:52.000Z</time>
      </trkpt>
      <trkpt lat="43.31395" lon="-1.56304">
        <ele>44</ele>
        <time>2026-08-23T13:02:05.000Z</time>
      </trkpt>
      <trkpt lat="43.31417" lon="-1.56278">
        <ele>44</ele>
        <time>2026-08-23T13:02:11.000Z</time>
      </trkpt>
      <trkpt lat="43.31429" lon="-1.56255">
        <ele>44</ele>
        <time>2026-08-23T13:02:14.000Z</time>
      </trkpt>
      <trkpt lat="43.31439" lon="-1.56228">
        <ele>45</ele>
        <time>2026-08-23T13:02:18.000Z</time>
      </trkpt>
      <trkpt lat="43.31448" lon="-1.56194">
        <ele>46</ele>
        <time>2026-08-23T13:02:23.000Z</time>
      </trkpt>
      <trkpt lat="43.31458" lon="-1.56134">
        <ele>46</ele>
        <time>2026-08-23T13:02:31.000Z</time>
      </trkpt>
      <trkpt lat="43.31461" lon="-1.56126">
        <ele>46</ele>
        <time>2026-08-23T13:02:32.000Z</time>
      </trkpt>
      <trkpt lat="43.31468" lon="-1.56113">
        <ele>46</ele>
        <time>2026-08-23T13:02:34.000Z</time>
      </trkpt>
      <trkpt lat="43.31477" lon="-1.56106">
        <ele>47</ele>
        <time>2026-08-23T13:02:36.000Z</time>
      </trkpt>
      <trkpt lat="43.31485" lon="-1.56107">
        <ele>48</ele>
        <time>2026-08-23T13:02:37.000Z</time>
      </trkpt>
      <trkpt lat="43.31496" lon="-1.56112">
        <ele>49</ele>
        <time>2026-08-23T13:02:39.000Z</time>
      </trkpt>
      <trkpt lat="43.31553" lon="-1.56153">
        <ele>52</ele>
        <time>2026-08-23T13:02:51.000Z</time>
      </trkpt>
      <trkpt lat="43.31559" lon="-1.56155">
        <ele>53</ele>
        <time>2026-08-23T13:02:52.000Z</time>
      </trkpt>
      <trkpt lat="43.31574" lon="-1.56157">
        <ele>53</ele>
        <time>2026-08-23T13:02:55.000Z</time>
      </trkpt>
      <trkpt lat="43.3159" lon="-1.56152">
        <ele>53</ele>
        <time>2026-08-23T13:02:58.000Z</time>
      </trkpt>
      <trkpt lat="43.31606" lon="-1.5614">
        <ele>54</ele>
        <time>2026-08-23T13:03:01.000Z</time>
      </trkpt>
      <trkpt lat="43.31662" lon="-1.56079">
        <ele>57</ele>
        <time>2026-08-23T13:03:14.000Z</time>
      </trkpt>
      <trkpt lat="43.31735" lon="-1.56002">
        <ele>53</ele>
        <time>2026-08-23T13:03:30.000Z</time>
      </trkpt>
      <trkpt lat="43.31748" lon="-1.55985">
        <ele>52</ele>
        <time>2026-08-23T13:03:33.000Z</time>
      </trkpt>
      <trkpt lat="43.31756" lon="-1.55967">
        <ele>52</ele>
        <time>2026-08-23T13:03:36.000Z</time>
      </trkpt>
      <trkpt lat="43.31763" lon="-1.55933">
        <ele>51</ele>
        <time>2026-08-23T13:03:40.000Z</time>
      </trkpt>
      <trkpt lat="43.31774" lon="-1.55909">
        <ele>50</ele>
        <time>2026-08-23T13:03:44.000Z</time>
      </trkpt>
      <trkpt lat="43.31809" lon="-1.55859">
        <ele>48</ele>
        <time>2026-08-23T13:03:53.000Z</time>
      </trkpt>
      <trkpt lat="43.31836" lon="-1.5581">
        <ele>46</ele>
        <time>2026-08-23T13:04:01.000Z</time>
      </trkpt>
      <trkpt lat="43.31864" lon="-1.55764">
        <ele>46</ele>
        <time>2026-08-23T13:04:09.000Z</time>
      </trkpt>
      <trkpt lat="43.3192" lon="-1.55689">
        <ele>43</ele>
        <time>2026-08-23T13:04:23.000Z</time>
      </trkpt>
      <trkpt lat="43.31941" lon="-1.55653">
        <ele>41</ele>
        <time>2026-08-23T13:04:29.000Z</time>
      </trkpt>
      <trkpt lat="43.31948" lon="-1.55631">
        <ele>40</ele>
        <time>2026-08-23T13:04:32.000Z</time>
      </trkpt>
      <trkpt lat="43.31962" lon="-1.55573">
        <ele>37</ele>
        <time>2026-08-23T13:04:40.000Z</time>
      </trkpt>
      <trkpt lat="43.3199" lon="-1.55439">
        <ele>35</ele>
        <time>2026-08-23T13:04:58.000Z</time>
      </trkpt>
      <trkpt lat="43.31996" lon="-1.55417">
        <ele>35</ele>
        <time>2026-08-23T13:05:01.000Z</time>
      </trkpt>
      <trkpt lat="43.32007" lon="-1.55395">
        <ele>35</ele>
        <time>2026-08-23T13:05:04.000Z</time>
      </trkpt>
      <trkpt lat="43.32054" lon="-1.5535">
        <ele>34</ele>
        <time>2026-08-23T13:05:14.000Z</time>
      </trkpt>
      <trkpt lat="43.32064" lon="-1.55338">
        <ele>34</ele>
        <time>2026-08-23T13:05:17.000Z</time>
      </trkpt>
      <trkpt lat="43.32078" lon="-1.55312">
        <ele>33</ele>
        <time>2026-08-23T13:05:21.000Z</time>
      </trkpt>
      <trkpt lat="43.32091" lon="-1.55274">
        <ele>33</ele>
        <time>2026-08-23T13:05:26.000Z</time>
      </trkpt>
      <trkpt lat="43.3214" lon="-1.55075">
        <ele>32</ele>
        <time>2026-08-23T13:05:54.000Z</time>
      </trkpt>
      <trkpt lat="43.32146" lon="-1.55058">
        <ele>31</ele>
        <time>2026-08-23T13:05:56.000Z</time>
      </trkpt>
      <trkpt lat="43.32152" lon="-1.55048">
        <ele>31</ele>
        <time>2026-08-23T13:05:58.000Z</time>
      </trkpt>
      <trkpt lat="43.32166" lon="-1.55034">
        <ele>31</ele>
        <time>2026-08-23T13:06:01.000Z</time>
      </trkpt>
      <trkpt lat="43.32183" lon="-1.55023">
        <ele>30</ele>
        <time>2026-08-23T13:06:04.000Z</time>
      </trkpt>
      <trkpt lat="43.32245" lon="-1.54992">
        <ele>30</ele>
        <time>2026-08-23T13:06:16.000Z</time>
      </trkpt>
      <trkpt lat="43.32445" lon="-1.54904">
        <ele>34</ele>
        <time>2026-08-23T13:06:53.000Z</time>
      </trkpt>
      <trkpt lat="43.32463" lon="-1.54893">
        <ele>34</ele>
        <time>2026-08-23T13:06:57.000Z</time>
      </trkpt>
      <trkpt lat="43.32564" lon="-1.54806">
        <ele>36</ele>
        <time>2026-08-23T13:07:18.000Z</time>
      </trkpt>
      <trkpt lat="43.32846" lon="-1.54527">
        <ele>37</ele>
        <time>2026-08-23T13:08:20.000Z</time>
      </trkpt>
      <trkpt lat="43.32876" lon="-1.54504">
        <ele>34</ele>
        <time>2026-08-23T13:08:26.000Z</time>
      </trkpt>
      <trkpt lat="43.32973" lon="-1.54445">
        <ele>31</ele>
        <time>2026-08-23T13:08:45.000Z</time>
      </trkpt>
      <trkpt lat="43.32992" lon="-1.54437">
        <ele>31</ele>
        <time>2026-08-23T13:08:48.000Z</time>
      </trkpt>
      <trkpt lat="43.33014" lon="-1.54435">
        <ele>31</ele>
        <time>2026-08-23T13:08:52.000Z</time>
      </trkpt>
      <trkpt lat="43.33034" lon="-1.54441">
        <ele>31</ele>
        <time>2026-08-23T13:08:56.000Z</time>
      </trkpt>
      <trkpt lat="43.33056" lon="-1.54454">
        <ele>32</ele>
        <time>2026-08-23T13:09:00.000Z</time>
      </trkpt>
      <trkpt lat="43.3308" lon="-1.54478">
        <ele>32</ele>
        <time>2026-08-23T13:09:05.000Z</time>
      </trkpt>
      <trkpt lat="43.33146" lon="-1.54555">
        <ele>34</ele>
        <time>2026-08-23T13:09:21.000Z</time>
      </trkpt>
      <trkpt lat="43.3317" lon="-1.54594">
        <ele>35</ele>
        <time>2026-08-23T13:09:27.000Z</time>
      </trkpt>
      <trkpt lat="43.332" lon="-1.54673">
        <ele>38</ele>
        <time>2026-08-23T13:09:39.000Z</time>
      </trkpt>
      <trkpt lat="43.3321" lon="-1.54694">
        <ele>39</ele>
        <time>2026-08-23T13:09:42.000Z</time>
      </trkpt>
      <trkpt lat="43.33226" lon="-1.54715">
        <ele>40</ele>
        <time>2026-08-23T13:09:46.000Z</time>
      </trkpt>
      <trkpt lat="43.33316" lon="-1.54798">
        <ele>42</ele>
        <time>2026-08-23T13:10:05.000Z</time>
      </trkpt>
      <trkpt lat="43.33342" lon="-1.5481">
        <ele>40</ele>
        <time>2026-08-23T13:10:10.000Z</time>
      </trkpt>
      <trkpt lat="43.33451" lon="-1.54835">
        <ele>35</ele>
        <time>2026-08-23T13:10:30.000Z</time>
      </trkpt>
      <trkpt lat="43.33531" lon="-1.54866">
        <ele>36</ele>
        <time>2026-08-23T13:10:45.000Z</time>
      </trkpt>
      <trkpt lat="43.33606" lon="-1.54902">
        <ele>38</ele>
        <time>2026-08-23T13:10:59.000Z</time>
      </trkpt>
      <trkpt lat="43.33689" lon="-1.54934">
        <ele>34</ele>
        <time>2026-08-23T13:11:14.000Z</time>
      </trkpt>
      <trkpt lat="43.33749" lon="-1.54969">
        <ele>33</ele>
        <time>2026-08-23T13:11:26.000Z</time>
      </trkpt>
      <trkpt lat="43.33759" lon="-1.54975">
        <ele>34</ele>
        <time>2026-08-23T13:11:28.000Z</time>
      </trkpt>
      <trkpt lat="43.33864" lon="-1.55037">
        <ele>40</ele>
        <time>2026-08-23T13:11:48.000Z</time>
      </trkpt>
      <trkpt lat="43.33883" lon="-1.55045">
        <ele>42</ele>
        <time>2026-08-23T13:11:52.000Z</time>
      </trkpt>
      <trkpt lat="43.33903" lon="-1.55043">
        <ele>44</ele>
        <time>2026-08-23T13:11:55.000Z</time>
      </trkpt>
      <trkpt lat="43.33917" lon="-1.55038">
        <ele>45</ele>
        <time>2026-08-23T13:11:58.000Z</time>
      </trkpt>
      <trkpt lat="43.34189" lon="-1.54871">
        <ele>34</ele>
        <time>2026-08-23T13:12:51.000Z</time>
      </trkpt>
      <trkpt lat="43.34212" lon="-1.54863">
        <ele>33</ele>
        <time>2026-08-23T13:12:55.000Z</time>
      </trkpt>
      <trkpt lat="43.34239" lon="-1.54859">
        <ele>32</ele>
        <time>2026-08-23T13:13:00.000Z</time>
      </trkpt>
      <trkpt lat="43.34268" lon="-1.54861">
        <ele>31</ele>
        <time>2026-08-23T13:13:05.000Z</time>
      </trkpt>
      <trkpt lat="43.34293" lon="-1.54871">
        <ele>30</ele>
        <time>2026-08-23T13:13:10.000Z</time>
      </trkpt>
      <trkpt lat="43.34316" lon="-1.54886">
        <ele>30</ele>
        <time>2026-08-23T13:13:14.000Z</time>
      </trkpt>
      <trkpt lat="43.3434" lon="-1.5491">
        <ele>30</ele>
        <time>2026-08-23T13:13:19.000Z</time>
      </trkpt>
      <trkpt lat="43.3449" lon="-1.55114">
        <ele>22</ele>
        <time>2026-08-23T13:13:57.000Z</time>
      </trkpt>
      <trkpt lat="43.34548" lon="-1.55189">
        <ele>20</ele>
        <time>2026-08-23T13:14:11.000Z</time>
      </trkpt>
      <trkpt lat="43.34571" lon="-1.55205">
        <ele>19</ele>
        <time>2026-08-23T13:14:16.000Z</time>
      </trkpt>
      <trkpt lat="43.34597" lon="-1.55214">
        <ele>19</ele>
        <time>2026-08-23T13:14:21.000Z</time>
      </trkpt>
      <trkpt lat="43.34801" lon="-1.55235">
        <ele>19</ele>
        <time>2026-08-23T13:14:57.000Z</time>
      </trkpt>
      <trkpt lat="43.34821" lon="-1.55247">
        <ele>18</ele>
        <time>2026-08-23T13:15:01.000Z</time>
      </trkpt>
      <trkpt lat="43.34831" lon="-1.55248">
        <ele>18</ele>
        <time>2026-08-23T13:15:03.000Z</time>
      </trkpt>
      <trkpt lat="43.34847" lon="-1.55243">
        <ele>18</ele>
        <time>2026-08-23T13:15:06.000Z</time>
      </trkpt>
      <trkpt lat="43.34857" lon="-1.5523">
        <ele>19</ele>
        <time>2026-08-23T13:15:08.000Z</time>
      </trkpt>
      <trkpt lat="43.34859" lon="-1.55222">
        <ele>19</ele>
        <time>2026-08-23T13:15:09.000Z</time>
      </trkpt>
      <trkpt lat="43.34865" lon="-1.55186">
        <ele>20</ele>
        <time>2026-08-23T13:15:14.000Z</time>
      </trkpt>
      <trkpt lat="43.34869" lon="-1.55177">
        <ele>20</ele>
        <time>2026-08-23T13:15:15.000Z</time>
      </trkpt>
      <trkpt lat="43.34874" lon="-1.55162">
        <ele>21</ele>
        <time>2026-08-23T13:15:17.000Z</time>
      </trkpt>
      <trkpt lat="43.35078" lon="-1.54991">
        <ele>19</ele>
        <time>2026-08-23T13:16:00.000Z</time>
      </trkpt>
      <trkpt lat="43.3509" lon="-1.54968">
        <ele>19</ele>
        <time>2026-08-23T13:16:04.000Z</time>
      </trkpt>
      <trkpt lat="43.3509" lon="-1.54959">
        <ele>19</ele>
        <time>2026-08-23T13:16:05.000Z</time>
      </trkpt>
      <trkpt lat="43.35092" lon="-1.54951">
        <ele>19</ele>
        <time>2026-08-23T13:16:06.000Z</time>
      </trkpt>
      <trkpt lat="43.35085" lon="-1.5492">
        <ele>20</ele>
        <time>2026-08-23T13:16:10.000Z</time>
      </trkpt>
      <trkpt lat="43.35076" lon="-1.54912">
        <ele>20</ele>
        <time>2026-08-23T13:16:12.000Z</time>
      </trkpt>
      <trkpt lat="43.34995" lon="-1.5487">
        <ele>22</ele>
        <time>2026-08-23T13:16:27.000Z</time>
      </trkpt>
      <trkpt lat="43.34941" lon="-1.54841">
        <ele>23</ele>
        <time>2026-08-23T13:16:38.000Z</time>
      </trkpt>
      <trkpt lat="43.34909" lon="-1.54821">
        <ele>24</ele>
        <time>2026-08-23T13:16:44.000Z</time>
      </trkpt>
      <trkpt lat="43.34888" lon="-1.548">
        <ele>25</ele>
        <time>2026-08-23T13:16:48.000Z</time>
      </trkpt>
      <trkpt lat="43.34869" lon="-1.54775">
        <ele>25</ele>
        <time>2026-08-23T13:16:53.000Z</time>
      </trkpt>
      <trkpt lat="43.347" lon="-1.54509">
        <ele>28</ele>
        <time>2026-08-23T13:17:39.000Z</time>
      </trkpt>
      <trkpt lat="43.34688" lon="-1.54483">
        <ele>28</ele>
        <time>2026-08-23T13:17:43.000Z</time>
      </trkpt>
      <trkpt lat="43.3468" lon="-1.5445">
        <ele>29</ele>
        <time>2026-08-23T13:17:47.000Z</time>
      </trkpt>
      <trkpt lat="43.34678" lon="-1.54431">
        <ele>30</ele>
        <time>2026-08-23T13:17:50.000Z</time>
      </trkpt>
      <trkpt lat="43.34674" lon="-1.54364">
        <ele>32</ele>
        <time>2026-08-23T13:17:59.000Z</time>
      </trkpt>
      <trkpt lat="43.34673" lon="-1.54279">
        <ele>35</ele>
        <time>2026-08-23T13:18:10.000Z</time>
      </trkpt>
      <trkpt lat="43.34667" lon="-1.54235">
        <ele>36</ele>
        <time>2026-08-23T13:18:15.000Z</time>
      </trkpt>
      <trkpt lat="43.34661" lon="-1.5421">
        <ele>37</ele>
        <time>2026-08-23T13:18:19.000Z</time>
      </trkpt>
      <trkpt lat="43.3465" lon="-1.54178">
        <ele>38</ele>
        <time>2026-08-23T13:18:23.000Z</time>
      </trkpt>
      <trkpt lat="43.34639" lon="-1.54155">
        <ele>37</ele>
        <time>2026-08-23T13:18:27.000Z</time>
      </trkpt>
      <trkpt lat="43.3459" lon="-1.54058">
        <ele>34</ele>
        <time>2026-08-23T13:18:42.000Z</time>
      </trkpt>
      <trkpt lat="43.34579" lon="-1.54025">
        <ele>34</ele>
        <time>2026-08-23T13:18:47.000Z</time>
      </trkpt>
      <trkpt lat="43.34572" lon="-1.53997">
        <ele>34</ele>
        <time>2026-08-23T13:18:51.000Z</time>
      </trkpt>
      <trkpt lat="43.34568" lon="-1.53959">
        <ele>34</ele>
        <time>2026-08-23T13:18:56.000Z</time>
      </trkpt>
      <trkpt lat="43.34567" lon="-1.53905">
        <ele>35</ele>
        <time>2026-08-23T13:19:03.000Z</time>
      </trkpt>
      <trkpt lat="43.34564" lon="-1.53862">
        <ele>37</ele>
        <time>2026-08-23T13:19:08.000Z</time>
      </trkpt>
      <trkpt lat="43.34557" lon="-1.53827">
        <ele>38</ele>
        <time>2026-08-23T13:19:13.000Z</time>
      </trkpt>
      <trkpt lat="43.34531" lon="-1.53721">
        <ele>38</ele>
        <time>2026-08-23T13:19:27.000Z</time>
      </trkpt>
      <trkpt lat="43.34523" lon="-1.53674">
        <ele>39</ele>
        <time>2026-08-23T13:19:34.000Z</time>
      </trkpt>
      <trkpt lat="43.34488" lon="-1.53413">
        <ele>43</ele>
        <time>2026-08-23T13:20:08.000Z</time>
      </trkpt>
      <trkpt lat="43.34461" lon="-1.53096">
        <ele>41</ele>
        <time>2026-08-23T13:20:49.000Z</time>
      </trkpt>
      <trkpt lat="43.34451" lon="-1.53016">
        <ele>38</ele>
        <time>2026-08-23T13:21:00.000Z</time>
      </trkpt>
      <trkpt lat="43.34439" lon="-1.5296">
        <ele>36</ele>
        <time>2026-08-23T13:21:07.000Z</time>
      </trkpt>
      <trkpt lat="43.34431" lon="-1.52938">
        <ele>36</ele>
        <time>2026-08-23T13:21:11.000Z</time>
      </trkpt>
      <trkpt lat="43.34359" lon="-1.52813">
        <ele>35</ele>
        <time>2026-08-23T13:21:31.000Z</time>
      </trkpt>
      <trkpt lat="43.34344" lon="-1.52803">
        <ele>36</ele>
        <time>2026-08-23T13:21:34.000Z</time>
      </trkpt>
      <trkpt lat="43.34338" lon="-1.52805">
        <ele>36</ele>
        <time>2026-08-23T13:21:35.000Z</time>
      </trkpt>
      <trkpt lat="43.3433" lon="-1.52804">
        <ele>36</ele>
        <time>2026-08-23T13:21:37.000Z</time>
      </trkpt>
      <trkpt lat="43.34323" lon="-1.52797">
        <ele>36</ele>
        <time>2026-08-23T13:21:38.000Z</time>
      </trkpt>
      <trkpt lat="43.3432" lon="-1.52789">
        <ele>36</ele>
        <time>2026-08-23T13:21:39.000Z</time>
      </trkpt>
      <trkpt lat="43.3432" lon="-1.52774">
        <ele>36</ele>
        <time>2026-08-23T13:21:41.000Z</time>
      </trkpt>
      <trkpt lat="43.34322" lon="-1.52767">
        <ele>36</ele>
        <time>2026-08-23T13:21:42.000Z</time>
      </trkpt>
      <trkpt lat="43.34321" lon="-1.52745">
        <ele>36</ele>
        <time>2026-08-23T13:21:45.000Z</time>
      </trkpt>
      <trkpt lat="43.34316" lon="-1.52737">
        <ele>37</ele>
        <time>2026-08-23T13:21:46.000Z</time>
      </trkpt>
      <trkpt lat="43.3431" lon="-1.52726">
        <ele>38</ele>
        <time>2026-08-23T13:21:48.000Z</time>
      </trkpt>
      <trkpt lat="43.34244" lon="-1.52614">
        <ele>41</ele>
        <time>2026-08-23T13:22:07.000Z</time>
      </trkpt>
      <trkpt lat="43.34166" lon="-1.52489">
        <ele>41</ele>
        <time>2026-08-23T13:22:28.000Z</time>
      </trkpt>
      <trkpt lat="43.34149" lon="-1.52453">
        <ele>42</ele>
        <time>2026-08-23T13:22:34.000Z</time>
      </trkpt>
      <trkpt lat="43.33834" lon="-1.51711">
        <ele>44</ele>
        <time>2026-08-23T13:24:25.000Z</time>
      </trkpt>
      <trkpt lat="43.33772" lon="-1.51561">
        <ele>47</ele>
        <time>2026-08-23T13:24:47.000Z</time>
      </trkpt>
      <trkpt lat="43.33747" lon="-1.51498">
        <ele>47</ele>
        <time>2026-08-23T13:24:57.000Z</time>
      </trkpt>
      <trkpt lat="43.33643" lon="-1.51157">
        <ele>52</ele>
        <time>2026-08-23T13:25:44.000Z</time>
      </trkpt>
      <trkpt lat="43.33637" lon="-1.51133">
        <ele>52</ele>
        <time>2026-08-23T13:25:48.000Z</time>
      </trkpt>
      <trkpt lat="43.3363" lon="-1.51094">
        <ele>53</ele>
        <time>2026-08-23T13:25:53.000Z</time>
      </trkpt>
      <trkpt lat="43.33589" lon="-1.5077">
        <ele>60</ele>
        <time>2026-08-23T13:26:35.000Z</time>
      </trkpt>
      <trkpt lat="43.33586" lon="-1.50738">
        <ele>62</ele>
        <time>2026-08-23T13:26:40.000Z</time>
      </trkpt>
      <trkpt lat="43.33597" lon="-1.50735">
        <ele>63</ele>
        <time>2026-08-23T13:26:42.000Z</time>
      </trkpt>
      <trkpt lat="43.33601" lon="-1.50724">
        <ele>64</ele>
        <time>2026-08-23T13:26:43.000Z</time>
      </trkpt>
      <trkpt lat="43.33604" lon="-1.50681">
        <ele>68</ele>
        <time>2026-08-23T13:26:49.000Z</time>
      </trkpt>
      <trkpt lat="43.33609" lon="-1.50654">
        <ele>71</ele>
        <time>2026-08-23T13:26:52.000Z</time>
      </trkpt>
      <trkpt lat="43.33612" lon="-1.50644">
        <ele>71</ele>
        <time>2026-08-23T13:26:54.000Z</time>
      </trkpt>
      <trkpt lat="43.33619" lon="-1.5064">
        <ele>71</ele>
        <time>2026-08-23T13:26:55.000Z</time>
      </trkpt>
      <trkpt lat="43.33631" lon="-1.50638">
        <ele>71</ele>
        <time>2026-08-23T13:26:57.000Z</time>
      </trkpt>
      <trkpt lat="43.33656" lon="-1.50647">
        <ele>71</ele>
        <time>2026-08-23T13:27:02.000Z</time>
      </trkpt>
      <trkpt lat="43.33664" lon="-1.50655">
        <ele>71</ele>
        <time>2026-08-23T13:27:04.000Z</time>
      </trkpt>
      <trkpt lat="43.33708" lon="-1.50721">
        <ele>79</ele>
        <time>2026-08-23T13:27:15.000Z</time>
      </trkpt>
      <trkpt lat="43.33732" lon="-1.50752">
        <ele>84</ele>
        <time>2026-08-23T13:27:21.000Z</time>
      </trkpt>
      <trkpt lat="43.33736" lon="-1.50763">
        <ele>85</ele>
        <time>2026-08-23T13:27:23.000Z</time>
      </trkpt>
      <trkpt lat="43.33735" lon="-1.50773">
        <ele>84</ele>
        <time>2026-08-23T13:27:24.000Z</time>
      </trkpt>
      <trkpt lat="43.33731" lon="-1.50808">
        <ele>83</ele>
        <time>2026-08-23T13:27:29.000Z</time>
      </trkpt>
      <trkpt lat="43.33731" lon="-1.50834">
        <ele>83</ele>
        <time>2026-08-23T13:27:32.000Z</time>
      </trkpt>
      <trkpt lat="43.33734" lon="-1.50858">
        <ele>82</ele>
        <time>2026-08-23T13:27:35.000Z</time>
      </trkpt>
      <trkpt lat="43.33739" lon="-1.50877">
        <ele>82</ele>
        <time>2026-08-23T13:27:38.000Z</time>
      </trkpt>
      <trkpt lat="43.33751" lon="-1.50899">
        <ele>84</ele>
        <time>2026-08-23T13:27:41.000Z</time>
      </trkpt>
      <trkpt lat="43.33761" lon="-1.50911">
        <ele>85</ele>
        <time>2026-08-23T13:27:44.000Z</time>
      </trkpt>
      <trkpt lat="43.33773" lon="-1.50921">
        <ele>86</ele>
        <time>2026-08-23T13:27:46.000Z</time>
      </trkpt>
      <trkpt lat="43.33789" lon="-1.5093">
        <ele>88</ele>
        <time>2026-08-23T13:27:49.000Z</time>
      </trkpt>
      <trkpt lat="43.33798" lon="-1.50934">
        <ele>89</ele>
        <time>2026-08-23T13:27:51.000Z</time>
      </trkpt>
      <trkpt lat="43.33814" lon="-1.50934">
        <ele>92</ele>
        <time>2026-08-23T13:27:54.000Z</time>
      </trkpt>
      <trkpt lat="43.33823" lon="-1.5093">
        <ele>94</ele>
        <time>2026-08-23T13:27:55.000Z</time>
      </trkpt>
      <trkpt lat="43.33831" lon="-1.50913">
        <ele>97</ele>
        <time>2026-08-23T13:27:58.000Z</time>
      </trkpt>
      <trkpt lat="43.33831" lon="-1.50843">
        <ele>102</ele>
        <time>2026-08-23T13:28:07.000Z</time>
      </trkpt>
      <trkpt lat="43.33835" lon="-1.5082">
        <ele>103</ele>
        <time>2026-08-23T13:28:10.000Z</time>
      </trkpt>
      <trkpt lat="43.33879" lon="-1.50652">
        <ele>106</ele>
        <time>2026-08-23T13:28:33.000Z</time>
      </trkpt>
      <trkpt lat="43.33889" lon="-1.50634">
        <ele>107</ele>
        <time>2026-08-23T13:28:36.000Z</time>
      </trkpt>
      <trkpt lat="43.339" lon="-1.50626">
        <ele>108</ele>
        <time>2026-08-23T13:28:38.000Z</time>
      </trkpt>
      <trkpt lat="43.33926" lon="-1.50623">
        <ele>111</ele>
        <time>2026-08-23T13:28:43.000Z</time>
      </trkpt>
      <trkpt lat="43.33947" lon="-1.50618">
        <ele>112</ele>
        <time>2026-08-23T13:28:47.000Z</time>
      </trkpt>
      <trkpt lat="43.3397" lon="-1.50605">
        <ele>115</ele>
        <time>2026-08-23T13:28:51.000Z</time>
      </trkpt>
      <trkpt lat="43.33987" lon="-1.50594">
        <ele>117</ele>
        <time>2026-08-23T13:28:55.000Z</time>
      </trkpt>
      <trkpt lat="43.34009" lon="-1.50568">
        <ele>118</ele>
        <time>2026-08-23T13:29:00.000Z</time>
      </trkpt>
      <trkpt lat="43.34016" lon="-1.50546">
        <ele>117</ele>
        <time>2026-08-23T13:29:03.000Z</time>
      </trkpt>
      <trkpt lat="43.34017" lon="-1.50525">
        <ele>117</ele>
        <time>2026-08-23T13:29:06.000Z</time>
      </trkpt>
      <trkpt lat="43.34005" lon="-1.50399">
        <ele>120</ele>
        <time>2026-08-23T13:29:22.000Z</time>
      </trkpt>
      <trkpt lat="43.34006" lon="-1.50367">
        <ele>121</ele>
        <time>2026-08-23T13:29:26.000Z</time>
      </trkpt>
      <trkpt lat="43.34023" lon="-1.50259">
        <ele>121</ele>
        <time>2026-08-23T13:29:41.000Z</time>
      </trkpt>
      <trkpt lat="43.34031" lon="-1.50218">
        <ele>122</ele>
        <time>2026-08-23T13:29:46.000Z</time>
      </trkpt>
      <trkpt lat="43.34055" lon="-1.50153">
        <ele>125</ele>
        <time>2026-08-23T13:29:55.000Z</time>
      </trkpt>
      <trkpt lat="43.34071" lon="-1.50123">
        <ele>128</ele>
        <time>2026-08-23T13:30:00.000Z</time>
      </trkpt>
      <trkpt lat="43.34104" lon="-1.50071">
        <ele>131</ele>
        <time>2026-08-23T13:30:09.000Z</time>
      </trkpt>
      <trkpt lat="43.34114" lon="-1.50049">
        <ele>133</ele>
        <time>2026-08-23T13:30:13.000Z</time>
      </trkpt>
      <trkpt lat="43.34124" lon="-1.50004">
        <ele>133</ele>
        <time>2026-08-23T13:30:19.000Z</time>
      </trkpt>
      <trkpt lat="43.3413" lon="-1.49987">
        <ele>134</ele>
        <time>2026-08-23T13:30:21.000Z</time>
      </trkpt>
      <trkpt lat="43.34181" lon="-1.49892">
        <ele>135</ele>
        <time>2026-08-23T13:30:36.000Z</time>
      </trkpt>
      <trkpt lat="43.34251" lon="-1.49764">
        <ele>133</ele>
        <time>2026-08-23T13:30:57.000Z</time>
      </trkpt>
      <trkpt lat="43.34261" lon="-1.49738">
        <ele>132</ele>
        <time>2026-08-23T13:31:01.000Z</time>
      </trkpt>
      <trkpt lat="43.34282" lon="-1.49655">
        <ele>130</ele>
        <time>2026-08-23T13:31:12.000Z</time>
      </trkpt>
      <trkpt lat="43.34299" lon="-1.49516">
        <ele>124</ele>
        <time>2026-08-23T13:31:31.000Z</time>
      </trkpt>
      <trkpt lat="43.34298" lon="-1.4949">
        <ele>123</ele>
        <time>2026-08-23T13:31:34.000Z</time>
      </trkpt>
      <trkpt lat="43.34294" lon="-1.4946">
        <ele>120</ele>
        <time>2026-08-23T13:31:38.000Z</time>
      </trkpt>
      <trkpt lat="43.34286" lon="-1.49419">
        <ele>117</ele>
        <time>2026-08-23T13:31:43.000Z</time>
      </trkpt>
      <trkpt lat="43.3427" lon="-1.49348">
        <ele>110</ele>
        <time>2026-08-23T13:31:53.000Z</time>
      </trkpt>
      <trkpt lat="43.34247" lon="-1.49253">
        <ele>103</ele>
        <time>2026-08-23T13:32:06.000Z</time>
      </trkpt>
      <trkpt lat="43.3423" lon="-1.49192">
        <ele>95</ele>
        <time>2026-08-23T13:32:14.000Z</time>
      </trkpt>
      <trkpt lat="43.34226" lon="-1.4917">
        <ele>93</ele>
        <time>2026-08-23T13:32:17.000Z</time>
      </trkpt>
      <trkpt lat="43.34227" lon="-1.4915">
        <ele>93</ele>
        <time>2026-08-23T13:32:20.000Z</time>
      </trkpt>
      <trkpt lat="43.34231" lon="-1.49127">
        <ele>92</ele>
        <time>2026-08-23T13:32:23.000Z</time>
      </trkpt>
      <trkpt lat="43.34242" lon="-1.49109">
        <ele>91</ele>
        <time>2026-08-23T13:32:26.000Z</time>
      </trkpt>
      <trkpt lat="43.34255" lon="-1.49096">
        <ele>90</ele>
        <time>2026-08-23T13:32:29.000Z</time>
      </trkpt>
      <trkpt lat="43.3427" lon="-1.49085">
        <ele>91</ele>
        <time>2026-08-23T13:32:32.000Z</time>
      </trkpt>
      <trkpt lat="43.34277" lon="-1.49075">
        <ele>91</ele>
        <time>2026-08-23T13:32:34.000Z</time>
      </trkpt>
      <trkpt lat="43.343" lon="-1.49012">
        <ele>92</ele>
        <time>2026-08-23T13:32:43.000Z</time>
      </trkpt>
      <trkpt lat="43.34307" lon="-1.48999">
        <ele>93</ele>
        <time>2026-08-23T13:32:45.000Z</time>
      </trkpt>
      <trkpt lat="43.34315" lon="-1.48992">
        <ele>93</ele>
        <time>2026-08-23T13:32:47.000Z</time>
      </trkpt>
      <trkpt lat="43.34341" lon="-1.48983">
        <ele>94</ele>
        <time>2026-08-23T13:32:51.000Z</time>
      </trkpt>
      <trkpt lat="43.34355" lon="-1.48972">
        <ele>93</ele>
        <time>2026-08-23T13:32:54.000Z</time>
      </trkpt>
      <trkpt lat="43.3436" lon="-1.48982">
        <ele>94</ele>
        <time>2026-08-23T13:32:56.000Z</time>
      </trkpt>
      <trkpt lat="43.34405" lon="-1.49022">
        <ele>97</ele>
        <time>2026-08-23T13:33:05.000Z</time>
      </trkpt>
      <trkpt lat="43.34428" lon="-1.49051">
        <ele>98</ele>
        <time>2026-08-23T13:33:11.000Z</time>
      </trkpt>
      <trkpt lat="43.34482" lon="-1.49123">
        <ele>100</ele>
        <time>2026-08-23T13:33:24.000Z</time>
      </trkpt>
      <trkpt lat="43.34591" lon="-1.49298">
        <ele>104</ele>
        <time>2026-08-23T13:33:54.000Z</time>
      </trkpt>
      <trkpt lat="43.34604" lon="-1.4931">
        <ele>103</ele>
        <time>2026-08-23T13:33:57.000Z</time>
      </trkpt>
      <trkpt lat="43.34696" lon="-1.49366">
        <ele>95</ele>
        <time>2026-08-23T13:34:15.000Z</time>
      </trkpt>
      <trkpt lat="43.34746" lon="-1.4939">
        <ele>94</ele>
        <time>2026-08-23T13:34:24.000Z</time>
      </trkpt>
      <trkpt lat="43.34767" lon="-1.49406">
        <ele>94</ele>
        <time>2026-08-23T13:34:28.000Z</time>
      </trkpt>
      <trkpt lat="43.34787" lon="-1.49426">
        <ele>95</ele>
        <time>2026-08-23T13:34:33.000Z</time>
      </trkpt>
      <trkpt lat="43.34872" lon="-1.49547">
        <ele>98</ele>
        <time>2026-08-23T13:34:55.000Z</time>
      </trkpt>
      <trkpt lat="43.34888" lon="-1.49565">
        <ele>99</ele>
        <time>2026-08-23T13:34:58.000Z</time>
      </trkpt>
      <trkpt lat="43.34894" lon="-1.49577">
        <ele>100</ele>
        <time>2026-08-23T13:35:00.000Z</time>
      </trkpt>
      <trkpt lat="43.34921" lon="-1.49618">
        <ele>102</ele>
        <time>2026-08-23T13:35:07.000Z</time>
      </trkpt>
      <trkpt lat="43.34986" lon="-1.49714">
        <ele>107</ele>
        <time>2026-08-23T13:35:24.000Z</time>
      </trkpt>
      <trkpt lat="43.35025" lon="-1.49766">
        <ele>109</ele>
        <time>2026-08-23T13:35:34.000Z</time>
      </trkpt>
      <trkpt lat="43.35051" lon="-1.49798">
        <ele>110</ele>
        <time>2026-08-23T13:35:40.000Z</time>
      </trkpt>
      <trkpt lat="43.35094" lon="-1.49826">
        <ele>112</ele>
        <time>2026-08-23T13:35:49.000Z</time>
      </trkpt>
      <trkpt lat="43.35118" lon="-1.49834">
        <ele>113</ele>
        <time>2026-08-23T13:35:53.000Z</time>
      </trkpt>
      <trkpt lat="43.35204" lon="-1.49841">
        <ele>112</ele>
        <time>2026-08-23T13:36:08.000Z</time>
      </trkpt>
      <trkpt lat="43.35223" lon="-1.4985">
        <ele>111</ele>
        <time>2026-08-23T13:36:12.000Z</time>
      </trkpt>
      <trkpt lat="43.35308" lon="-1.499">
        <ele>109</ele>
        <time>2026-08-23T13:36:28.000Z</time>
      </trkpt>
      <trkpt lat="43.35324" lon="-1.49915">
        <ele>108</ele>
        <time>2026-08-23T13:36:32.000Z</time>
      </trkpt>
      <trkpt lat="43.35339" lon="-1.49936">
        <ele>107</ele>
        <time>2026-08-23T13:36:36.000Z</time>
      </trkpt>
      <trkpt lat="43.35358" lon="-1.49975">
        <ele>106</ele>
        <time>2026-08-23T13:36:42.000Z</time>
      </trkpt>
      <trkpt lat="43.35392" lon="-1.50015">
        <ele>106</ele>
        <time>2026-08-23T13:36:50.000Z</time>
      </trkpt>
      <trkpt lat="43.35402" lon="-1.50037">
        <ele>106</ele>
        <time>2026-08-23T13:36:53.000Z</time>
      </trkpt>
      <trkpt lat="43.35414" lon="-1.50074">
        <ele>105</ele>
        <time>2026-08-23T13:36:58.000Z</time>
      </trkpt>
      <trkpt lat="43.35428" lon="-1.50091">
        <ele>105</ele>
        <time>2026-08-23T13:37:02.000Z</time>
      </trkpt>
      <trkpt lat="43.35427" lon="-1.50127">
        <ele>106</ele>
        <time>2026-08-23T13:37:06.000Z</time>
      </trkpt>
      <trkpt lat="43.35441" lon="-1.50246">
        <ele>105</ele>
        <time>2026-08-23T13:37:22.000Z</time>
      </trkpt>
      <trkpt lat="43.35447" lon="-1.50285">
        <ele>105</ele>
        <time>2026-08-23T13:37:27.000Z</time>
      </trkpt>
      <trkpt lat="43.35483" lon="-1.50418">
        <ele>108</ele>
        <time>2026-08-23T13:37:45.000Z</time>
      </trkpt>
      <trkpt lat="43.35492" lon="-1.5049">
        <ele>110</ele>
        <time>2026-08-23T13:37:55.000Z</time>
      </trkpt>
      <trkpt lat="43.35488" lon="-1.50558">
        <ele>111</ele>
        <time>2026-08-23T13:38:04.000Z</time>
      </trkpt>
      <trkpt lat="43.35475" lon="-1.50713">
        <ele>110</ele>
        <time>2026-08-23T13:38:24.000Z</time>
      </trkpt>
      <trkpt lat="43.35471" lon="-1.50778">
        <ele>111</ele>
        <time>2026-08-23T13:38:32.000Z</time>
      </trkpt>
      <trkpt lat="43.35475" lon="-1.5081">
        <ele>112</ele>
        <time>2026-08-23T13:38:36.000Z</time>
      </trkpt>
      <trkpt lat="43.35482" lon="-1.5084">
        <ele>114</ele>
        <time>2026-08-23T13:38:41.000Z</time>
      </trkpt>
      <trkpt lat="43.35492" lon="-1.50867">
        <ele>115</ele>
        <time>2026-08-23T13:38:44.000Z</time>
      </trkpt>
      <trkpt lat="43.35504" lon="-1.50891">
        <ele>116</ele>
        <time>2026-08-23T13:38:48.000Z</time>
      </trkpt>
      <trkpt lat="43.3552" lon="-1.50909">
        <ele>115</ele>
        <time>2026-08-23T13:38:52.000Z</time>
      </trkpt>
      <trkpt lat="43.35537" lon="-1.50921">
        <ele>114</ele>
        <time>2026-08-23T13:38:55.000Z</time>
      </trkpt>
      <trkpt lat="43.35594" lon="-1.50947">
        <ele>109</ele>
        <time>2026-08-23T13:39:06.000Z</time>
      </trkpt>
      <trkpt lat="43.35614" lon="-1.50959">
        <ele>107</ele>
        <time>2026-08-23T13:39:10.000Z</time>
      </trkpt>
      <trkpt lat="43.35634" lon="-1.50977">
        <ele>106</ele>
        <time>2026-08-23T13:39:14.000Z</time>
      </trkpt>
      <trkpt lat="43.35662" lon="-1.5101">
        <ele>106</ele>
        <time>2026-08-23T13:39:21.000Z</time>
      </trkpt>
      <trkpt lat="43.35674" lon="-1.5103">
        <ele>106</ele>
        <time>2026-08-23T13:39:24.000Z</time>
      </trkpt>
      <trkpt lat="43.35789" lon="-1.51276">
        <ele>112</ele>
        <time>2026-08-23T13:40:02.000Z</time>
      </trkpt>
      <trkpt lat="43.35796" lon="-1.5131">
        <ele>110</ele>
        <time>2026-08-23T13:40:06.000Z</time>
      </trkpt>
      <trkpt lat="43.35799" lon="-1.51366">
        <ele>105</ele>
        <time>2026-08-23T13:40:14.000Z</time>
      </trkpt>
      <trkpt lat="43.35832" lon="-1.51331">
        <ele>112</ele>
        <time>2026-08-23T13:40:21.000Z</time>
      </trkpt>
      <trkpt lat="43.35854" lon="-1.51327">
        <ele>113</ele>
        <time>2026-08-23T13:40:25.000Z</time>
      </trkpt>
      <trkpt lat="43.35871" lon="-1.51334">
        <ele>114</ele>
        <time>2026-08-23T13:40:28.000Z</time>
      </trkpt>
      <trkpt lat="43.35925" lon="-1.51377">
        <ele>113</ele>
        <time>2026-08-23T13:40:39.000Z</time>
      </trkpt>
      <trkpt lat="43.35947" lon="-1.51376">
        <ele>114</ele>
        <time>2026-08-23T13:40:43.000Z</time>
      </trkpt>
      <trkpt lat="43.36011" lon="-1.5135">
        <ele>117</ele>
        <time>2026-08-23T13:40:55.000Z</time>
      </trkpt>
      <trkpt lat="43.36029" lon="-1.5135">
        <ele>117</ele>
        <time>2026-08-23T13:40:58.000Z</time>
      </trkpt>
      <trkpt lat="43.36041" lon="-1.51358">
        <ele>116</ele>
        <time>2026-08-23T13:41:01.000Z</time>
      </trkpt>
      <trkpt lat="43.36157" lon="-1.51454">
        <ele>106</ele>
        <time>2026-08-23T13:41:25.000Z</time>
      </trkpt>
      <trkpt lat="43.3621" lon="-1.51502">
        <ele>105</ele>
        <time>2026-08-23T13:41:36.000Z</time>
      </trkpt>
      <trkpt lat="43.36317" lon="-1.51615">
        <ele>112</ele>
        <time>2026-08-23T13:42:00.000Z</time>
      </trkpt>
      <trkpt lat="43.36349" lon="-1.51661">
        <ele>114</ele>
        <time>2026-08-23T13:42:08.000Z</time>
      </trkpt>
      <trkpt lat="43.36376" lon="-1.51705">
        <ele>114</ele>
        <time>2026-08-23T13:42:16.000Z</time>
      </trkpt>
      <trkpt lat="43.36394" lon="-1.51742">
        <ele>115</ele>
        <time>2026-08-23T13:42:22.000Z</time>
      </trkpt>
      <trkpt lat="43.36455" lon="-1.5187">
        <ele>125</ele>
        <time>2026-08-23T13:42:41.000Z</time>
      </trkpt>
      <trkpt lat="43.36474" lon="-1.51905">
        <ele>128</ele>
        <time>2026-08-23T13:42:47.000Z</time>
      </trkpt>
      <trkpt lat="43.36489" lon="-1.51926">
        <ele>129</ele>
        <time>2026-08-23T13:42:51.000Z</time>
      </trkpt>
      <trkpt lat="43.36547" lon="-1.51989">
        <ele>134</ele>
        <time>2026-08-23T13:43:04.000Z</time>
      </trkpt>
      <trkpt lat="43.36555" lon="-1.52004">
        <ele>135</ele>
        <time>2026-08-23T13:43:06.000Z</time>
      </trkpt>
      <trkpt lat="43.36559" lon="-1.52028">
        <ele>136</ele>
        <time>2026-08-23T13:43:10.000Z</time>
      </trkpt>
      <trkpt lat="43.36558" lon="-1.52055">
        <ele>136</ele>
        <time>2026-08-23T13:43:13.000Z</time>
      </trkpt>
      <trkpt lat="43.36548" lon="-1.52124">
        <ele>135</ele>
        <time>2026-08-23T13:43:22.000Z</time>
      </trkpt>
      <trkpt lat="43.36526" lon="-1.52233">
        <ele>133</ele>
        <time>2026-08-23T13:43:37.000Z</time>
      </trkpt>
      <trkpt lat="43.36522" lon="-1.52264">
        <ele>133</ele>
        <time>2026-08-23T13:43:41.000Z</time>
      </trkpt>
      <trkpt lat="43.36523" lon="-1.52274">
        <ele>133</ele>
        <time>2026-08-23T13:43:42.000Z</time>
      </trkpt>
      <trkpt lat="43.36506" lon="-1.52278">
        <ele>131</ele>
        <time>2026-08-23T13:43:45.000Z</time>
      </trkpt>
      <trkpt lat="43.36473" lon="-1.5229">
        <ele>130</ele>
        <time>2026-08-23T13:43:51.000Z</time>
      </trkpt>
      <trkpt lat="43.36446" lon="-1.52304">
        <ele>130</ele>
        <time>2026-08-23T13:43:56.000Z</time>
      </trkpt>
      <trkpt lat="43.36417" lon="-1.52323">
        <ele>131</ele>
        <time>2026-08-23T13:44:02.000Z</time>
      </trkpt>
      <trkpt lat="43.3638" lon="-1.52351">
        <ele>132</ele>
        <time>2026-08-23T13:44:10.000Z</time>
      </trkpt>
      <trkpt lat="43.36356" lon="-1.52376">
        <ele>132</ele>
        <time>2026-08-23T13:44:15.000Z</time>
      </trkpt>
      <trkpt lat="43.36342" lon="-1.52397">
        <ele>132</ele>
        <time>2026-08-23T13:44:19.000Z</time>
      </trkpt>
      <trkpt lat="43.36335" lon="-1.52415">
        <ele>132</ele>
        <time>2026-08-23T13:44:21.000Z</time>
      </trkpt>
      <trkpt lat="43.36298" lon="-1.52625">
        <ele>125</ele>
        <time>2026-08-23T13:44:49.000Z</time>
      </trkpt>
      <trkpt lat="43.36299" lon="-1.52656">
        <ele>123</ele>
        <time>2026-08-23T13:44:53.000Z</time>
      </trkpt>
      <trkpt lat="43.36305" lon="-1.5269">
        <ele>120</ele>
        <time>2026-08-23T13:44:58.000Z</time>
      </trkpt>
      <trkpt lat="43.36322" lon="-1.52743">
        <ele>118</ele>
        <time>2026-08-23T13:45:05.000Z</time>
      </trkpt>
      <trkpt lat="43.36341" lon="-1.52783">
        <ele>117</ele>
        <time>2026-08-23T13:45:11.000Z</time>
      </trkpt>
      <trkpt lat="43.3639" lon="-1.52871">
        <ele>114</ele>
        <time>2026-08-23T13:45:26.000Z</time>
      </trkpt>
      <trkpt lat="43.36402" lon="-1.52897">
        <ele>114</ele>
        <time>2026-08-23T13:45:30.000Z</time>
      </trkpt>
      <trkpt lat="43.3641" lon="-1.52925">
        <ele>115</ele>
        <time>2026-08-23T13:45:34.000Z</time>
      </trkpt>
      <trkpt lat="43.36424" lon="-1.53">
        <ele>110</ele>
        <time>2026-08-23T13:45:44.000Z</time>
      </trkpt>
      <trkpt lat="43.36463" lon="-1.53252">
        <ele>108</ele>
        <time>2026-08-23T13:46:17.000Z</time>
      </trkpt>
      <trkpt lat="43.36496" lon="-1.53439">
        <ele>104</ele>
        <time>2026-08-23T13:46:42.000Z</time>
      </trkpt>
      <trkpt lat="43.36507" lon="-1.53566">
        <ele>97</ele>
        <time>2026-08-23T13:46:58.000Z</time>
      </trkpt>
      <trkpt lat="43.36504" lon="-1.53627">
        <ele>97</ele>
        <time>2026-08-23T13:47:06.000Z</time>
      </trkpt>
      <trkpt lat="43.36486" lon="-1.53691">
        <ele>98</ele>
        <time>2026-08-23T13:47:15.000Z</time>
      </trkpt>
      <trkpt lat="43.36458" lon="-1.5377">
        <ele>99</ele>
        <time>2026-08-23T13:47:27.000Z</time>
      </trkpt>
      <trkpt lat="43.36453" lon="-1.53796">
        <ele>99</ele>
        <time>2026-08-23T13:47:30.000Z</time>
      </trkpt>
      <trkpt lat="43.36451" lon="-1.53875">
        <ele>99</ele>
        <time>2026-08-23T13:47:40.000Z</time>
      </trkpt>
      <trkpt lat="43.3644" lon="-1.53976">
        <ele>96</ele>
        <time>2026-08-23T13:47:54.000Z</time>
      </trkpt>
      <trkpt lat="43.36438" lon="-1.54039">
        <ele>95</ele>
        <time>2026-08-23T13:48:02.000Z</time>
      </trkpt>
      <trkpt lat="43.36416" lon="-1.54232">
        <ele>99</ele>
        <time>2026-08-23T13:48:27.000Z</time>
      </trkpt>
      <trkpt lat="43.36416" lon="-1.54258">
        <ele>100</ele>
        <time>2026-08-23T13:48:30.000Z</time>
      </trkpt>
      <trkpt lat="43.36422" lon="-1.54277">
        <ele>101</ele>
        <time>2026-08-23T13:48:33.000Z</time>
      </trkpt>
      <trkpt lat="43.36434" lon="-1.54296">
        <ele>100</ele>
        <time>2026-08-23T13:48:36.000Z</time>
      </trkpt>
      <trkpt lat="43.3645" lon="-1.54307">
        <ele>99</ele>
        <time>2026-08-23T13:48:39.000Z</time>
      </trkpt>
      <trkpt lat="43.36468" lon="-1.54315">
        <ele>97</ele>
        <time>2026-08-23T13:48:43.000Z</time>
      </trkpt>
      <trkpt lat="43.36492" lon="-1.54318">
        <ele>95</ele>
        <time>2026-08-23T13:48:47.000Z</time>
      </trkpt>
      <trkpt lat="43.36522" lon="-1.54318">
        <ele>91</ele>
        <time>2026-08-23T13:48:52.000Z</time>
      </trkpt>
      <trkpt lat="43.36539" lon="-1.54346">
        <ele>90</ele>
        <time>2026-08-23T13:48:57.000Z</time>
      </trkpt>
      <trkpt lat="43.36529" lon="-1.54476">
        <ele>90</ele>
        <time>2026-08-23T13:49:14.000Z</time>
      </trkpt>
      <trkpt lat="43.36549" lon="-1.54474">
        <ele>89</ele>
        <time>2026-08-23T13:49:18.000Z</time>
      </trkpt>
      <trkpt lat="43.36551" lon="-1.54482">
        <ele>89</ele>
        <time>2026-08-23T13:49:19.000Z</time>
      </trkpt>
      <trkpt lat="43.36571" lon="-1.54513">
        <ele>89</ele>
        <time>2026-08-23T13:49:24.000Z</time>
      </trkpt>
      <trkpt lat="43.36583" lon="-1.54578">
        <ele>95</ele>
        <time>2026-08-23T13:49:33.000Z</time>
      </trkpt>
      <trkpt lat="43.36591" lon="-1.54599">
        <ele>98</ele>
        <time>2026-08-23T13:49:36.000Z</time>
      </trkpt>
      <trkpt lat="43.36619" lon="-1.54616">
        <ele>98</ele>
        <time>2026-08-23T13:49:41.000Z</time>
      </trkpt>
      <trkpt lat="43.36637" lon="-1.54647">
        <ele>102</ele>
        <time>2026-08-23T13:49:46.000Z</time>
      </trkpt>
      <trkpt lat="43.36646" lon="-1.5469">
        <ele>105</ele>
        <time>2026-08-23T13:49:52.000Z</time>
      </trkpt>
      <trkpt lat="43.36641" lon="-1.54725">
        <ele>106</ele>
        <time>2026-08-23T13:49:57.000Z</time>
      </trkpt>
      <trkpt lat="43.36621" lon="-1.54776">
        <ele>105</ele>
        <time>2026-08-23T13:50:04.000Z</time>
      </trkpt>
      <trkpt lat="43.36619" lon="-1.54834">
        <ele>103</ele>
        <time>2026-08-23T13:50:12.000Z</time>
      </trkpt>
      <trkpt lat="43.36608" lon="-1.54987">
        <ele>102</ele>
        <time>2026-08-23T13:50:32.000Z</time>
      </trkpt>
      <trkpt lat="43.36624" lon="-1.55057">
        <ele>102</ele>
        <time>2026-08-23T13:50:41.000Z</time>
      </trkpt>
      <trkpt lat="43.36657" lon="-1.55105">
        <ele>105</ele>
        <time>2026-08-23T13:50:50.000Z</time>
      </trkpt>
      <trkpt lat="43.3672" lon="-1.55171">
        <ele>111</ele>
        <time>2026-08-23T13:51:04.000Z</time>
      </trkpt>
      <trkpt lat="43.36747" lon="-1.55241">
        <ele>112</ele>
        <time>2026-08-23T13:51:14.000Z</time>
      </trkpt>
      <trkpt lat="43.36833" lon="-1.55378">
        <ele>105</ele>
        <time>2026-08-23T13:51:38.000Z</time>
      </trkpt>
      <trkpt lat="43.36848" lon="-1.55386">
        <ele>105</ele>
        <time>2026-08-23T13:51:40.000Z</time>
      </trkpt>
      <trkpt lat="43.36886" lon="-1.55399">
        <ele>104</ele>
        <time>2026-08-23T13:51:47.000Z</time>
      </trkpt>
      <trkpt lat="43.36897" lon="-1.5541">
        <ele>105</ele>
        <time>2026-08-23T13:51:50.000Z</time>
      </trkpt>
      <trkpt lat="43.36915" lon="-1.55417">
        <ele>105</ele>
        <time>2026-08-23T13:51:53.000Z</time>
      </trkpt>
      <trkpt lat="43.36953" lon="-1.55421">
        <ele>100</ele>
        <time>2026-08-23T13:52:00.000Z</time>
      </trkpt>
      <trkpt lat="43.36969" lon="-1.55434">
        <ele>99</ele>
        <time>2026-08-23T13:52:03.000Z</time>
      </trkpt>
      <trkpt lat="43.36975" lon="-1.55454">
        <ele>100</ele>
        <time>2026-08-23T13:52:06.000Z</time>
      </trkpt>
      <trkpt lat="43.36974" lon="-1.55511">
        <ele>103</ele>
        <time>2026-08-23T13:52:13.000Z</time>
      </trkpt>
      <trkpt lat="43.36987" lon="-1.55526">
        <ele>102</ele>
        <time>2026-08-23T13:52:16.000Z</time>
      </trkpt>
      <trkpt lat="43.37003" lon="-1.55534">
        <ele>100</ele>
        <time>2026-08-23T13:52:19.000Z</time>
      </trkpt>
      <trkpt lat="43.37068" lon="-1.55527">
        <ele>97</ele>
        <time>2026-08-23T13:52:31.000Z</time>
      </trkpt>
      <trkpt lat="43.37174" lon="-1.55473">
        <ele>96</ele>
        <time>2026-08-23T13:52:51.000Z</time>
      </trkpt>
      <trkpt lat="43.37211" lon="-1.55481">
        <ele>98</ele>
        <time>2026-08-23T13:52:58.000Z</time>
      </trkpt>
      <trkpt lat="43.37305" lon="-1.55483">
        <ele>99</ele>
        <time>2026-08-23T13:53:14.000Z</time>
      </trkpt>
      <trkpt lat="43.37332" lon="-1.55489">
        <ele>99</ele>
        <time>2026-08-23T13:53:19.000Z</time>
      </trkpt>
      <trkpt lat="43.37399" lon="-1.5553">
        <ele>93</ele>
        <time>2026-08-23T13:53:32.000Z</time>
      </trkpt>
      <trkpt lat="43.37412" lon="-1.55546">
        <ele>93</ele>
        <time>2026-08-23T13:53:36.000Z</time>
      </trkpt>
      <trkpt lat="43.37435" lon="-1.55589">
        <ele>91</ele>
        <time>2026-08-23T13:53:42.000Z</time>
      </trkpt>
      <trkpt lat="43.37439" lon="-1.55621">
        <ele>91</ele>
        <time>2026-08-23T13:53:47.000Z</time>
      </trkpt>
      <trkpt lat="43.37438" lon="-1.55669">
        <ele>91</ele>
        <time>2026-08-23T13:53:53.000Z</time>
      </trkpt>
      <trkpt lat="43.37446" lon="-1.55735">
        <ele>92</ele>
        <time>2026-08-23T13:54:01.000Z</time>
      </trkpt>
      <trkpt lat="43.37456" lon="-1.55752">
        <ele>93</ele>
        <time>2026-08-23T13:54:04.000Z</time>
      </trkpt>
      <trkpt lat="43.37499" lon="-1.55783">
        <ele>93</ele>
        <time>2026-08-23T13:54:13.000Z</time>
      </trkpt>
      <trkpt lat="43.37516" lon="-1.55802">
        <ele>93</ele>
        <time>2026-08-23T13:54:17.000Z</time>
      </trkpt>
      <trkpt lat="43.37549" lon="-1.55872">
        <ele>91</ele>
        <time>2026-08-23T13:54:28.000Z</time>
      </trkpt>
      <trkpt lat="43.37575" lon="-1.55943">
        <ele>88</ele>
        <time>2026-08-23T13:54:38.000Z</time>
      </trkpt>
      <trkpt lat="43.37577" lon="-1.55959">
        <ele>87</ele>
        <time>2026-08-23T13:54:40.000Z</time>
      </trkpt>
      <trkpt lat="43.37573" lon="-1.55983">
        <ele>86</ele>
        <time>2026-08-23T13:54:43.000Z</time>
      </trkpt>
      <trkpt lat="43.37562" lon="-1.56002">
        <ele>86</ele>
        <time>2026-08-23T13:54:46.000Z</time>
      </trkpt>
      <trkpt lat="43.37515" lon="-1.56045">
        <ele>87</ele>
        <time>2026-08-23T13:54:56.000Z</time>
      </trkpt>
      <trkpt lat="43.37514" lon="-1.56077">
        <ele>86</ele>
        <time>2026-08-23T13:55:01.000Z</time>
      </trkpt>
      <trkpt lat="43.37544" lon="-1.56266">
        <ele>87</ele>
        <time>2026-08-23T13:55:26.000Z</time>
      </trkpt>
      <trkpt lat="43.37556" lon="-1.56315">
        <ele>86</ele>
        <time>2026-08-23T13:55:32.000Z</time>
      </trkpt>
      <trkpt lat="43.37513" lon="-1.56307">
        <ele>88</ele>
        <time>2026-08-23T13:55:40.000Z</time>
      </trkpt>
      <trkpt lat="43.37486" lon="-1.56309">
        <ele>88</ele>
        <time>2026-08-23T13:55:45.000Z</time>
      </trkpt>
      <trkpt lat="43.37444" lon="-1.56305">
        <ele>87</ele>
        <time>2026-08-23T13:55:52.000Z</time>
      </trkpt>
      <trkpt lat="43.37426" lon="-1.56312">
        <ele>86</ele>
        <time>2026-08-23T13:55:56.000Z</time>
      </trkpt>
      <trkpt lat="43.37352" lon="-1.56371">
        <ele>89</ele>
        <time>2026-08-23T13:56:11.000Z</time>
      </trkpt>
      <trkpt lat="43.3734" lon="-1.56386">
        <ele>90</ele>
        <time>2026-08-23T13:56:14.000Z</time>
      </trkpt>
      <trkpt lat="43.37315" lon="-1.56425">
        <ele>90</ele>
        <time>2026-08-23T13:56:20.000Z</time>
      </trkpt>
      <trkpt lat="43.37298" lon="-1.56448">
        <ele>89</ele>
        <time>2026-08-23T13:56:25.000Z</time>
      </trkpt>
      <trkpt lat="43.37286" lon="-1.56458">
        <ele>89</ele>
        <time>2026-08-23T13:56:27.000Z</time>
      </trkpt>
      <trkpt lat="43.37268" lon="-1.56468">
        <ele>89</ele>
        <time>2026-08-23T13:56:31.000Z</time>
      </trkpt>
      <trkpt lat="43.37257" lon="-1.56472">
        <ele>90</ele>
        <time>2026-08-23T13:56:33.000Z</time>
      </trkpt>
      <trkpt lat="43.37236" lon="-1.56473">
        <ele>90</ele>
        <time>2026-08-23T13:56:36.000Z</time>
      </trkpt>
      <trkpt lat="43.37194" lon="-1.56452">
        <ele>90</ele>
        <time>2026-08-23T13:56:44.000Z</time>
      </trkpt>
      <trkpt lat="43.37179" lon="-1.56449">
        <ele>90</ele>
        <time>2026-08-23T13:56:47.000Z</time>
      </trkpt>
      <trkpt lat="43.37162" lon="-1.56455">
        <ele>89</ele>
        <time>2026-08-23T13:56:50.000Z</time>
      </trkpt>
      <trkpt lat="43.3705" lon="-1.56519">
        <ele>78</ele>
        <time>2026-08-23T13:57:12.000Z</time>
      </trkpt>
      <trkpt lat="43.37008" lon="-1.56533">
        <ele>73</ele>
        <time>2026-08-23T13:57:19.000Z</time>
      </trkpt>
      <trkpt lat="43.36988" lon="-1.56546">
        <ele>71</ele>
        <time>2026-08-23T13:57:23.000Z</time>
      </trkpt>
      <trkpt lat="43.36908" lon="-1.5662">
        <ele>64</ele>
        <time>2026-08-23T13:57:40.000Z</time>
      </trkpt>
      <trkpt lat="43.36871" lon="-1.56648">
        <ele>60</ele>
        <time>2026-08-23T13:57:48.000Z</time>
      </trkpt>
      <trkpt lat="43.36818" lon="-1.56668">
        <ele>55</ele>
        <time>2026-08-23T13:57:58.000Z</time>
      </trkpt>
      <trkpt lat="43.36801" lon="-1.56678">
        <ele>53</ele>
        <time>2026-08-23T13:58:01.000Z</time>
      </trkpt>
      <trkpt lat="43.36748" lon="-1.56728">
        <ele>44</ele>
        <time>2026-08-23T13:58:13.000Z</time>
      </trkpt>
      <trkpt lat="43.3673" lon="-1.56735">
        <ele>42</ele>
        <time>2026-08-23T13:58:16.000Z</time>
      </trkpt>
      <trkpt lat="43.36711" lon="-1.56734">
        <ele>40</ele>
        <time>2026-08-23T13:58:19.000Z</time>
      </trkpt>
      <trkpt lat="43.36691" lon="-1.56725">
        <ele>40</ele>
        <time>2026-08-23T13:58:23.000Z</time>
      </trkpt>
      <trkpt lat="43.36658" lon="-1.56693">
        <ele>39</ele>
        <time>2026-08-23T13:58:30.000Z</time>
      </trkpt>
      <trkpt lat="43.3665" lon="-1.56679">
        <ele>39</ele>
        <time>2026-08-23T13:58:32.000Z</time>
      </trkpt>
      <trkpt lat="43.36643" lon="-1.56664">
        <ele>38</ele>
        <time>2026-08-23T13:58:35.000Z</time>
      </trkpt>
      <trkpt lat="43.36631" lon="-1.56616">
        <ele>37</ele>
        <time>2026-08-23T13:58:41.000Z</time>
      </trkpt>
      <trkpt lat="43.36622" lon="-1.56589">
        <ele>37</ele>
        <time>2026-08-23T13:58:45.000Z</time>
      </trkpt>
      <trkpt lat="43.36614" lon="-1.56579">
        <ele>36</ele>
        <time>2026-08-23T13:58:47.000Z</time>
      </trkpt>
      <trkpt lat="43.36602" lon="-1.56573">
        <ele>35</ele>
        <time>2026-08-23T13:58:49.000Z</time>
      </trkpt>
      <trkpt lat="43.36532" lon="-1.56557">
        <ele>35</ele>
        <time>2026-08-23T13:59:02.000Z</time>
      </trkpt>
      <trkpt lat="43.36519" lon="-1.56562">
        <ele>35</ele>
        <time>2026-08-23T13:59:04.000Z</time>
      </trkpt>
      <trkpt lat="43.36498" lon="-1.56582">
        <ele>36</ele>
        <time>2026-08-23T13:59:09.000Z</time>
      </trkpt>
      <trkpt lat="43.36462" lon="-1.56632">
        <ele>36</ele>
        <time>2026-08-23T13:59:18.000Z</time>
      </trkpt>
      <trkpt lat="43.3644" lon="-1.56669">
        <ele>37</ele>
        <time>2026-08-23T13:59:24.000Z</time>
      </trkpt>
      <trkpt lat="43.36352" lon="-1.5676">
        <ele>42</ele>
        <time>2026-08-23T13:59:44.000Z</time>
      </trkpt>
      <trkpt lat="43.36326" lon="-1.568">
        <ele>42</ele>
        <time>2026-08-23T13:59:51.000Z</time>
      </trkpt>
      <trkpt lat="43.3631" lon="-1.56816">
        <ele>41</ele>
        <time>2026-08-23T13:59:54.000Z</time>
      </trkpt>
      <trkpt lat="43.36247" lon="-1.56869">
        <ele>36</ele>
        <time>2026-08-23T14:00:07.000Z</time>
      </trkpt>
      <trkpt lat="43.36169" lon="-1.56921">
        <ele>32</ele>
        <time>2026-08-23T14:00:23.000Z</time>
      </trkpt>
      <trkpt lat="43.36118" lon="-1.56961">
        <ele>32</ele>
        <time>2026-08-23T14:00:33.000Z</time>
      </trkpt>
      <trkpt lat="43.36059" lon="-1.57018">
        <ele>31</ele>
        <time>2026-08-23T14:00:46.000Z</time>
      </trkpt>
      <trkpt lat="43.36039" lon="-1.57027">
        <ele>30</ele>
        <time>2026-08-23T14:00:50.000Z</time>
      </trkpt>
      <trkpt lat="43.35999" lon="-1.57027">
        <ele>28</ele>
        <time>2026-08-23T14:00:57.000Z</time>
      </trkpt>
      <trkpt lat="43.3595" lon="-1.57034">
        <ele>25</ele>
        <time>2026-08-23T14:01:06.000Z</time>
      </trkpt>
      <trkpt lat="43.35937" lon="-1.57033">
        <ele>24</ele>
        <time>2026-08-23T14:01:08.000Z</time>
      </trkpt>
      <trkpt lat="43.35927" lon="-1.57028">
        <ele>24</ele>
        <time>2026-08-23T14:01:10.000Z</time>
      </trkpt>
      <trkpt lat="43.35904" lon="-1.57015">
        <ele>22</ele>
        <time>2026-08-23T14:01:14.000Z</time>
      </trkpt>
      <trkpt lat="43.35894" lon="-1.57006">
        <ele>22</ele>
        <time>2026-08-23T14:01:16.000Z</time>
      </trkpt>
      <trkpt lat="43.35872" lon="-1.56985">
        <ele>21</ele>
        <time>2026-08-23T14:01:21.000Z</time>
      </trkpt>
      <trkpt lat="43.35841" lon="-1.56948">
        <ele>21</ele>
        <time>2026-08-23T14:01:29.000Z</time>
      </trkpt>
      <trkpt lat="43.35819" lon="-1.5693">
        <ele>21</ele>
        <time>2026-08-23T14:01:33.000Z</time>
      </trkpt>
      <trkpt lat="43.35794" lon="-1.56917">
        <ele>21</ele>
        <time>2026-08-23T14:01:38.000Z</time>
      </trkpt>
      <trkpt lat="43.35762" lon="-1.56909">
        <ele>21</ele>
        <time>2026-08-23T14:01:44.000Z</time>
      </trkpt>
      <trkpt lat="43.35726" lon="-1.56907">
        <ele>20</ele>
        <time>2026-08-23T14:01:50.000Z</time>
      </trkpt>
      <trkpt lat="43.35703" lon="-1.56908">
        <ele>19</ele>
        <time>2026-08-23T14:01:54.000Z</time>
      </trkpt>
      <trkpt lat="43.35639" lon="-1.56916">
        <ele>17</ele>
        <time>2026-08-23T14:02:06.000Z</time>
      </trkpt>
      <trkpt lat="43.35625" lon="-1.56922">
        <ele>17</ele>
        <time>2026-08-23T14:02:08.000Z</time>
      </trkpt>
      <trkpt lat="43.35723" lon="-1.57132">
        <ele>15</ele>
        <time>2026-08-23T14:02:40.000Z</time>
      </trkpt>
      <trkpt lat="43.35733" lon="-1.5716">
        <ele>15</ele>
        <time>2026-08-23T14:02:45.000Z</time>
      </trkpt>
      <trkpt lat="43.3574" lon="-1.57189">
        <ele>15</ele>
        <time>2026-08-23T14:02:48.000Z</time>
      </trkpt>
      <trkpt lat="43.35745" lon="-1.57225">
        <ele>14</ele>
        <time>2026-08-23T14:02:53.000Z</time>
      </trkpt>
      <trkpt lat="43.35763" lon="-1.57418">
        <ele>13</ele>
        <time>2026-08-23T14:03:18.000Z</time>
      </trkpt>
      <trkpt lat="43.35767" lon="-1.57433">
        <ele>13</ele>
        <time>2026-08-23T14:03:20.000Z</time>
      </trkpt>
      <trkpt lat="43.35781" lon="-1.57455">
        <ele>13</ele>
        <time>2026-08-23T14:03:24.000Z</time>
      </trkpt>
      <trkpt lat="43.35786" lon="-1.57459">
        <ele>13</ele>
        <time>2026-08-23T14:03:25.000Z</time>
      </trkpt>
      <trkpt lat="43.35788" lon="-1.57464">
        <ele>13</ele>
        <time>2026-08-23T14:03:26.000Z</time>
      </trkpt>
      <trkpt lat="43.35789" lon="-1.5747">
        <ele>13</ele>
        <time>2026-08-23T14:03:27.000Z</time>
      </trkpt>
      <trkpt lat="43.35784" lon="-1.57479">
        <ele>13</ele>
        <time>2026-08-23T14:03:28.000Z</time>
      </trkpt>
      <trkpt lat="43.35781" lon="-1.57496">
        <ele>13</ele>
        <time>2026-08-23T14:03:31.000Z</time>
      </trkpt>
      <trkpt lat="43.35779" lon="-1.57526">
        <ele>13</ele>
        <time>2026-08-23T14:03:34.000Z</time>
      </trkpt>
      <trkpt lat="43.35779" lon="-1.57552">
        <ele>13</ele>
        <time>2026-08-23T14:03:38.000Z</time>
      </trkpt>
      <trkpt lat="43.35782" lon="-1.57586">
        <ele>13</ele>
        <time>2026-08-23T14:03:42.000Z</time>
      </trkpt>
      <trkpt lat="43.35807" lon="-1.5772">
        <ele>12</ele>
        <time>2026-08-23T14:04:00.000Z</time>
      </trkpt>
      <trkpt lat="43.35838" lon="-1.57869">
        <ele>11</ele>
        <time>2026-08-23T14:04:20.000Z</time>
      </trkpt>
      <trkpt lat="43.35852" lon="-1.57913">
        <ele>12</ele>
        <time>2026-08-23T14:04:26.000Z</time>
      </trkpt>
      <trkpt lat="43.35882" lon="-1.57972">
        <ele>11</ele>
        <time>2026-08-23T14:04:36.000Z</time>
      </trkpt>
      <trkpt lat="43.35894" lon="-1.57993">
        <ele>11</ele>
        <time>2026-08-23T14:04:39.000Z</time>
      </trkpt>
      <trkpt lat="43.36003" lon="-1.58148">
        <ele>11</ele>
        <time>2026-08-23T14:05:07.000Z</time>
      </trkpt>
      <trkpt lat="43.36109" lon="-1.58303">
        <ele>12</ele>
        <time>2026-08-23T14:05:35.000Z</time>
      </trkpt>
      <trkpt lat="43.36129" lon="-1.58341">
        <ele>12</ele>
        <time>2026-08-23T14:05:41.000Z</time>
      </trkpt>
      <trkpt lat="43.36139" lon="-1.58363">
        <ele>12</ele>
        <time>2026-08-23T14:05:44.000Z</time>
      </trkpt>
      <trkpt lat="43.36164" lon="-1.58429">
        <ele>12</ele>
        <time>2026-08-23T14:05:54.000Z</time>
      </trkpt>
      <trkpt lat="43.36257" lon="-1.58723">
        <ele>14</ele>
        <time>2026-08-23T14:06:35.000Z</time>
      </trkpt>
      <trkpt lat="43.3628" lon="-1.58766">
        <ele>18</ele>
        <time>2026-08-23T14:06:42.000Z</time>
      </trkpt>
      <trkpt lat="43.36308" lon="-1.58801">
        <ele>19</ele>
        <time>2026-08-23T14:06:49.000Z</time>
      </trkpt>
      <trkpt lat="43.36402" lon="-1.58885">
        <ele>17</ele>
        <time>2026-08-23T14:07:09.000Z</time>
      </trkpt>
      <trkpt lat="43.36427" lon="-1.58913">
        <ele>13</ele>
        <time>2026-08-23T14:07:14.000Z</time>
      </trkpt>
      <trkpt lat="43.36444" lon="-1.58941">
        <ele>12</ele>
        <time>2026-08-23T14:07:19.000Z</time>
      </trkpt>
      <trkpt lat="43.3646" lon="-1.58976">
        <ele>11</ele>
        <time>2026-08-23T14:07:24.000Z</time>
      </trkpt>
      <trkpt lat="43.36482" lon="-1.59044">
        <ele>9</ele>
        <time>2026-08-23T14:07:34.000Z</time>
      </trkpt>
      <trkpt lat="43.36581" lon="-1.59376">
        <ele>9</ele>
        <time>2026-08-23T14:08:21.000Z</time>
      </trkpt>
      <trkpt lat="43.36589" lon="-1.5943">
        <ele>9</ele>
        <time>2026-08-23T14:08:28.000Z</time>
      </trkpt>
      <trkpt lat="43.36592" lon="-1.59482">
        <ele>9</ele>
        <time>2026-08-23T14:08:34.000Z</time>
      </trkpt>
      <trkpt lat="43.36588" lon="-1.59546">
        <ele>11</ele>
        <time>2026-08-23T14:08:43.000Z</time>
      </trkpt>
      <trkpt lat="43.36567" lon="-1.59809">
        <ele>18</ele>
        <time>2026-08-23T14:09:17.000Z</time>
      </trkpt>
      <trkpt lat="43.36562" lon="-1.59843">
        <ele>18</ele>
        <time>2026-08-23T14:09:21.000Z</time>
      </trkpt>
      <trkpt lat="43.36549" lon="-1.59873">
        <ele>17</ele>
        <time>2026-08-23T14:09:26.000Z</time>
      </trkpt>
      <trkpt lat="43.36533" lon="-1.59897">
        <ele>16</ele>
        <time>2026-08-23T14:09:30.000Z</time>
      </trkpt>
      <trkpt lat="43.36476" lon="-1.5994">
        <ele>14</ele>
        <time>2026-08-23T14:09:42.000Z</time>
      </trkpt>
      <trkpt lat="43.36447" lon="-1.59965">
        <ele>14</ele>
        <time>2026-08-23T14:09:48.000Z</time>
      </trkpt>
      <trkpt lat="43.36418" lon="-1.59996">
        <ele>13</ele>
        <time>2026-08-23T14:09:54.000Z</time>
      </trkpt>
      <trkpt lat="43.36387" lon="-1.60042">
        <ele>15</ele>
        <time>2026-08-23T14:10:02.000Z</time>
      </trkpt>
      <trkpt lat="43.36371" lon="-1.60073">
        <ele>15</ele>
        <time>2026-08-23T14:10:07.000Z</time>
      </trkpt>
      <trkpt lat="43.36336" lon="-1.60166">
        <ele>16</ele>
        <time>2026-08-23T14:10:21.000Z</time>
      </trkpt>
      <trkpt lat="43.36316" lon="-1.60201">
        <ele>20</ele>
        <time>2026-08-23T14:10:27.000Z</time>
      </trkpt>
      <trkpt lat="43.36299" lon="-1.60225">
        <ele>21</ele>
        <time>2026-08-23T14:10:31.000Z</time>
      </trkpt>
      <trkpt lat="43.36264" lon="-1.60257">
        <ele>19</ele>
        <time>2026-08-23T14:10:39.000Z</time>
      </trkpt>
      <trkpt lat="43.36211" lon="-1.60302">
        <ele>16</ele>
        <time>2026-08-23T14:10:50.000Z</time>
      </trkpt>
      <trkpt lat="43.36173" lon="-1.60338">
        <ele>13</ele>
        <time>2026-08-23T14:10:58.000Z</time>
      </trkpt>
      <trkpt lat="43.36153" lon="-1.60362">
        <ele>14</ele>
        <time>2026-08-23T14:11:03.000Z</time>
      </trkpt>
      <trkpt lat="43.36138" lon="-1.60384">
        <ele>15</ele>
        <time>2026-08-23T14:11:06.000Z</time>
      </trkpt>
      <trkpt lat="43.36126" lon="-1.60409">
        <ele>15</ele>
        <time>2026-08-23T14:11:10.000Z</time>
      </trkpt>
      <trkpt lat="43.36109" lon="-1.60462">
        <ele>16</ele>
        <time>2026-08-23T14:11:18.000Z</time>
      </trkpt>
      <trkpt lat="43.36103" lon="-1.60494">
        <ele>17</ele>
        <time>2026-08-23T14:11:22.000Z</time>
      </trkpt>
      <trkpt lat="43.36102" lon="-1.60518">
        <ele>17</ele>
        <time>2026-08-23T14:11:25.000Z</time>
      </trkpt>
      <trkpt lat="43.36102" lon="-1.60551">
        <ele>17</ele>
        <time>2026-08-23T14:11:29.000Z</time>
      </trkpt>
      <trkpt lat="43.36104" lon="-1.60585">
        <ele>18</ele>
        <time>2026-08-23T14:11:34.000Z</time>
      </trkpt>
      <trkpt lat="43.36118" lon="-1.60724">
        <ele>18</ele>
        <time>2026-08-23T14:11:52.000Z</time>
      </trkpt>
      <trkpt lat="43.36119" lon="-1.6075">
        <ele>18</ele>
        <time>2026-08-23T14:11:55.000Z</time>
      </trkpt>
      <trkpt lat="43.36113" lon="-1.60838">
        <ele>16</ele>
        <time>2026-08-23T14:12:07.000Z</time>
      </trkpt>
      <trkpt lat="43.36105" lon="-1.61018">
        <ele>17</ele>
        <time>2026-08-23T14:12:30.000Z</time>
      </trkpt>
      <trkpt lat="43.36101" lon="-1.61078">
        <ele>15</ele>
        <time>2026-08-23T14:12:38.000Z</time>
      </trkpt>
      <trkpt lat="43.36091" lon="-1.61139">
        <ele>13</ele>
        <time>2026-08-23T14:12:46.000Z</time>
      </trkpt>
      <trkpt lat="43.36075" lon="-1.61188">
        <ele>12</ele>
        <time>2026-08-23T14:12:53.000Z</time>
      </trkpt>
      <trkpt lat="43.36058" lon="-1.61226">
        <ele>11</ele>
        <time>2026-08-23T14:12:59.000Z</time>
      </trkpt>
      <trkpt lat="43.36033" lon="-1.61268">
        <ele>11</ele>
        <time>2026-08-23T14:13:06.000Z</time>
      </trkpt>
      <trkpt lat="43.35934" lon="-1.61396">
        <ele>16</ele>
        <time>2026-08-23T14:13:30.000Z</time>
      </trkpt>
      <trkpt lat="43.35913" lon="-1.61419">
        <ele>16</ele>
        <time>2026-08-23T14:13:35.000Z</time>
      </trkpt>
      <trkpt lat="43.35815" lon="-1.61503">
        <ele>12</ele>
        <time>2026-08-23T14:13:55.000Z</time>
      </trkpt>
      <trkpt lat="43.35787" lon="-1.61535">
        <ele>14</ele>
        <time>2026-08-23T14:14:02.000Z</time>
      </trkpt>
      <trkpt lat="43.35515" lon="-1.61963">
        <ele>18</ele>
        <time>2026-08-23T14:15:15.000Z</time>
      </trkpt>
      <trkpt lat="43.35486" lon="-1.62001">
        <ele>18</ele>
        <time>2026-08-23T14:15:22.000Z</time>
      </trkpt>
      <trkpt lat="43.35432" lon="-1.62045">
        <ele>21</ele>
        <time>2026-08-23T14:15:34.000Z</time>
      </trkpt>
      <trkpt lat="43.35407" lon="-1.6206">
        <ele>21</ele>
        <time>2026-08-23T14:15:38.000Z</time>
      </trkpt>
      <trkpt lat="43.3524" lon="-1.62126">
        <ele>14</ele>
        <time>2026-08-23T14:16:09.000Z</time>
      </trkpt>
      <trkpt lat="43.35214" lon="-1.62143">
        <ele>12</ele>
        <time>2026-08-23T14:16:14.000Z</time>
      </trkpt>
      <trkpt lat="43.35201" lon="-1.62157">
        <ele>12</ele>
        <time>2026-08-23T14:16:17.000Z</time>
      </trkpt>
      <trkpt lat="43.35181" lon="-1.62185">
        <ele>11</ele>
        <time>2026-08-23T14:16:22.000Z</time>
      </trkpt>
      <trkpt lat="43.35127" lon="-1.62289">
        <ele>11</ele>
        <time>2026-08-23T14:16:39.000Z</time>
      </trkpt>
      <trkpt lat="43.35118" lon="-1.62308">
        <ele>11</ele>
        <time>2026-08-23T14:16:42.000Z</time>
      </trkpt>
      <trkpt lat="43.35109" lon="-1.62334">
        <ele>10</ele>
        <time>2026-08-23T14:16:46.000Z</time>
      </trkpt>
      <trkpt lat="43.35103" lon="-1.62402">
        <ele>11</ele>
        <time>2026-08-23T14:16:55.000Z</time>
      </trkpt>
      <trkpt lat="43.35103" lon="-1.62461">
        <ele>10</ele>
        <time>2026-08-23T14:17:02.000Z</time>
      </trkpt>
      <trkpt lat="43.35108" lon="-1.62493">
        <ele>11</ele>
        <time>2026-08-23T14:17:06.000Z</time>
      </trkpt>
      <trkpt lat="43.35118" lon="-1.62528">
        <ele>12</ele>
        <time>2026-08-23T14:17:11.000Z</time>
      </trkpt>
      <trkpt lat="43.35101" lon="-1.62531">
        <ele>9</ele>
        <time>2026-08-23T14:17:14.000Z</time>
      </trkpt>
      <trkpt lat="43.35063" lon="-1.62537">
        <ele>6</ele>
        <time>2026-08-23T14:17:21.000Z</time>
      </trkpt>
      <trkpt lat="43.35044" lon="-1.62538">
        <ele>6</ele>
        <time>2026-08-23T14:17:25.000Z</time>
      </trkpt>
      <trkpt lat="43.35011" lon="-1.62534">
        <ele>6</ele>
        <time>2026-08-23T14:17:30.000Z</time>
      </trkpt>
      <trkpt lat="43.34988" lon="-1.6253">
        <ele>6</ele>
        <time>2026-08-23T14:17:35.000Z</time>
      </trkpt>
      <trkpt lat="43.34949" lon="-1.62522">
        <ele>7</ele>
        <time>2026-08-23T14:17:42.000Z</time>
      </trkpt>
      <trkpt lat="43.34909" lon="-1.62517">
        <ele>7</ele>
        <time>2026-08-23T14:17:49.000Z</time>
      </trkpt>
      <trkpt lat="43.34921" lon="-1.62554">
        <ele>6</ele>
        <time>2026-08-23T14:17:54.000Z</time>
      </trkpt>
      <trkpt lat="43.34928" lon="-1.62581">
        <ele>6</ele>
        <time>2026-08-23T14:17:58.000Z</time>
      </trkpt>
      <trkpt lat="43.34929" lon="-1.62603">
        <ele>5</ele>
        <time>2026-08-23T14:18:00.000Z</time>
      </trkpt>
      <trkpt lat="43.34928" lon="-1.62631">
        <ele>4</ele>
        <time>2026-08-23T14:18:04.000Z</time>
      </trkpt>
      <trkpt lat="43.34922" lon="-1.62669">
        <ele>3</ele>
        <time>2026-08-23T14:18:09.000Z</time>
      </trkpt>
      <trkpt lat="43.34908" lon="-1.62721">
        <ele>4</ele>
        <time>2026-08-23T14:18:16.000Z</time>
      </trkpt>
      <trkpt lat="43.34905" lon="-1.62741">
        <ele>5</ele>
        <time>2026-08-23T14:18:19.000Z</time>
      </trkpt>
      <trkpt lat="43.3492" lon="-1.62766">
        <ele>5</ele>
        <time>2026-08-23T14:18:23.000Z</time>
      </trkpt>
      <trkpt lat="43.34947" lon="-1.62802">
        <ele>5</ele>
        <time>2026-08-23T14:18:30.000Z</time>
      </trkpt>
      <trkpt lat="43.34972" lon="-1.62824">
        <ele>5</ele>
        <time>2026-08-23T14:18:35.000Z</time>
      </trkpt>
      <trkpt lat="43.34983" lon="-1.62825">
        <ele>5</ele>
        <time>2026-08-23T14:18:37.000Z</time>
      </trkpt>
      <trkpt lat="43.34995" lon="-1.62833">
        <ele>4</ele>
        <time>2026-08-23T14:18:39.000Z</time>
      </trkpt>
      <trkpt lat="43.35136" lon="-1.62979">
        <ele>3</ele>
        <time>2026-08-23T14:19:11.000Z</time>
      </trkpt>
      <trkpt lat="43.35202" lon="-1.63012">
        <ele>2</ele>
        <time>2026-08-23T14:19:23.000Z</time>
      </trkpt>
      <trkpt lat="43.35232" lon="-1.6303">
        <ele>3</ele>
        <time>2026-08-23T14:19:29.000Z</time>
      </trkpt>
      <trkpt lat="43.35258" lon="-1.63051">
        <ele>4</ele>
        <time>2026-08-23T14:19:35.000Z</time>
      </trkpt>
      <trkpt lat="43.3527" lon="-1.63074">
        <ele>4</ele>
        <time>2026-08-23T14:19:38.000Z</time>
      </trkpt>
      <trkpt lat="43.35276" lon="-1.63103">
        <ele>5</ele>
        <time>2026-08-23T14:19:42.000Z</time>
      </trkpt>
      <trkpt lat="43.35275" lon="-1.63123">
        <ele>5</ele>
        <time>2026-08-23T14:19:45.000Z</time>
      </trkpt>
      <trkpt lat="43.35248" lon="-1.63238">
        <ele>5</ele>
        <time>2026-08-23T14:20:00.000Z</time>
      </trkpt>
      <trkpt lat="43.35234" lon="-1.63272">
        <ele>10</ele>
        <time>2026-08-23T14:20:05.000Z</time>
      </trkpt>
      <trkpt lat="43.35233" lon="-1.63285">
        <ele>13</ele>
        <time>2026-08-23T14:20:07.000Z</time>
      </trkpt>
      <trkpt lat="43.35234" lon="-1.63301">
        <ele>16</ele>
        <time>2026-08-23T14:20:09.000Z</time>
      </trkpt>
      <trkpt lat="43.35249" lon="-1.63321">
        <ele>17</ele>
        <time>2026-08-23T14:20:13.000Z</time>
      </trkpt>
      <trkpt lat="43.35337" lon="-1.63397">
        <ele>18</ele>
        <time>2026-08-23T14:20:31.000Z</time>
      </trkpt>
      <trkpt lat="43.35374" lon="-1.63437">
        <ele>18</ele>
        <time>2026-08-23T14:20:40.000Z</time>
      </trkpt>
      <trkpt lat="43.35491" lon="-1.63519">
        <ele>7</ele>
        <time>2026-08-23T14:21:03.000Z</time>
      </trkpt>
      <trkpt lat="43.35539" lon="-1.6355">
        <ele>5</ele>
        <time>2026-08-23T14:21:13.000Z</time>
      </trkpt>
      <trkpt lat="43.35587" lon="-1.63586">
        <ele>4</ele>
        <time>2026-08-23T14:21:22.000Z</time>
      </trkpt>
      <trkpt lat="43.35602" lon="-1.63595">
        <ele>4</ele>
        <time>2026-08-23T14:21:25.000Z</time>
      </trkpt>
      <trkpt lat="43.35614" lon="-1.636">
        <ele>4</ele>
        <time>2026-08-23T14:21:27.000Z</time>
      </trkpt>
      <trkpt lat="43.35618" lon="-1.636">
        <ele>4</ele>
        <time>2026-08-23T14:21:28.000Z</time>
      </trkpt>
      <trkpt lat="43.35625" lon="-1.63606">
        <ele>3</ele>
        <time>2026-08-23T14:21:30.000Z</time>
      </trkpt>
      <trkpt lat="43.35598" lon="-1.63912">
        <ele>10</ele>
        <time>2026-08-23T14:22:09.000Z</time>
      </trkpt>
      <trkpt lat="43.35585" lon="-1.64">
        <ele>13</ele>
        <time>2026-08-23T14:22:21.000Z</time>
      </trkpt>
      <trkpt lat="43.35582" lon="-1.64022">
        <ele>15</ele>
        <time>2026-08-23T14:22:24.000Z</time>
      </trkpt>
      <trkpt lat="43.35573" lon="-1.64045">
        <ele>16</ele>
        <time>2026-08-23T14:22:27.000Z</time>
      </trkpt>
      <trkpt lat="43.35446" lon="-1.64129">
        <ele>13</ele>
        <time>2026-08-23T14:22:52.000Z</time>
      </trkpt>
      <trkpt lat="43.35418" lon="-1.64167">
        <ele>12</ele>
        <time>2026-08-23T14:22:59.000Z</time>
      </trkpt>
      <trkpt lat="43.35335" lon="-1.64248">
        <ele>15</ele>
        <time>2026-08-23T14:23:18.000Z</time>
      </trkpt>
      <trkpt lat="43.35251" lon="-1.64281">
        <ele>12</ele>
        <time>2026-08-23T14:23:33.000Z</time>
      </trkpt>
      <trkpt lat="43.35126" lon="-1.64319">
        <ele>9</ele>
        <time>2026-08-23T14:23:56.000Z</time>
      </trkpt>
      <trkpt lat="43.35116" lon="-1.64323">
        <ele>8</ele>
        <time>2026-08-23T14:23:58.000Z</time>
      </trkpt>
      <trkpt lat="43.35103" lon="-1.6433">
        <ele>8</ele>
        <time>2026-08-23T14:24:00.000Z</time>
      </trkpt>
      <trkpt lat="43.35076" lon="-1.64352">
        <ele>9</ele>
        <time>2026-08-23T14:24:06.000Z</time>
      </trkpt>
      <trkpt lat="43.35053" lon="-1.64361">
        <ele>10</ele>
        <time>2026-08-23T14:24:10.000Z</time>
      </trkpt>
      <trkpt lat="43.34996" lon="-1.64375">
        <ele>13</ele>
        <time>2026-08-23T14:24:20.000Z</time>
      </trkpt>
      <trkpt lat="43.34985" lon="-1.6438">
        <ele>13</ele>
        <time>2026-08-23T14:24:22.000Z</time>
      </trkpt>
      <trkpt lat="43.34959" lon="-1.64387">
        <ele>13</ele>
        <time>2026-08-23T14:24:27.000Z</time>
      </trkpt>
      <trkpt lat="43.34931" lon="-1.64372">
        <ele>14</ele>
        <time>2026-08-23T14:24:32.000Z</time>
      </trkpt>
      <trkpt lat="43.34879" lon="-1.64316">
        <ele>18</ele>
        <time>2026-08-23T14:24:44.000Z</time>
      </trkpt>
      <trkpt lat="43.34796" lon="-1.64317">
        <ele>18</ele>
        <time>2026-08-23T14:24:59.000Z</time>
      </trkpt>
      <trkpt lat="43.34736" lon="-1.64261">
        <ele>23</ele>
        <time>2026-08-23T14:25:12.000Z</time>
      </trkpt>
      <trkpt lat="43.34691" lon="-1.6423">
        <ele>23</ele>
        <time>2026-08-23T14:25:21.000Z</time>
      </trkpt>
      <trkpt lat="43.34683" lon="-1.64226">
        <ele>23</ele>
        <time>2026-08-23T14:25:22.000Z</time>
      </trkpt>
      <trkpt lat="43.34667" lon="-1.64226">
        <ele>22</ele>
        <time>2026-08-23T14:25:25.000Z</time>
      </trkpt>
      <trkpt lat="43.34651" lon="-1.64236">
        <ele>24</ele>
        <time>2026-08-23T14:25:28.000Z</time>
      </trkpt>
      <trkpt lat="43.3464" lon="-1.64264">
        <ele>24</ele>
        <time>2026-08-23T14:25:32.000Z</time>
      </trkpt>
      <trkpt lat="43.34622" lon="-1.64317">
        <ele>22</ele>
        <time>2026-08-23T14:25:40.000Z</time>
      </trkpt>
      <trkpt lat="43.34553" lon="-1.64347">
        <ele>23</ele>
        <time>2026-08-23T14:25:53.000Z</time>
      </trkpt>
      <trkpt lat="43.34484" lon="-1.64316">
        <ele>25</ele>
        <time>2026-08-23T14:26:06.000Z</time>
      </trkpt>
      <trkpt lat="43.34351" lon="-1.64301">
        <ele>26</ele>
        <time>2026-08-23T14:26:30.000Z</time>
      </trkpt>
      <trkpt lat="43.34024" lon="-1.64261">
        <ele>35</ele>
        <time>2026-08-23T14:27:28.000Z</time>
      </trkpt>
      <trkpt lat="43.34023" lon="-1.64283">
        <ele>35</ele>
        <time>2026-08-23T14:27:31.000Z</time>
      </trkpt>
      <trkpt lat="43.34019" lon="-1.64309">
        <ele>35</ele>
        <time>2026-08-23T14:27:34.000Z</time>
      </trkpt>
      <trkpt lat="43.33986" lon="-1.64473">
        <ele>37</ele>
        <time>2026-08-23T14:27:56.000Z</time>
      </trkpt>
      <trkpt lat="43.33925" lon="-1.64759">
        <ele>44</ele>
        <time>2026-08-23T14:28:35.000Z</time>
      </trkpt>
      <trkpt lat="43.3373" lon="-1.65677">
        <ele>64</ele>
        <time>2026-08-23T14:30:39.000Z</time>
      </trkpt>
      <trkpt lat="43.33716" lon="-1.65754">
        <ele>66</ele>
        <time>2026-08-23T14:30:49.000Z</time>
      </trkpt>
      <trkpt lat="43.33695" lon="-1.6592">
        <ele>68</ele>
        <time>2026-08-23T14:31:11.000Z</time>
      </trkpt>
      <trkpt lat="43.33677" lon="-1.66023">
        <ele>69</ele>
        <time>2026-08-23T14:31:24.000Z</time>
      </trkpt>
      <trkpt lat="43.3365" lon="-1.66164">
        <ele>65</ele>
        <time>2026-08-23T14:31:43.000Z</time>
      </trkpt>
      <trkpt lat="43.33645" lon="-1.66182">
        <ele>65</ele>
        <time>2026-08-23T14:31:46.000Z</time>
      </trkpt>
      <trkpt lat="43.33622" lon="-1.6624">
        <ele>67</ele>
        <time>2026-08-23T14:31:54.000Z</time>
      </trkpt>
      <trkpt lat="43.33615" lon="-1.66263">
        <ele>67</ele>
        <time>2026-08-23T14:31:58.000Z</time>
      </trkpt>
      <trkpt lat="43.33607" lon="-1.66344">
        <ele>65</ele>
        <time>2026-08-23T14:32:08.000Z</time>
      </trkpt>
      <trkpt lat="43.33608" lon="-1.66377">
        <ele>64</ele>
        <time>2026-08-23T14:32:12.000Z</time>
      </trkpt>
      <trkpt lat="43.33615" lon="-1.66412">
        <ele>62</ele>
        <time>2026-08-23T14:32:17.000Z</time>
      </trkpt>
      <trkpt lat="43.33625" lon="-1.66444">
        <ele>59</ele>
        <time>2026-08-23T14:32:22.000Z</time>
      </trkpt>
      <trkpt lat="43.33661" lon="-1.6654">
        <ele>53</ele>
        <time>2026-08-23T14:32:36.000Z</time>
      </trkpt>
      <trkpt lat="43.33666" lon="-1.66563">
        <ele>52</ele>
        <time>2026-08-23T14:32:39.000Z</time>
      </trkpt>
      <trkpt lat="43.33671" lon="-1.66597">
        <ele>50</ele>
        <time>2026-08-23T14:32:43.000Z</time>
      </trkpt>
      <trkpt lat="43.33672" lon="-1.66622">
        <ele>50</ele>
        <time>2026-08-23T14:32:46.000Z</time>
      </trkpt>
      <trkpt lat="43.33666" lon="-1.66662">
        <ele>48</ele>
        <time>2026-08-23T14:32:52.000Z</time>
      </trkpt>
      <trkpt lat="43.33655" lon="-1.66718">
        <ele>47</ele>
        <time>2026-08-23T14:32:59.000Z</time>
      </trkpt>
      <trkpt lat="43.3364" lon="-1.66759">
        <ele>45</ele>
        <time>2026-08-23T14:33:05.000Z</time>
      </trkpt>
      <trkpt lat="43.33633" lon="-1.66772">
        <ele>45</ele>
        <time>2026-08-23T14:33:07.000Z</time>
      </trkpt>
      <trkpt lat="43.33629" lon="-1.66778">
        <ele>45</ele>
        <time>2026-08-23T14:33:08.000Z</time>
      </trkpt>
      <trkpt lat="43.33622" lon="-1.66788">
        <ele>45</ele>
        <time>2026-08-23T14:33:10.000Z</time>
      </trkpt>
      <trkpt lat="43.33613" lon="-1.66794">
        <ele>45</ele>
        <time>2026-08-23T14:33:12.000Z</time>
      </trkpt>
      <trkpt lat="43.3361" lon="-1.66799">
        <ele>45</ele>
        <time>2026-08-23T14:33:13.000Z</time>
      </trkpt>
      <trkpt lat="43.33606" lon="-1.66802">
        <ele>45</ele>
        <time>2026-08-23T14:33:14.000Z</time>
      </trkpt>
      <trkpt lat="43.3361" lon="-1.66812">
        <ele>45</ele>
        <time>2026-08-23T14:33:15.000Z</time>
      </trkpt>
      <trkpt lat="43.3362" lon="-1.66822">
        <ele>44</ele>
        <time>2026-08-23T14:33:17.000Z</time>
      </trkpt>
      <trkpt lat="43.33683" lon="-1.66831">
        <ele>43</ele>
        <time>2026-08-23T14:33:28.000Z</time>
      </trkpt>
      <trkpt lat="43.337" lon="-1.66832">
        <ele>42</ele>
        <time>2026-08-23T14:33:32.000Z</time>
      </trkpt>
      <trkpt lat="43.33747" lon="-1.66824">
        <ele>42</ele>
        <time>2026-08-23T14:33:40.000Z</time>
      </trkpt>
      <trkpt lat="43.33782" lon="-1.66811">
        <ele>41</ele>
        <time>2026-08-23T14:33:46.000Z</time>
      </trkpt>
      <trkpt lat="43.33831" lon="-1.66786">
        <ele>39</ele>
        <time>2026-08-23T14:33:56.000Z</time>
      </trkpt>
      <trkpt lat="43.33878" lon="-1.66755">
        <ele>37</ele>
        <time>2026-08-23T14:34:05.000Z</time>
      </trkpt>
      <trkpt lat="43.3392" lon="-1.66705">
        <ele>37</ele>
        <time>2026-08-23T14:34:15.000Z</time>
      </trkpt>
      <trkpt lat="43.33975" lon="-1.66648">
        <ele>34</ele>
        <time>2026-08-23T14:34:27.000Z</time>
      </trkpt>
      <trkpt lat="43.33996" lon="-1.66637">
        <ele>33</ele>
        <time>2026-08-23T14:34:31.000Z</time>
      </trkpt>
      <trkpt lat="43.34014" lon="-1.66632">
        <ele>33</ele>
        <time>2026-08-23T14:34:34.000Z</time>
      </trkpt>
      <trkpt lat="43.34031" lon="-1.6663">
        <ele>34</ele>
        <time>2026-08-23T14:34:37.000Z</time>
      </trkpt>
      <trkpt lat="43.34045" lon="-1.66632">
        <ele>35</ele>
        <time>2026-08-23T14:34:40.000Z</time>
      </trkpt>
      <trkpt lat="43.34055" lon="-1.66636">
        <ele>35</ele>
        <time>2026-08-23T14:34:42.000Z</time>
      </trkpt>
      <trkpt lat="43.34059" lon="-1.66639">
        <ele>36</ele>
        <time>2026-08-23T14:34:43.000Z</time>
      </trkpt>
      <trkpt lat="43.3409" lon="-1.66655">
        <ele>38</ele>
        <time>2026-08-23T14:34:48.000Z</time>
      </trkpt>
      <trkpt lat="43.34167" lon="-1.66684">
        <ele>44</ele>
        <time>2026-08-23T14:35:03.000Z</time>
      </trkpt>
      <trkpt lat="43.34291" lon="-1.66741">
        <ele>53</ele>
        <time>2026-08-23T14:35:26.000Z</time>
      </trkpt>
      <trkpt lat="43.3432" lon="-1.66746">
        <ele>54</ele>
        <time>2026-08-23T14:35:31.000Z</time>
      </trkpt>
      <trkpt lat="43.34348" lon="-1.66741">
        <ele>57</ele>
        <time>2026-08-23T14:35:36.000Z</time>
      </trkpt>
      <trkpt lat="43.34368" lon="-1.66726">
        <ele>61</ele>
        <time>2026-08-23T14:35:40.000Z</time>
      </trkpt>
      <trkpt lat="43.34419" lon="-1.66665">
        <ele>71</ele>
        <time>2026-08-23T14:35:52.000Z</time>
      </trkpt>
      <trkpt lat="43.34436" lon="-1.66659">
        <ele>72</ele>
        <time>2026-08-23T14:35:55.000Z</time>
      </trkpt>
      <trkpt lat="43.3447" lon="-1.66657">
        <ele>72</ele>
        <time>2026-08-23T14:36:01.000Z</time>
      </trkpt>
      <trkpt lat="43.34498" lon="-1.66656">
        <ele>72</ele>
        <time>2026-08-23T14:36:06.000Z</time>
      </trkpt>
      <trkpt lat="43.34535" lon="-1.66657">
        <ele>74</ele>
        <time>2026-08-23T14:36:13.000Z</time>
      </trkpt>
      <trkpt lat="43.34553" lon="-1.66663">
        <ele>75</ele>
        <time>2026-08-23T14:36:16.000Z</time>
      </trkpt>
      <trkpt lat="43.34569" lon="-1.66676">
        <ele>76</ele>
        <time>2026-08-23T14:36:20.000Z</time>
      </trkpt>
      <trkpt lat="43.34661" lon="-1.66775">
        <ele>74</ele>
        <time>2026-08-23T14:36:40.000Z</time>
      </trkpt>
      <trkpt lat="43.34676" lon="-1.66789">
        <ele>73</ele>
        <time>2026-08-23T14:36:44.000Z</time>
      </trkpt>
      <trkpt lat="43.34741" lon="-1.66805">
        <ele>72</ele>
        <time>2026-08-23T14:36:55.000Z</time>
      </trkpt>
      <trkpt lat="43.34795" lon="-1.6681">
        <ele>73</ele>
        <time>2026-08-23T14:37:05.000Z</time>
      </trkpt>
      <trkpt lat="43.3482" lon="-1.66817">
        <ele>74</ele>
        <time>2026-08-23T14:37:10.000Z</time>
      </trkpt>
      <trkpt lat="43.34917" lon="-1.66871">
        <ele>83</ele>
        <time>2026-08-23T14:37:28.000Z</time>
      </trkpt>
      <trkpt lat="43.34942" lon="-1.66882">
        <ele>87</ele>
        <time>2026-08-23T14:37:33.000Z</time>
      </trkpt>
      <trkpt lat="43.34958" lon="-1.6688">
        <ele>89</ele>
        <time>2026-08-23T14:37:36.000Z</time>
      </trkpt>
      <trkpt lat="43.3497" lon="-1.6687">
        <ele>90</ele>
        <time>2026-08-23T14:37:38.000Z</time>
      </trkpt>
      <trkpt lat="43.34977" lon="-1.66826">
        <ele>86</ele>
        <time>2026-08-23T14:37:44.000Z</time>
      </trkpt>
      <trkpt lat="43.34985" lon="-1.66811">
        <ele>85</ele>
        <time>2026-08-23T14:37:46.000Z</time>
      </trkpt>
      <trkpt lat="43.34998" lon="-1.66803">
        <ele>86</ele>
        <time>2026-08-23T14:37:49.000Z</time>
      </trkpt>
      <trkpt lat="43.35013" lon="-1.668">
        <ele>86</ele>
        <time>2026-08-23T14:37:52.000Z</time>
      </trkpt>
      <trkpt lat="43.35023" lon="-1.66806">
        <ele>87</ele>
        <time>2026-08-23T14:37:54.000Z</time>
      </trkpt>
      <trkpt lat="43.35073" lon="-1.66853">
        <ele>92</ele>
        <time>2026-08-23T14:38:04.000Z</time>
      </trkpt>
      <trkpt lat="43.35089" lon="-1.66859">
        <ele>92</ele>
        <time>2026-08-23T14:38:07.000Z</time>
      </trkpt>
      <trkpt lat="43.35108" lon="-1.66858">
        <ele>93</ele>
        <time>2026-08-23T14:38:11.000Z</time>
      </trkpt>
      <trkpt lat="43.35124" lon="-1.66846">
        <ele>93</ele>
        <time>2026-08-23T14:38:14.000Z</time>
      </trkpt>
      <trkpt lat="43.3518" lon="-1.66752">
        <ele>92</ele>
        <time>2026-08-23T14:38:30.000Z</time>
      </trkpt>
      <trkpt lat="43.35199" lon="-1.66734">
        <ele>91</ele>
        <time>2026-08-23T14:38:34.000Z</time>
      </trkpt>
      <trkpt lat="43.35212" lon="-1.66731">
        <ele>91</ele>
        <time>2026-08-23T14:38:36.000Z</time>
      </trkpt>
      <trkpt lat="43.35246" lon="-1.66735">
        <ele>93</ele>
        <time>2026-08-23T14:38:42.000Z</time>
      </trkpt>
      <trkpt lat="43.35265" lon="-1.66731">
        <ele>92</ele>
        <time>2026-08-23T14:38:46.000Z</time>
      </trkpt>
      <trkpt lat="43.35289" lon="-1.66718">
        <ele>91</ele>
        <time>2026-08-23T14:38:50.000Z</time>
      </trkpt>
      <trkpt lat="43.35301" lon="-1.66706">
        <ele>91</ele>
        <time>2026-08-23T14:38:53.000Z</time>
      </trkpt>
      <trkpt lat="43.35386" lon="-1.66666">
        <ele>97</ele>
        <time>2026-08-23T14:39:09.000Z</time>
      </trkpt>
      <trkpt lat="43.35428" lon="-1.6664">
        <ele>96</ele>
        <time>2026-08-23T14:39:17.000Z</time>
      </trkpt>
      <trkpt lat="43.35456" lon="-1.66613">
        <ele>94</ele>
        <time>2026-08-23T14:39:23.000Z</time>
      </trkpt>
      <trkpt lat="43.35478" lon="-1.66603">
        <ele>94</ele>
        <time>2026-08-23T14:39:27.000Z</time>
      </trkpt>
      <trkpt lat="43.3556" lon="-1.66589">
        <ele>90</ele>
        <time>2026-08-23T14:39:42.000Z</time>
      </trkpt>
      <trkpt lat="43.35628" lon="-1.66587">
        <ele>86</ele>
        <time>2026-08-23T14:39:54.000Z</time>
      </trkpt>
      <trkpt lat="43.3565" lon="-1.66574">
        <ele>84</ele>
        <time>2026-08-23T14:39:58.000Z</time>
      </trkpt>
      <trkpt lat="43.35682" lon="-1.66548">
        <ele>80</ele>
        <time>2026-08-23T14:40:05.000Z</time>
      </trkpt>
      <trkpt lat="43.35721" lon="-1.66497">
        <ele>77</ele>
        <time>2026-08-23T14:40:14.000Z</time>
      </trkpt>
      <trkpt lat="43.35739" lon="-1.66481">
        <ele>76</ele>
        <time>2026-08-23T14:40:18.000Z</time>
      </trkpt>
      <trkpt lat="43.35756" lon="-1.66471">
        <ele>76</ele>
        <time>2026-08-23T14:40:22.000Z</time>
      </trkpt>
      <trkpt lat="43.35819" lon="-1.66447">
        <ele>75</ele>
        <time>2026-08-23T14:40:33.000Z</time>
      </trkpt>
      <trkpt lat="43.35843" lon="-1.66442">
        <ele>76</ele>
        <time>2026-08-23T14:40:37.000Z</time>
      </trkpt>
      <trkpt lat="43.35868" lon="-1.66434">
        <ele>77</ele>
        <time>2026-08-23T14:40:42.000Z</time>
      </trkpt>
      <trkpt lat="43.35879" lon="-1.66427">
        <ele>78</ele>
        <time>2026-08-23T14:40:44.000Z</time>
      </trkpt>
      <trkpt lat="43.35887" lon="-1.66408">
        <ele>77</ele>
        <time>2026-08-23T14:40:47.000Z</time>
      </trkpt>
      <trkpt lat="43.35891" lon="-1.6638">
        <ele>76</ele>
        <time>2026-08-23T14:40:51.000Z</time>
      </trkpt>
      <trkpt lat="43.35896" lon="-1.66356">
        <ele>75</ele>
        <time>2026-08-23T14:40:54.000Z</time>
      </trkpt>
      <trkpt lat="43.35904" lon="-1.66343">
        <ele>75</ele>
        <time>2026-08-23T14:40:56.000Z</time>
      </trkpt>
      <trkpt lat="43.35921" lon="-1.66334">
        <ele>76</ele>
        <time>2026-08-23T14:40:59.000Z</time>
      </trkpt>
      <trkpt lat="43.35958" lon="-1.66324">
        <ele>76</ele>
        <time>2026-08-23T14:41:06.000Z</time>
      </trkpt>
      <trkpt lat="43.36052" lon="-1.66192">
        <ele>82</ele>
        <time>2026-08-23T14:41:30.000Z</time>
      </trkpt>
      <trkpt lat="43.36088" lon="-1.66137">
        <ele>83</ele>
        <time>2026-08-23T14:41:40.000Z</time>
      </trkpt>
      <trkpt lat="43.36116" lon="-1.66099">
        <ele>84</ele>
        <time>2026-08-23T14:41:47.000Z</time>
      </trkpt>
      <trkpt lat="43.36176" lon="-1.66069">
        <ele>86</ele>
        <time>2026-08-23T14:41:58.000Z</time>
      </trkpt>
      <trkpt lat="43.36203" lon="-1.66064">
        <ele>84</ele>
        <time>2026-08-23T14:42:03.000Z</time>
      </trkpt>
      <trkpt lat="43.36233" lon="-1.66076">
        <ele>81</ele>
        <time>2026-08-23T14:42:08.000Z</time>
      </trkpt>
      <trkpt lat="43.36256" lon="-1.66092">
        <ele>78</ele>
        <time>2026-08-23T14:42:13.000Z</time>
      </trkpt>
      <trkpt lat="43.3627" lon="-1.66093">
        <ele>77</ele>
        <time>2026-08-23T14:42:15.000Z</time>
      </trkpt>
      <trkpt lat="43.36327" lon="-1.66082">
        <ele>76</ele>
        <time>2026-08-23T14:42:26.000Z</time>
      </trkpt>
      <trkpt lat="43.3637" lon="-1.66054">
        <ele>75</ele>
        <time>2026-08-23T14:42:34.000Z</time>
      </trkpt>
      <trkpt lat="43.36417" lon="-1.65987">
        <ele>74</ele>
        <time>2026-08-23T14:42:46.000Z</time>
      </trkpt>
      <trkpt lat="43.36511" lon="-1.6582">
        <ele>68</ele>
        <time>2026-08-23T14:43:14.000Z</time>
      </trkpt>
      <trkpt lat="43.36524" lon="-1.65795">
        <ele>68</ele>
        <time>2026-08-23T14:43:18.000Z</time>
      </trkpt>
      <trkpt lat="43.36536" lon="-1.65765">
        <ele>68</ele>
        <time>2026-08-23T14:43:22.000Z</time>
      </trkpt>
      <trkpt lat="43.36558" lon="-1.65684">
        <ele>72</ele>
        <time>2026-08-23T14:43:33.000Z</time>
      </trkpt>
      <trkpt lat="43.36565" lon="-1.65674">
        <ele>74</ele>
        <time>2026-08-23T14:43:35.000Z</time>
      </trkpt>
      <trkpt lat="43.36584" lon="-1.65655">
        <ele>75</ele>
        <time>2026-08-23T14:43:39.000Z</time>
      </trkpt>
      <trkpt lat="43.36597" lon="-1.65644">
        <ele>73</ele>
        <time>2026-08-23T14:43:42.000Z</time>
      </trkpt>
      <trkpt lat="43.36614" lon="-1.65635">
        <ele>72</ele>
        <time>2026-08-23T14:43:45.000Z</time>
      </trkpt>
      <trkpt lat="43.36636" lon="-1.65628">
        <ele>71</ele>
        <time>2026-08-23T14:43:49.000Z</time>
      </trkpt>
      <trkpt lat="43.36653" lon="-1.65628">
        <ele>70</ele>
        <time>2026-08-23T14:43:52.000Z</time>
      </trkpt>
      <trkpt lat="43.36676" lon="-1.65632">
        <ele>69</ele>
        <time>2026-08-23T14:43:56.000Z</time>
      </trkpt>
      <trkpt lat="43.36703" lon="-1.65641">
        <ele>67</ele>
        <time>2026-08-23T14:44:01.000Z</time>
      </trkpt>
      <trkpt lat="43.36733" lon="-1.65656">
        <ele>66</ele>
        <time>2026-08-23T14:44:07.000Z</time>
      </trkpt>
      <trkpt lat="43.36766" lon="-1.6568">
        <ele>65</ele>
        <time>2026-08-23T14:44:13.000Z</time>
      </trkpt>
      <trkpt lat="43.36853" lon="-1.65724">
        <ele>63</ele>
        <time>2026-08-23T14:44:30.000Z</time>
      </trkpt>
      <trkpt lat="43.36916" lon="-1.65752">
        <ele>60</ele>
        <time>2026-08-23T14:44:42.000Z</time>
      </trkpt>
      <trkpt lat="43.36982" lon="-1.65775">
        <ele>57</ele>
        <time>2026-08-23T14:44:54.000Z</time>
      </trkpt>
      <trkpt lat="43.37009" lon="-1.65789">
        <ele>56</ele>
        <time>2026-08-23T14:44:59.000Z</time>
      </trkpt>
      <trkpt lat="43.37079" lon="-1.6583">
        <ele>60</ele>
        <time>2026-08-23T14:45:13.000Z</time>
      </trkpt>
      <trkpt lat="43.37089" lon="-1.65839">
        <ele>59</ele>
        <time>2026-08-23T14:45:15.000Z</time>
      </trkpt>
      <trkpt lat="43.37097" lon="-1.65849">
        <ele>57</ele>
        <time>2026-08-23T14:45:17.000Z</time>
      </trkpt>
      <trkpt lat="43.37109" lon="-1.65882">
        <ele>52</ele>
        <time>2026-08-23T14:45:21.000Z</time>
      </trkpt>
      <trkpt lat="43.37114" lon="-1.65888">
        <ele>52</ele>
        <time>2026-08-23T14:45:23.000Z</time>
      </trkpt>
      <trkpt lat="43.37122" lon="-1.65894">
        <ele>52</ele>
        <time>2026-08-23T14:45:24.000Z</time>
      </trkpt>
      <trkpt lat="43.37138" lon="-1.65898">
        <ele>52</ele>
        <time>2026-08-23T14:45:27.000Z</time>
      </trkpt>
      <trkpt lat="43.37323" lon="-1.65911">
        <ele>39</ele>
        <time>2026-08-23T14:46:00.000Z</time>
      </trkpt>
      <trkpt lat="43.37333" lon="-1.65911">
        <ele>38</ele>
        <time>2026-08-23T14:46:02.000Z</time>
      </trkpt>
      <trkpt lat="43.37349" lon="-1.65906">
        <ele>38</ele>
        <time>2026-08-23T14:46:05.000Z</time>
      </trkpt>
      <trkpt lat="43.37401" lon="-1.65886">
        <ele>37</ele>
        <time>2026-08-23T14:46:14.000Z</time>
      </trkpt>
      <trkpt lat="43.37425" lon="-1.65876">
        <ele>37</ele>
        <time>2026-08-23T14:46:19.000Z</time>
      </trkpt>
      <trkpt lat="43.37455" lon="-1.65872">
        <ele>39</ele>
        <time>2026-08-23T14:46:24.000Z</time>
      </trkpt>
      <trkpt lat="43.37463" lon="-1.65873">
        <ele>40</ele>
        <time>2026-08-23T14:46:26.000Z</time>
      </trkpt>
      <trkpt lat="43.37461" lon="-1.65846">
        <ele>40</ele>
        <time>2026-08-23T14:46:29.000Z</time>
      </trkpt>
      <trkpt lat="43.37462" lon="-1.6584">
        <ele>40</ele>
        <time>2026-08-23T14:46:30.000Z</time>
      </trkpt>
      <trkpt lat="43.37541" lon="-1.65803">
        <ele>46</ele>
        <time>2026-08-23T14:46:45.000Z</time>
      </trkpt>
      <trkpt lat="43.3758" lon="-1.65811">
        <ele>48</ele>
        <time>2026-08-23T14:46:52.000Z</time>
      </trkpt>
      <trkpt lat="43.37634" lon="-1.65834">
        <ele>40</ele>
        <time>2026-08-23T14:47:02.000Z</time>
      </trkpt>
      <trkpt lat="43.37684" lon="-1.65844">
        <ele>33</ele>
        <time>2026-08-23T14:47:11.000Z</time>
      </trkpt>
      <trkpt lat="43.37723" lon="-1.65853">
        <ele>26</ele>
        <time>2026-08-23T14:47:18.000Z</time>
      </trkpt>
      <trkpt lat="43.3774" lon="-1.65864">
        <ele>24</ele>
        <time>2026-08-23T14:47:21.000Z</time>
      </trkpt>
      <trkpt lat="43.37752" lon="-1.65881">
        <ele>22</ele>
        <time>2026-08-23T14:47:24.000Z</time>
      </trkpt>
      <trkpt lat="43.37756" lon="-1.65879">
        <ele>22</ele>
        <time>2026-08-23T14:47:25.000Z</time>
      </trkpt>
      <trkpt lat="43.37766" lon="-1.65881">
        <ele>21</ele>
        <time>2026-08-23T14:47:27.000Z</time>
      </trkpt>
      <trkpt lat="43.37817" lon="-1.65922">
        <ele>17</ele>
        <time>2026-08-23T14:47:37.000Z</time>
      </trkpt>
      <trkpt lat="43.37834" lon="-1.65938">
        <ele>15</ele>
        <time>2026-08-23T14:47:41.000Z</time>
      </trkpt>
      <trkpt lat="43.37845" lon="-1.65954">
        <ele>14</ele>
        <time>2026-08-23T14:47:44.000Z</time>
      </trkpt>
      <trkpt lat="43.37862" lon="-1.65988">
        <ele>12</ele>
        <time>2026-08-23T14:47:49.000Z</time>
      </trkpt>
      <trkpt lat="43.37878" lon="-1.66012">
        <ele>10</ele>
        <time>2026-08-23T14:47:53.000Z</time>
      </trkpt>
      <trkpt lat="43.37891" lon="-1.66024">
        <ele>9</ele>
        <time>2026-08-23T14:47:56.000Z</time>
      </trkpt>
      <trkpt lat="43.37923" lon="-1.66042">
        <ele>8</ele>
        <time>2026-08-23T14:48:02.000Z</time>
      </trkpt>
      <trkpt lat="43.37967" lon="-1.66075">
        <ele>6</ele>
        <time>2026-08-23T14:48:11.000Z</time>
      </trkpt>
      <trkpt lat="43.37989" lon="-1.66095">
        <ele>5</ele>
        <time>2026-08-23T14:48:16.000Z</time>
      </trkpt>
      <trkpt lat="43.38005" lon="-1.66115">
        <ele>5</ele>
        <time>2026-08-23T14:48:20.000Z</time>
      </trkpt>
      <trkpt lat="43.38033" lon="-1.6614">
        <ele>6</ele>
        <time>2026-08-23T14:48:26.000Z</time>
      </trkpt>
      <trkpt lat="43.38015" lon="-1.6616">
        <ele>5</ele>
        <time>2026-08-23T14:48:30.000Z</time>
      </trkpt>
      <trkpt lat="43.38001" lon="-1.66189">
        <ele>5</ele>
        <time>2026-08-23T14:48:34.000Z</time>
      </trkpt>
      <trkpt lat="43.38012" lon="-1.66221">
        <ele>5</ele>
        <time>2026-08-23T14:48:39.000Z</time>
      </trkpt>
      <trkpt lat="43.38026" lon="-1.66242">
        <ele>4</ele>
        <time>2026-08-23T14:48:43.000Z</time>
      </trkpt>
      <trkpt lat="43.38037" lon="-1.66252">
        <ele>4</ele>
        <time>2026-08-23T14:48:45.000Z</time>
      </trkpt>
      <trkpt lat="43.38072" lon="-1.6627">
        <ele>5</ele>
        <time>2026-08-23T14:48:52.000Z</time>
      </trkpt>
      <trkpt lat="43.38085" lon="-1.66281">
        <ele>5</ele>
        <time>2026-08-23T14:48:54.000Z</time>
      </trkpt>
      <trkpt lat="43.38093" lon="-1.66296">
        <ele>5</ele>
        <time>2026-08-23T14:48:57.000Z</time>
      </trkpt>
      <trkpt lat="43.38108" lon="-1.66404">
        <ele>6</ele>
        <time>2026-08-23T14:49:11.000Z</time>
      </trkpt>
      <trkpt lat="43.38118" lon="-1.66429">
        <ele>5</ele>
        <time>2026-08-23T14:49:15.000Z</time>
      </trkpt>
      <trkpt lat="43.38129" lon="-1.66448">
        <ele>5</ele>
        <time>2026-08-23T14:49:18.000Z</time>
      </trkpt>
      <trkpt lat="43.38141" lon="-1.66462">
        <ele>4</ele>
        <time>2026-08-23T14:49:21.000Z</time>
      </trkpt>
      <trkpt lat="43.38223" lon="-1.66552">
        <ele>3</ele>
        <time>2026-08-23T14:49:39.000Z</time>
      </trkpt>
      <trkpt lat="43.38274" lon="-1.66679">
        <ele>5</ele>
        <time>2026-08-23T14:49:58.000Z</time>
      </trkpt>
      <trkpt lat="43.38286" lon="-1.66703">
        <ele>6</ele>
        <time>2026-08-23T14:50:02.000Z</time>
      </trkpt>
      <trkpt lat="43.38305" lon="-1.66747">
        <ele>7</ele>
        <time>2026-08-23T14:50:08.000Z</time>
      </trkpt>
      <trkpt lat="43.38314" lon="-1.6676">
        <ele>7</ele>
        <time>2026-08-23T14:50:11.000Z</time>
      </trkpt>
      <trkpt lat="43.38344" lon="-1.66759">
        <ele>7</ele>
        <time>2026-08-23T14:50:16.000Z</time>
      </trkpt>
      <trkpt lat="43.38366" lon="-1.66755">
        <ele>6</ele>
        <time>2026-08-23T14:50:20.000Z</time>
      </trkpt>
      <trkpt lat="43.38378" lon="-1.66744">
        <ele>5</ele>
        <time>2026-08-23T14:50:23.000Z</time>
      </trkpt>
      <trkpt lat="43.38449" lon="-1.66646">
        <ele>4</ele>
        <time>2026-08-23T14:50:40.000Z</time>
      </trkpt>
      <trkpt lat="43.38446" lon="-1.66639">
        <ele>4</ele>
        <time>2026-08-23T14:50:41.000Z</time>
      </trkpt>
      <trkpt lat="43.38446" lon="-1.66631">
        <ele>4</ele>
        <time>2026-08-23T14:50:43.000Z</time>
      </trkpt>
      <trkpt lat="43.38411" lon="-1.66589">
        <ele>4</ele>
        <time>2026-08-23T14:50:51.000Z</time>
      </trkpt>
      <trkpt lat="43.38408" lon="-1.66568">
        <ele>4</ele>
        <time>2026-08-23T14:50:54.000Z</time>
      </trkpt>
      <trkpt lat="43.38416" lon="-1.66546">
        <ele>4</ele>
        <time>2026-08-23T14:50:57.000Z</time>
      </trkpt>
      <trkpt lat="43.38482" lon="-1.6642">
        <ele>5</ele>
        <time>2026-08-23T14:51:17.000Z</time>
      </trkpt>
      <trkpt lat="43.38517" lon="-1.66346">
        <ele>2</ele>
        <time>2026-08-23T14:51:28.000Z</time>
      </trkpt>
      <trkpt lat="43.38548" lon="-1.66274">
        <ele>3</ele>
        <time>2026-08-23T14:51:39.000Z</time>
      </trkpt>
      <trkpt lat="43.38558" lon="-1.6625">
        <ele>3</ele>
        <time>2026-08-23T14:51:43.000Z</time>
      </trkpt>
      <trkpt lat="43.38566" lon="-1.66229">
        <ele>3</ele>
        <time>2026-08-23T14:51:46.000Z</time>
      </trkpt>
      <trkpt lat="43.38574" lon="-1.66212">
        <ele>4</ele>
        <time>2026-08-23T14:51:48.000Z</time>
      </trkpt>
      <trkpt lat="43.38589" lon="-1.66194">
        <ele>4</ele>
        <time>2026-08-23T14:51:52.000Z</time>
      </trkpt>
      <trkpt lat="43.3859" lon="-1.66189">
        <ele>4</ele>
        <time>2026-08-23T14:51:53.000Z</time>
      </trkpt>
      <trkpt lat="43.38593" lon="-1.66178">
        <ele>4</ele>
        <time>2026-08-23T14:51:54.000Z</time>
      </trkpt>
      <trkpt lat="43.38598" lon="-1.66173">
        <ele>5</ele>
        <time>2026-08-23T14:51:55.000Z</time>
      </trkpt>
      <trkpt lat="43.38603" lon="-1.6617">
        <ele>5</ele>
        <time>2026-08-23T14:51:56.000Z</time>
      </trkpt>
      <trkpt lat="43.38609" lon="-1.6617">
        <ele>5</ele>
        <time>2026-08-23T14:51:57.000Z</time>
      </trkpt>
      <trkpt lat="43.38615" lon="-1.66172">
        <ele>6</ele>
        <time>2026-08-23T14:51:58.000Z</time>
      </trkpt>
      <trkpt lat="43.38623" lon="-1.66181">
        <ele>6</ele>
        <time>2026-08-23T14:52:00.000Z</time>
      </trkpt>
      <trkpt lat="43.38625" lon="-1.66195">
        <ele>5</ele>
        <time>2026-08-23T14:52:02.000Z</time>
      </trkpt>
      <trkpt lat="43.3863" lon="-1.66198">
        <ele>6</ele>
        <time>2026-08-23T14:52:03.000Z</time>
      </trkpt>
      <trkpt lat="43.38654" lon="-1.66271">
        <ele>3</ele>
        <time>2026-08-23T14:52:13.000Z</time>
      </trkpt>
      <trkpt lat="43.38665" lon="-1.66299">
        <ele>2</ele>
        <time>2026-08-23T14:52:17.000Z</time>
      </trkpt>
      <trkpt lat="43.38674" lon="-1.66306">
        <ele>2</ele>
        <time>2026-08-23T14:52:19.000Z</time>
      </trkpt>
      <trkpt lat="43.3868" lon="-1.66306">
        <ele>2</ele>
        <time>2026-08-23T14:52:20.000Z</time>
      </trkpt>
      <trkpt lat="43.38685" lon="-1.66309">
        <ele>2</ele>
        <time>2026-08-23T14:52:21.000Z</time>
      </trkpt>
      <trkpt lat="43.38688" lon="-1.66317">
        <ele>2</ele>
        <time>2026-08-23T14:52:22.000Z</time>
      </trkpt>
      <trkpt lat="43.38687" lon="-1.66329">
        <ele>1</ele>
        <time>2026-08-23T14:52:24.000Z</time>
      </trkpt>
      <trkpt lat="43.38682" lon="-1.66334">
        <ele>1</ele>
        <time>2026-08-23T14:52:25.000Z</time>
      </trkpt>
      <trkpt lat="43.38678" lon="-1.66335">
        <ele>1</ele>
        <time>2026-08-23T14:52:26.000Z</time>
      </trkpt>
      <trkpt lat="43.3867" lon="-1.66331">
        <ele>4</ele>
        <time>2026-08-23T14:52:27.000Z</time>
      </trkpt>
      <trkpt lat="43.38668" lon="-1.66327">
        <ele>4</ele>
        <time>2026-08-23T14:52:28.000Z</time>
      </trkpt>
      <trkpt lat="43.38651" lon="-1.66328">
        <ele>4</ele>
        <time>2026-08-23T14:52:31.000Z</time>
      </trkpt>
      <trkpt lat="43.38636" lon="-1.66325">
        <ele>3.9</ele>
        <time>2026-08-23T14:52:34.000Z</time>
      </trkpt>
      <trkpt lat="43.38617" lon="-1.66317">
        <ele>3.4</ele>
        <time>2026-08-23T14:52:37.000Z</time>
      </trkpt>
      <trkpt lat="43.386" lon="-1.66303">
        <ele>1</ele>
        <time>2026-08-23T14:52:41.000Z</time>
      </trkpt>
      <trkpt lat="43.3857" lon="-1.66267">
        <ele>2</ele>
        <time>2026-08-23T14:52:48.000Z</time>
      </trkpt>
      <trkpt lat="43.38503" lon="-1.66208">
        <ele>4</ele>
        <time>2026-08-23T14:53:02.000Z</time>
      </trkpt>
      <trkpt lat="43.38496" lon="-1.66199">
        <ele>5</ele>
        <time>2026-08-23T14:53:04.000Z</time>
      </trkpt>
      <trkpt lat="43.38487" lon="-1.66173">
        <ele>5</ele>
        <time>2026-08-23T14:53:07.000Z</time>
      </trkpt>
      <trkpt lat="43.38481" lon="-1.66172">
        <ele>5</ele>
        <time>2026-08-23T14:53:08.000Z</time>
      </trkpt>
      <trkpt lat="43.38478" lon="-1.66167">
        <ele>6</ele>
        <time>2026-08-23T14:53:09.000Z</time>
      </trkpt>
      <trkpt lat="43.38477" lon="-1.66161">
        <ele>5</ele>
        <time>2026-08-23T14:53:10.000Z</time>
      </trkpt>
      <trkpt lat="43.38479" lon="-1.66155">
        <ele>5</ele>
        <time>2026-08-23T14:53:11.000Z</time>
      </trkpt>
      <trkpt lat="43.38462" lon="-1.66121">
        <ele>5</ele>
        <time>2026-08-23T14:53:16.000Z</time>
      </trkpt>
      <trkpt lat="43.38445" lon="-1.66095">
        <ele>5</ele>
        <time>2026-08-23T14:53:21.000Z</time>
      </trkpt>
      <trkpt lat="43.38347" lon="-1.65961">
        <ele>6</ele>
        <time>2026-08-23T14:53:45.000Z</time>
      </trkpt>
      <trkpt lat="43.3834" lon="-1.65943">
        <ele>6</ele>
        <time>2026-08-23T14:53:48.000Z</time>
      </trkpt>
      <trkpt lat="43.38336" lon="-1.65944">
        <ele>6</ele>
        <time>2026-08-23T14:53:49.000Z</time>
      </trkpt>
      <trkpt lat="43.3833" lon="-1.65941">
        <ele>6</ele>
        <time>2026-08-23T14:53:50.000Z</time>
      </trkpt>
      <trkpt lat="43.38328" lon="-1.65932">
        <ele>6</ele>
        <time>2026-08-23T14:53:51.000Z</time>
      </trkpt>
      <trkpt lat="43.3833" lon="-1.65928">
        <ele>6</ele>
        <time>2026-08-23T14:53:52.000Z</time>
      </trkpt>
      <trkpt lat="43.38324" lon="-1.65923">
        <ele>6</ele>
        <time>2026-08-23T14:53:53.000Z</time>
      </trkpt>
      <trkpt lat="43.38309" lon="-1.65902">
        <ele>5</ele>
        <time>2026-08-23T14:53:57.000Z</time>
      </trkpt>
      <trkpt lat="43.38304" lon="-1.65905">
        <ele>4</ele>
        <time>2026-08-23T14:53:58.000Z</time>
      </trkpt>
    </trkseg>
  </trk>
</gpx>